[[{"header":{"parameterUnit":"m.s-1","parameterCategory":1,"la1":30.6,"la2":28.766,"lo1":-90.7593,"lo2":-88.6598,"dy":0.0162,"dx":0.0183,"nx":116,"ny":114,"refTime":"2023-05-11T00:00:00:Z","depth":0,"parameterNumber":2,"parameterNumberName":"U-component_of_WINDS"},"data":[0.0,0.0,0.0,0.0,0.0,0.0,0.0,0.0,0.0,0.0,0.0,0.0,0.0,0.0,0.0,0.0,0.0,0.0,0.0,0.0,0.0,0.0,0.0,0.0,0.0,0.0,0.0,0.0,0.0,0.0,0.0,0.0,0.0,0.0,0.0,0.0,0.0,0.0,0.0,0.0,0.0,0.0,0.0,0.0,0.0,0.0,0.0,0.0,0.0,0.0,0.0,0.0,0.0,0.0,0.0,0.0,0.0,0.0,0.0,0.0,0.0,0.0,0.0,0.0,0.0,0.0,0.0,0.0,0.0,0.0,0.0,0.0,0.0,0.0,0.0,0.0,0.0,0.0,0.0,0.0,0.0,0.0,0.0,0.0,0.0,0.0,0.0,0.0,0.0,0.0,0.0,0.0,0.0,0.0,0.0,0.0,0.0,0.0,0.0,0.0,0.0,0.0,0.0,0.0,0.0,0.0,0.0,0.0,0.0,0.0,0.0,0.0,0.0,0.0,0.0,0.0,0.0,0.0,0.0,0.0,0.0,0.0,0.0,0.0,0.0,0.0,0.0,0.0,0.0,0.0,0.0,0.0,0.0,0.0,0.0,0.0,0.0,0.0,0.0,0.0,0.0,0.0,0.0,0.0,0.0,0.0,0.0,0.0,0.0,0.0,0.0,0.0,0.0,0.0,0.0,0.0,0.0,0.0,0.0,0.0,0.0,0.0,0.0,0.0,0.0,0.0,0.0,0.0,0.0,0.0,0.0,0.0,0.0,0.0,0.0,0.0,0.0,0.0,0.0,0.0,0.0,0.0,0.0,0.0,0.0,0.0,0.0,0.0,0.0,0.0,0.0,0.0,0.0,0.0,0.0,0.0,0.0,0.0,0.0,0.0,0.0,0.0,0.0,0.0,0.0,0.0,0.0,0.0,0.0,0.0,0.0,0.0,0.0,0.0,0.0,0.0,0.0,0.0,0.0,0.0,0.0,0.0,0.0,0.0,0.0,0.0,0.0,0.0,0.0,0.0,0.0,0.0,0.0,0.0,0.0,0.0,0.0,0.0,0.0,0.0,0.0,0.0,0.0,0.0,0.0,0.0,0.0,0.0,0.0,0.0,0.0,0.0,0.0,0.0,0.0,0.0,0.0,0.0,0.0,0.0,0.0,0.0,0.0,0.0,0.0,0.0,0.0,0.0,0.0,0.0,0.0,0.0,0.0,0.0,0.0,0.0,0.0,0.0,0.0,0.0,0.0,0.0,0.0,0.0,0.0,0.0,0.0,0.0,0.0,0.0,0.0,0.0,0.0,0.0,0.0,0.0,0.0,0.0,0.0,0.0,0.0,0.0,0.0,0.0,0.0,0.0,0.0,0.0,0.0,0.0,0.0,0.0,0.0,0.0,0.0,0.0,0.0,0.0,0.0,0.0,0.0,0.0,0.0,0.0,0.0,0.0,0.0,0.0,0.0,0.0,0.0,0.0,0.0,0.0,0.0,0.0,0.0,0.0,0.0,0.0,0.0,0.0,0.0,0.0,0.0,0.0,0.0,0.0,0.0,0.0,0.0,0.0,0.0,0.0,0.0,0.0,0.0,0.0,0.0,0.0,0.0,0.0,0.0,0.0,0.0,0.0,0.0,0.0,0.0,0.0,0.0,0.0,0.0,0.0,0.0,0.0,0.0,0.0,0.0,0.0,0.0,0.0,0.0,0.0,0.0,0.0,0.0,0.0,0.0,0.0,0.0,0.0,0.0,0.0,0.0,0.0,0.0,0.0,0.0,0.0,0.0,0.0,0.0,0.0,0.0,0.0,0.0,0.0,0.0,0.0,0.0,0.0,0.0,0.0,0.0,0.0,0.0,0.0,0.0,0.0,0.0,0.0,0.0,0.0,0.0,0.0,0.0,0.0,0.0,0.0,0.0,0.0,0.0,0.0,0.0,0.0,0.0,0.0,0.0,0.0,0.0,0.0,0.0,0.0,0.0,0.0,0.0,0.0,0.0,0.0,0.0,0.0,0.0,0.0,0.0,0.0,0.0,0.0,0.0,0.0,0.0,0.0,0.0,0.0,0.0,0.0,0.0,0.0,0.0,0.0,0.0,0.0,0.0,0.0,0.0,0.0,0.0,0.0,0.0,0.0,0.0,0.0,0.0,0.0,0.0,0.0,0.0,0.0,0.0,0.0,0.0,0.0,0.0,0.0,0.0,0.0,0.0,0.0,0.0,0.0,0.0,0.0,0.0,0.0,0.0,0.0,0.0,0.0,0.0,0.0,0.0,0.0,0.0,0.0,0.0,0.0,0.0,0.0,0.0,0.0,0.0,0.0,0.0,0.0,0.0,0.0,0.0,0.0,0.0,0.0,0.0,0.0,0.0,0.0,0.0,0.0,0.0,0.0,0.0,0.0,0.0,0.0,0.0,0.0,0.0,0.0,0.0,0.0,0.0,0.0,0.0,0.0,0.0,0.0,0.0,0.0,0.0,0.0,0.0,0.0,0.0,0.0,0.0,0.0,0.0,0.0,0.0,0.0,0.0,0.0,0.0,0.0,0.0,0.0,0.0,0.0,0.0,0.0,0.0,0.0,0.0,0.0,0.0,0.0,0.0,0.0,0.0,0.0,0.0,0.0,0.0,0.0,0.0,0.0,0.0,0.0,0.0,0.0,0.0,0.0,0.0,0.0,0.0,0.0,0.0,0.0,0.0,0.0,0.0,0.0,0.0,0.0,0.0,0.0,0.0,0.0,0.0,0.0,0.0,0.0,0.0,0.0,0.0,0.0,0.0,0.0,0.0,0.0,0.0,0.0,0.0,0.0,0.0,0.0,0.0,0.0,0.0,0.0,0.0,0.0,0.0,0.0,0.0,0.0,0.0,0.0,0.0,0.0,0.0,0.0,0.0,0.0,0.0,0.0,0.0,0.0,0.0,0.0,0.0,0.0,0.0,0.0,0.0,0.0,0.0,0.0,0.0,0.0,0.0,0.0,0.0,0.0,0.0,0.0,0.0,0.0,0.0,0.0,0.0,0.0,0.0,0.0,0.0,0.0,0.0,0.0,0.0,0.0,0.0,0.0,0.0,0.0,0.0,0.0,0.0,0.0,0.0,0.0,0.0,0.0,0.0,0.0,0.0,0.0,0.0,0.0,0.0,0.0,0.0,0.0,0.0,0.0,0.0,0.0,0.0,0.0,0.0,0.0,0.0,0.0,0.0,0.0,0.0,0.0,0.0,0.0,0.0,0.0,0.0,0.0,0.0,0.0,0.0,0.0,0.0,0.0,0.0,0.0,0.0,0.0,0.0,0.0,0.0,0.0,0.0,0.0,0.0,0.0,0.0,0.0,0.0,0.0,0.0,0.0,0.0,0.0,0.0,0.0,0.0,0.0,0.0,0.0,0.0,0.0,0.0,0.0,0.0,0.0,0.0,0.0,0.0,0.0,0.0,0.0,0.0,0.0,0.0,0.0,0.0,0.0,0.0,0.0,0.0,0.0,0.0,0.0,0.0,0.0,0.0,0.0,0.0,0.0,0.0,0.0,0.0,0.0,0.0,0.0,0.0,0.0,0.0,0.0,0.0,0.0,0.0,0.0,0.0,0.0,0.0,0.0,0.0,0.0,0.0,0.0,0.0,0.0,0.0,0.0,0.0,0.0,0.0,0.0,0.0,0.0,0.0,0.0,0.0,0.0,0.0,0.0,0.0,0.0,0.0,0.0,0.0,0.0,0.0,0.0,0.0,0.0,0.0,0.0,0.0,0.0,0.0,0.0,0.0,0.0,0.0,0.0,0.0,0.0,0.0,0.0,0.0,0.0,0.0,0.0,0.0,0.0,0.0,0.0,0.0,0.0,0.0,0.0,0.0,0.0,0.0,0.0,0.0,0.0,0.0,0.0,0.0,0.0,0.0,0.0,0.0,0.0,0.0,0.0,0.0,0.0,0.0,0.0,0.0,0.0,0.0,0.0,0.0,0.0,0.0,0.0,0.0,0.0,0.0,0.0,0.0,0.0,0.0,0.0,0.0,0.0,0.0,0.0,0.0,0.0,0.0,0.0,0.0,0.0,0.0,0.0,0.0,0.0,0.0,0.0,0.0,0.0,0.0,0.0,0.0,0.0,0.0,0.0,0.0,0.0,0.0,0.0,0.0,0.0,0.0,0.0,0.0,0.0,0.0,0.0,0.0,0.0,0.0,0.0,0.0,0.0,0.0,0.0,0.0,0.0,0.0,0.0,0.0,0.0,0.0,0.0,0.0,0.0,0.0,0.0,0.0,0.0,0.0,0.0,0.0,0.0,0.0,0.0,0.0,0.0,0.0,0.0,0.0,0.0,0.0,0.0,0.0,0.0,0.0,0.0,0.0,0.0,0.0,0.0,0.0,0.0,0.0,0.0,0.0,0.0,0.0,0.0,0.0,0.0,0.0,0.0,0.0,0.0,0.0,0.0,0.0,0.0,0.0,0.0,0.0,0.0,0.0,0.0,0.0,0.0,0.0,0.0,0.0,0.0,0.0,0.0,0.0,0.0,0.0,0.0,0.0,0.0,0.0,0.0,0.0,0.0,0.0,0.0,0.0,0.0,0.0,0.0,0.0,0.0,0.0,0.0,0.0,0.0,0.0,0.0,0.0,0.0,0.0,0.0,0.0,0.0,0.0,0.0,0.0,0.0,0.0,0.0,0.0,0.0,0.0,0.0,0.0,0.0,0.0,0.0,0.0,0.0,0.0,0.0,0.0,0.0,0.0,0.0,0.0,0.0,0.0,0.0,0.0,0.0,0.0,0.0,0.0,0.0,0.0,0.0,0.0,0.0,0.0,0.0,0.0,0.0,0.0,0.0,0.0,0.0,0.0,0.0,0.0,0.0,0.0,0.0,0.0,0.0,0.0,0.0,0.0,0.0,0.0,0.0,0.0,0.0,0.0,0.0,0.0,0.0,0.0,0.0,0.0,0.0,0.0,0.0,0.0,0.0,0.0,0.0,0.0,0.0,0.0,0.0,0.0,0.0,0.0,0.0,0.0,0.0,0.0,0.0,0.0,0.0,0.0,0.0,0.0,0.0,0.0,0.0,0.0,0.0,0.0,0.0,0.0,0.0,0.0,0.0,0.0,0.0,0.0,0.0,0.0,0.0,0.0,0.0,0.0,0.0,0.0,0.0,0.0,0.0,0.0,0.0,0.0,0.0,0.0,0.0,0.0,0.0,0.0,0.0,0.0,0.0,0.0,0.0,0.0,0.0,0.0,0.0,0.0,0.0,0.0,0.0,0.0,0.0,0.0,0.0,0.0,0.0,0.0,0.0,0.0,0.0,0.0,0.0,0.0,0.0,0.0,0.0,0.0,0.0,0.0,0.0,0.0,0.0,0.0,0.0,0.0,0.0,0.0,0.0,0.0,0.0,0.0,0.0,0.0,0.0,0.0,0.0,0.0,0.0,0.0,0.0,0.0,0.0,0.0,0.0,0.0,0.0,0.0,0.0,0.0,0.0,0.0,0.0,0.0,0.0,0.0,0.0,0.0,0.0,0.0,0.0,0.0,0.0,0.0,0.0,0.0,0.0,0.0,0.0,0.0,0.0,0.0,0.0,0.0,0.0,0.0,0.0,0.0,0.0,0.0,0.0,0.0,0.0,0.0,0.0,0.0,0.0,0.0,0.0,0.0,0.0,0.0,0.0,0.0,0.0,0.0,0.0,0.0,0.0,0.0,0.0,0.0,0.0,0.0,0.0,0.0,0.0,0.0,0.0,0.0,0.0,0.0,0.0,0.0,0.0,0.0,0.0,0.0,0.0,0.0,0.0,0.0,0.0,0.0,0.0,0.0,0.0,0.0,0.0,0.0,0.0,0.0,0.0,0.0,0.0,0.0,0.0,0.0,0.0,0.0,0.0,0.0,0.0,0.0,0.0,0.0,0.0,0.0,0.0,0.0,0.0,0.0,0.0,0.0,0.0,0.0,0.0,0.0,0.0,0.0,0.0,0.0,0.0,0.0,0.0,0.0,0.0,0.0,0.0,0.0,0.0,0.0,0.0,0.0,0.0,0.0,0.0,0.0,0.0,0.0,0.0,0.0,0.0,0.0,0.0,0.0,0.0,0.0,0.0,0.0,0.0,0.0,0.0,0.0,0.0,0.0,0.0,0.0,0.0,-2.4753,0.0,0.0,0.0,0.0,0.0,0.0,0.0,0.0,0.0,0.0,0.0,0.0,0.0,0.0,0.0,0.0,0.0,0.0,0.0,0.0,0.0,0.0,0.0,0.0,0.0,0.0,0.0,0.0,0.0,0.0,0.0,0.0,0.0,0.0,0.0,0.0,0.0,0.0,-1.876,-1.9996,-2.1383,-2.2873,-2.2585,-2.1287,-1.9234,0.0,0.0,0.0,0.0,0.0,0.0,0.0,0.0,0.0,0.0,0.0,0.0,0.0,0.0,0.0,0.0,0.0,0.0,0.0,0.0,0.0,0.0,0.0,0.0,0.0,0.0,0.0,0.0,0.0,0.0,0.0,0.0,0.0,0.0,0.0,0.0,0.0,0.0,0.0,0.0,0.0,0.0,0.0,0.0,0.0,0.0,0.0,0.0,0.0,0.0,0.0,0.0,0.0,0.0,0.0,0.0,0.0,0.0,0.0,0.0,0.0,0.0,0.0,0.0,0.0,0.0,0.0,0.0,0.0,0.0,0.0,-2.5303,0.0,0.0,0.0,0.0,0.0,0.0,0.0,0.0,0.0,0.0,0.0,0.0,0.0,0.0,0.0,0.0,0.0,0.0,0.0,0.0,0.0,0.0,0.0,-1.5019,-1.4956,-1.4787,-1.4937,-1.5033,0.0,0.0,0.0,0.0,0.0,0.0,-1.7862,-1.8691,-1.9491,-2.0197,-2.1998,-2.3929,-2.5952,-2.6091,-2.4535,-2.1585,-2.1331,0.0,0.0,0.0,0.0,0.0,0.0,0.0,0.0,0.0,0.0,0.0,0.0,0.0,0.0,0.0,0.0,0.0,0.0,0.0,0.0,0.0,0.0,0.0,0.0,0.0,0.0,0.0,0.0,0.0,0.0,0.0,0.0,0.0,0.0,0.0,0.0,0.0,0.0,0.0,0.0,0.0,0.0,0.0,0.0,0.0,0.0,0.0,0.0,0.0,0.0,0.0,0.0,0.0,0.0,0.0,0.0,0.0,0.0,0.0,0.0,0.0,0.0,0.0,-3.5956,-3.54,-3.4152,-3.3262,-3.2703,-3.2338,-2.9699,-2.8139,-2.7351,0.0,0.0,0.0,0.0,0.0,0.0,0.0,0.0,0.0,0.0,0.0,0.0,0.0,0.0,0.0,0.0,0.0,0.0,0.0,0.0,0.0,0.0,-1.6202,-1.5927,-1.5887,-1.5967,-1.6213,-1.6661,0.0,0.0,0.0,0.0,0.0,-1.8485,-1.9768,-2.0751,-2.1392,-2.4258,-2.5963,-2.6497,-2.7213,-2.6989,-2.5952,-2.5217,-2.3985,-2.239,0.0,0.0,0.0,0.0,0.0,0.0,0.0,0.0,0.0,0.0,0.0,0.0,0.0,0.0,0.0,0.0,0.0,0.0,0.0,0.0,0.0,0.0,0.0,0.0,0.0,0.0,0.0,0.0,0.0,0.0,0.0,0.0,0.0,0.0,0.0,0.0,0.0,0.0,0.0,0.0,0.0,-3.3343,-3.4015,0.0,0.0,0.0,0.0,0.0,0.0,0.0,0.0,0.0,0.0,0.0,0.0,0.0,0.0,-3.9509,-3.9604,-3.9617,-3.9562,-3.9194,-3.8475,-3.7369,-3.6069,-3.5217,-3.4719,-3.3617,0.0,-2.9772,-2.8533,0.0,0.0,0.0,0.0,0.0,0.0,0.0,0.0,0.0,0.0,0.0,0.0,0.0,0.0,0.0,0.0,0.0,0.0,0.0,0.0,0.0,-1.8083,-1.8398,-1.8768,-1.92,-1.9341,-1.9097,-1.9293,0.0,0.0,0.0,-1.9517,-1.977,-2.1104,-2.2897,-2.5202,-2.7418,-2.8792,-2.9327,-2.9669,-2.9687,-2.9375,-2.9002,-2.7201,-2.4368,-2.392,0.0,0.0,0.0,0.0,0.0,0.0,0.0,0.0,0.0,0.0,0.0,0.0,0.0,0.0,0.0,0.0,0.0,0.0,0.0,0.0,0.0,0.0,0.0,0.0,0.0,0.0,0.0,0.0,0.0,0.0,0.0,0.0,0.0,0.0,0.0,0.0,0.0,0.0,0.0,-3.2102,-3.454,-3.5196,-3.5821,-3.5523,0.0,0.0,0.0,0.0,0.0,0.0,0.0,0.0,0.0,-3.8893,-3.9646,-4.0635,-4.1988,-4.2002,-4.1748,-4.1306,-4.065,-3.9563,-3.8186,-3.7121,-3.6283,-3.5605,-3.4966,-3.3966,-3.2646,-3.0849,-2.9249,-2.766,0.0,0.0,0.0,0.0,0.0,-2.0582,0.0,0.0,0.0,0.0,0.0,0.0,0.0,0.0,0.0,0.0,0.0,0.0,-1.8934,-2.002,-2.0922,-2.1393,-2.2237,-2.237,-2.1523,-2.1561,-2.1155,-2.022,-2.0486,-2.0799,-2.1131,-2.2722,-2.526,-2.8661,-2.9974,-3.0901,-3.1514,-3.1514,-3.1431,-3.1277,-3.131,-2.954,-2.6493,-2.6155,-2.4984,-2.3226,0.0,0.0,0.0,0.0,0.0,0.0,0.0,0.0,0.0,0.0,0.0,0.0,0.0,0.0,0.0,0.0,0.0,0.0,0.0,0.0,0.0,0.0,0.0,0.0,0.0,0.0,0.0,0.0,0.0,0.0,0.0,0.0,0.0,0.0,0.0,0.0,0.0,-3.4051,-3.5966,-3.6905,-3.7925,-3.7908,0.0,0.0,0.0,0.0,0.0,0.0,-3.9071,-3.976,-4.0653,-4.1707,-4.2419,-4.3095,-4.387,-4.3884,-4.3351,-4.2404,-4.1669,-4.0501,-3.8907,-3.8041,-3.7147,-3.638,-3.5818,-3.5315,-3.4677,-3.2788,-3.1198,-2.984,-2.8068,-2.7132,-2.6656,-2.5155,-2.4443,-2.4172,0.0,0.0,0.0,0.0,0.0,0.0,0.0,0.0,0.0,0.0,0.0,-1.9697,-2.0,-2.1778,-2.2926,-2.2902,-2.4021,-2.4417,-2.3598,-2.3834,-2.3662,-2.2829,-2.2578,-2.2431,-2.2323,-2.4858,-2.7606,-3.0453,-3.113,-3.1577,-3.1771,-3.1771,-3.1474,-3.0928,-3.1138,-3.0452,-2.916,-2.8699,-2.7659,-2.6077,-2.3775,0.0,0.0,0.0,0.0,0.0,0.0,0.0,0.0,0.0,0.0,0.0,0.0,0.0,0.0,0.0,0.0,0.0,0.0,0.0,0.0,0.0,0.0,0.0,0.0,0.0,0.0,0.0,0.0,0.0,0.0,0.0,0.0,0.0,0.0,0.0,0.0,0.0,0.0,-4.0122,-4.1017,0.0,0.0,0.0,0.0,-3.9879,-3.9992,-4.09,-4.2924,-4.2817,-4.3534,-4.5378,-4.5236,-4.5218,-4.5396,-4.5409,-4.471,-4.3331,-4.2791,-4.1781,-4.0347,-3.9249,-3.8296,-3.7473,-3.689,-3.6087,-3.5105,-3.4213,-3.3407,-3.2552,-3.1273,-3.0311,-2.9604,-2.8744,-2.7856,-2.7019,0.0,0.0,0.0,0.0,0.0,0.0,0.0,0.0,-1.7076,-1.8136,-1.923,-2.0454,-2.1923,-2.3498,-2.4747,-2.551,-2.6341,-2.6456,-2.5564,-2.5218,-2.4641,-2.3744,-2.3085,-2.3372,-2.4751,-2.7668,-2.9904,-3.1361,-3.2641,-3.3205,-3.3145,-3.3293,-3.3024,-3.2456,-3.2506,-3.1937,-3.0932,-3.0629,-2.9549,-2.7946,-2.6917,-2.5034,0.0,0.0,0.0,0.0,0.0,0.0,0.0,0.0,0.0,0.0,0.0,0.0,0.0,0.0,0.0,0.0,0.0,0.0,0.0,0.0,0.0,0.0,0.0,0.0,0.0,0.0,0.0,0.0,0.0,0.0,0.0,0.0,0.0,0.0,0.0,0.0,0.0,-4.091,-4.2237,0.0,-4.2322,-4.2024,-4.1953,-4.2181,-4.2966,-4.3908,-4.5038,-4.5281,-4.5605,-4.6271,-4.6468,-4.6398,-4.6072,-4.6086,-4.5354,-4.3987,-4.3409,-4.2459,-4.1219,-4.0298,-3.9434,-3.8576,-3.7664,-3.6855,-3.6125,-3.5541,-3.4527,-3.3281,-3.2538,-3.1842,-3.1171,-3.0111,-2.9181,-2.8341,0.0,0.0,0.0,0.0,0.0,0.0,0.0,0.0,-1.7464,-1.8865,-1.9963,-2.1463,-2.3635,-2.5182,-2.6453,-2.7455,-2.8046,-2.7912,-2.684,-2.6309,-2.556,-2.4462,-2.4074,-2.507,-2.7603,-2.9586,-3.1263,-3.26,-3.3698,-3.4167,-3.4089,-3.4244,-3.4034,-3.3523,-3.3584,-3.322,-3.2596,-3.2542,-3.1447,-2.9687,-2.8928,-2.7171,-2.4801,0.0,0.0,0.0,0.0,0.0,0.0,0.0,0.0,0.0,0.0,0.0,0.0,0.0,0.0,0.0,0.0,0.0,0.0,0.0,0.0,0.0,0.0,0.0,0.0,0.0,0.0,0.0,0.0,0.0,0.0,0.0,0.0,0.0,0.0,0.0,-4.1155,-4.2524,-4.4092,-4.4963,-4.4588,-4.4788,-4.4944,-4.4944,-4.5737,-4.6393,-4.6837,-4.7013,-4.7133,-4.7248,-4.739,-4.7167,-4.6404,-4.6404,-4.5623,-4.4115,-4.3623,-4.2927,-4.1931,-4.1005,-4.0239,-3.9592,-3.8396,-3.7607,-3.7095,-3.6493,-3.5509,-3.434,-3.3683,-3.3053,-3.2491,-3.1448,-3.044,-2.9429,0.0,0.0,0.0,0.0,0.0,0.0,0.0,-1.6632,-1.8068,-1.968,-2.1075,-2.2735,-2.4994,-2.6694,-2.7943,-2.8559,-2.9024,-2.8716,-2.74,-2.7184,-2.6501,-2.5113,-2.5758,-2.7577,-3.0623,-3.0553,-3.1704,-3.418,-3.4193,-3.4313,-3.4512,-3.4512,-3.4308,-3.3935,-3.4126,-3.4189,-3.4213,-3.4403,-3.3331,-3.1321,-2.9687,-2.8882,-2.8283,0.0,0.0,0.0,0.0,0.0,0.0,0.0,0.0,0.0,0.0,0.0,0.0,0.0,0.0,0.0,0.0,0.0,0.0,0.0,0.0,0.0,0.0,0.0,0.0,0.0,0.0,0.0,0.0,0.0,0.0,0.0,0.0,0.0,-3.9452,-4.1751,-4.3824,-4.511,-4.6792,-4.7905,-4.8167,-4.8214,-4.8214,-4.8214,-4.8214,-4.8243,-4.8312,-4.805,-4.8076,-4.8438,-4.8229,-4.7544,-4.6376,-4.6376,-4.5504,-4.3818,-4.3534,-4.3076,-4.2435,-4.1373,-4.0719,-4.0445,-3.9034,-3.8291,-3.7941,-3.707,-3.6452,-3.5918,-3.4811,-3.4089,-3.3496,-3.2734,-3.1616,-3.0242,0.0,0.0,0.0,0.0,0.0,0.0,0.0,-1.6407,-1.7948,-1.9425,-2.1024,-2.2972,-2.5441,-2.6891,-2.8036,-2.8896,-2.8957,-2.8547,-2.7639,-2.7253,-2.6813,-2.6337,-2.8448,-2.9877,-3.0461,-3.2115,-3.3225,-3.375,-3.4361,-3.4641,-3.4723,-3.4995,-3.4848,-3.4362,-3.4558,-3.4392,-3.3984,-3.4213,-3.3929,-3.3326,-3.2145,-3.0392,-2.8351,0.0,0.0,0.0,0.0,0.0,0.0,0.0,0.0,0.0,0.0,0.0,0.0,0.0,0.0,0.0,0.0,0.0,0.0,0.0,0.0,0.0,0.0,0.0,0.0,0.0,0.0,0.0,0.0,0.0,0.0,0.0,0.0,-4.0203,-4.0426,-4.2908,-4.5204,-4.6508,-4.7529,-4.8211,-4.8273,-4.8464,-4.8559,-4.8559,-4.8369,-4.8403,-4.8694,-4.8475,-4.8113,-4.7559,-4.7509,-4.6951,-4.5962,-4.5841,-4.5206,-4.4105,-4.3832,-4.3273,-4.2498,-4.1968,-4.1368,-4.068,-3.9963,-3.911,-3.8252,-3.761,-3.6912,-3.6168,-3.5114,-3.4139,-3.3151,-3.2051,-3.0777,-2.9535,0.0,0.0,0.0,0.0,0.0,0.0,0.0,-1.6013,-1.7594,-1.9647,-2.1153,-2.3028,-2.5707,-2.6793,-2.7758,-2.8819,-2.8402,-2.7971,-2.7568,-2.7289,-2.7553,-2.8488,-3.0181,-3.1352,-3.1856,-3.3263,-3.4057,-3.4104,-3.4556,-3.4839,-3.4921,-3.5154,-3.5224,-3.5181,-3.5301,-3.5189,-3.494,-3.4979,-3.4829,-3.4542,-3.3755,-3.211,-2.9936,-2.8698,-2.7731,-2.7005,-2.6721,-2.658,-2.6272,-2.4873,0.0,0.0,0.0,0.0,0.0,0.0,0.0,0.0,0.0,0.0,0.0,0.0,0.0,0.0,0.0,0.0,0.0,0.0,0.0,0.0,0.0,0.0,0.0,0.0,-4.0494,-4.2373,-4.2895,-4.4801,-4.6448,-4.7481,-4.8239,-4.8778,-4.8875,-4.9117,-4.9228,-4.9132,-4.8972,-4.8839,-4.8731,-4.8595,-4.8112,-4.7235,-4.7207,-4.6574,-4.5323,-4.519,-4.4655,-4.3674,-4.3514,-4.3079,-4.2511,-4.2239,-4.1745,0.0,-4.0491,-3.9813,-3.9019,-3.8124,-3.7298,0.0,0.0,0.0,0.0,0.0,-3.0667,-3.0054,0.0,0.0,0.0,0.0,0.0,0.0,0.0,-1.5541,-1.7113,-1.9903,-2.1166,-2.2857,-2.5648,-2.6398,-2.7171,-2.8376,-2.7686,-2.726,-2.746,-2.7557,-2.8654,-3.0898,-3.1431,-3.2404,-3.3919,-3.4204,-3.4526,-3.4839,-3.4839,-3.4921,-3.5086,-3.5154,-3.5494,-3.6072,-3.6126,-3.6246,-3.6405,-3.6206,-3.5771,-3.5239,-3.4724,-3.3668,-3.2172,-2.9761,-2.9007,-2.9109,-2.8253,-2.8144,-2.8277,-2.7283,0.0,0.0,0.0,0.0,0.0,0.0,0.0,0.0,0.0,0.0,0.0,0.0,0.0,0.0,0.0,0.0,0.0,0.0,0.0,0.0,0.0,0.0,0.0,0.0,-4.2576,-4.4633,-4.5915,-4.6776,-4.7474,-4.8007,-4.8745,-4.9291,-4.9537,-4.9829,-4.9892,-4.9634,-4.9571,-4.9227,-4.8545,0.0,0.0,0.0,0.0,-4.6244,-4.4553,-4.4491,-4.3987,-4.2935,-4.2887,-4.2693,-4.2449,-4.219,-4.1881,-4.162,-4.0798,-4.0291,-3.9915,-3.8643,-3.7592,-3.6615,-3.5198,-3.4115,-3.3201,-3.1476,-3.0983,0.0,0.0,0.0,0.0,0.0,0.0,0.0,0.0,-1.528,-1.6805,-1.8582,-2.0197,-2.2144,-2.4777,-2.567,-2.6526,-2.7626,-2.7391,-2.7559,-2.8388,-2.9247,-3.0257,-3.15,-3.3197,-3.412,-3.4123,-3.4951,-3.5292,-3.5044,-3.5044,-3.5044,-3.5127,-3.544,-3.5642,-3.5804,-3.6192,-3.6365,-3.6405,-3.6206,-3.6017,-3.5827,-3.4873,-3.3771,-3.257,-3.189,-3.1485,-3.1271,-3.1332,-3.1199,-3.0862,-3.0073,-2.9199,-2.8195,-2.6922,-2.5343,0.0,0.0,0.0,0.0,0.0,0.0,0.0,0.0,0.0,0.0,0.0,0.0,0.0,0.0,0.0,0.0,0.0,0.0,0.0,-4.1951,-4.3797,-4.5313,-4.6545,-4.7225,-4.7675,-4.7736,-4.8308,-4.8695,-4.8731,-4.8994,-4.9093,-4.9044,-4.8845,-4.8681,-4.8481,-4.8308,0.0,-4.6504,-4.6462,-4.5713,-4.4121,-4.3889,-4.3595,-4.3225,0.0,0.0,-4.2177,-4.1895,-4.1647,-4.1361,-4.0967,-4.0506,-3.993,-3.9292,-3.8029,-3.6297,-3.4305,-3.3035,-3.2218,-3.1424,-3.1034,-3.0879,0.0,0.0,0.0,0.0,0.0,0.0,0.0,-1.4663,-1.5854,-1.7705,-1.9125,-2.0733,-2.2818,-2.3955,-2.4896,-2.581,-2.6567,-2.7488,-2.8633,-2.9873,-3.1176,-3.2613,-3.4212,-3.4952,-3.4667,-3.565,-3.5951,-3.5399,-3.5399,-3.5358,-3.5277,-3.5562,-3.5844,-3.6058,-3.6312,-3.6484,-3.6524,-3.6246,-3.6032,-3.5831,-3.509,-3.4366,-3.3687,-3.2971,-3.265,-3.26,-3.285,-3.2958,-3.2836,-3.2129,-3.1729,-3.1246,-2.9708,-2.8511,-2.7455,0.0,0.0,0.0,0.0,0.0,0.0,0.0,0.0,0.0,0.0,0.0,0.0,0.0,0.0,-3.607,-3.7097,0.0,-4.074,-4.2995,-4.4316,-4.5591,-4.6916,-4.7456,-4.7712,-4.7712,-4.8142,-4.8481,-4.8481,-4.8745,-4.8845,-4.8695,-4.8431,-4.8229,-4.8106,-4.7866,-4.7295,-4.6375,-4.6055,-4.5295,-4.4091,-4.365,-4.3245,-4.2887,-4.2644,-4.2302,-4.1881,-4.1597,-4.1348,-4.1097,-4.0795,-4.0426,-3.9992,-3.8918,-3.7443,-3.5817,-3.4353,-3.344,-3.2838,-3.191,-3.1585,-3.1523,0.0,0.0,0.0,0.0,0.0,0.0,0.0,-1.4105,-1.4951,-1.6883,-1.803,-1.9284,-2.0815,-2.2067,-2.3108,-2.3978,-2.571,-2.7256,-2.8482,-3.0072,-3.1725,-3.3385,-3.4583,-3.5125,-3.4933,-3.5837,-3.6099,-3.5587,-3.5587,-3.5521,-3.548,-3.5683,-3.5978,-3.6325,-3.6365,-3.647,-3.6549,-3.6192,-3.5898,-3.5602,-3.5236,-3.4937,-3.4574,-3.3608,-3.3383,-3.3594,-3.3697,-3.3848,-3.396,-3.3365,-3.3553,-3.378,-3.2146,-3.1521,-3.1045,-2.9353,-2.8598,0.0,0.0,0.0,0.0,0.0,0.0,0.0,0.0,-3.4526,-3.5491,-3.5562,-3.7143,-3.8655,-3.9224,-4.0287,-4.1692,-4.3674,-4.4638,-4.5678,-4.7173,-4.761,-4.7764,-4.7764,-4.8156,-4.8395,-4.8344,-4.8545,-4.8545,-4.8294,-4.8078,-4.7838,-4.761,-4.7405,-4.697,-4.6252,-4.5755,-4.4999,-4.3942,-4.3485,-4.2935,-4.24,-4.2302,-4.2056,-4.1597,-4.1311,-4.106,-4.0782,-4.0491,-4.0134,-3.9673,-3.8258,-3.6928,-3.5654,-3.4891,-3.4426,-3.405,-3.2689,-3.2269,-3.2276,0.0,0.0,0.0,0.0,0.0,0.0,0.0,0.0,-1.4777,-1.5685,-1.7036,-1.8417,-1.9729,-2.0707,-2.1755,-2.3017,-2.5268,-2.7044,-2.7994,-3.029,-3.2014,-3.2949,-3.403,-3.4517,-3.4301,-3.479,-3.5048,-3.5159,-3.5159,-3.5353,-3.5669,-3.5938,-3.6072,-3.6126,-3.6325,-3.6272,-3.6071,-3.5844,-3.5642,-3.5399,-3.5195,-3.4766,-3.4259,-3.4126,-3.4312,-3.4574,-3.4259,-3.3806,-3.3349,-3.3108,-3.3229,-3.3528,-3.3766,-3.3353,-3.2674,-3.2143,-3.09,-2.9895,-3.0903,-3.2613,-3.4204,-3.4752,-3.5494,-3.6184,0.0,-3.795,-3.9006,-3.8256,-3.9967,-4.1431,-4.1,-4.1708,-4.2811,-4.4352,-4.5061,-4.5979,-4.7429,-4.7866,-4.8069,-4.8069,-4.812,-4.8069,-4.7815,-4.7815,-4.7712,-4.7442,-4.7405,-4.7405,-4.7353,-4.7301,-4.6777,-4.5644,-4.5534,-4.4694,-4.3044,-4.2976,-4.2679,-4.2128,-4.1647,-4.1411,-4.1311,-4.0808,-4.0555,-4.0504,-3.9993,-3.931,-3.8566,-3.8137,-3.7429,-3.6526,-3.5865,-3.5452,-3.5088,-3.3794,-3.2933,-3.2424,0.0,0.0,0.0,0.0,0.0,0.0,0.0,0.0,0.0,-1.4966,-1.5992,-1.7013,-1.8031,-1.9174,-2.0401,-2.1666,-2.3703,-2.5563,-2.7087,-2.9287,-3.1207,-3.27,-3.3644,-3.4214,-3.4369,-3.4916,-3.5069,-3.4802,-3.4802,-3.495,-3.5154,-3.5473,-3.5744,-3.6086,-3.6018,-3.5924,-3.579,-3.548,-3.5035,-3.4539,-3.4417,-3.4019,-3.3529,-3.3634,-3.3794,-3.3847,-3.3368,-3.3111,0.0,-3.2526,-3.2752,-3.3219,-3.3165,-3.3196,-3.3123,-3.2609,-3.2022,-3.1834,-3.3203,-3.5117,-3.6937,-3.7738,-3.8737,-3.968,-4.0388,-4.0973,-4.1232,-4.0737,-4.134,-4.1852,-4.1531,-4.1637,-4.2392,-4.4158,-4.4902,-4.5779,-4.7276,-4.7815,-4.812,-4.812,-4.7967,-4.7815,-4.7712,-4.7712,-4.761,-4.7301,-4.7146,-4.6977,-4.6807,-4.6651,-4.6225,-4.5567,-4.4864,-4.4155,-4.3406,-4.2771,-4.219,-4.1647,-4.1411,-4.1161,-4.0808,-4.044,-4.0083,-3.9775,-3.9362,-3.8788,-3.8145,-3.7892,-3.7131,-3.6145,-3.5719,-3.5412,-3.5057,-3.4227,-3.3555,-3.2997,0.0,0.0,0.0,0.0,0.0,0.0,0.0,0.0,0.0,0.0,-1.5282,-1.6195,-1.7142,-1.8303,-1.9429,-2.0497,-2.2307,-2.4152,-2.5939,-2.8092,-3.0024,-3.1636,-3.273,-3.3451,-3.374,-3.4395,-3.4584,-3.4245,-3.4245,-3.4358,-3.4558,-3.4767,-3.5077,-3.55,-3.5235,-3.5102,-3.5022,-3.466,-3.4151,-3.358,-3.358,-3.3252,-3.2763,-3.2906,-3.2771,-3.2465,-3.2226,-3.2222,-3.2163,-3.1353,-3.1683,-3.2334,-3.2069,-3.2414,-3.289,-3.2721,-3.2955,-3.3555,-3.4761,-3.6518,-3.8372,-3.9753,-4.091,-4.1981,-4.2908,-4.2907,-4.265,-4.2302,-4.2071,-4.1851,-4.1616,-4.1511,-4.2029,-4.3969,-4.4751,-4.5628,-4.7173,-4.7764,-4.7911,-4.778,-4.7513,-4.7239,-4.7008,-4.7299,-4.7353,-4.6977,-4.6769,-4.6508,-4.6218,-4.6007,-4.5688,-4.5263,-4.4253,-4.3539,-4.3212,-4.2285,-4.1547,-4.106,-4.101,-4.0757,-4.0402,-4.0032,-3.9569,-3.905,-3.8788,-3.8303,-3.772,-3.7518,-3.6766,-3.5653,-3.5467,-3.5168,-3.4858,-3.4625,-3.4214,-3.3801,0.0,0.0,0.0,0.0,0.0,0.0,0.0,0.0,0.0,0.0,0.0,0.0,0.0,-1.8439,-1.9086,-1.9773,-2.1544,-2.3222,-2.4581,-2.6906,-2.854,-2.9186,-3.0914,-3.1868,-3.1896,-3.249,-3.2977,-3.3334,-3.3334,-3.355,-3.3935,-3.3935,-3.3948,-3.3962,-3.3808,-3.3614,-3.3354,-3.3158,-3.2922,-3.2764,-3.2764,-3.2489,-3.2118,-3.2118,-3.1444,-3.0557,-3.1125,-3.1211,-3.0865,-2.9522,-2.9751,-3.0599,-3.0788,-3.1261,-3.1944,-3.2991,-3.4027,-3.4912,-3.5208,-3.659,-3.8378,-4.0303,-4.1444,-4.2299,-4.3186,-4.3399,-4.3137,-4.238,-4.216,-4.199,-4.1415,-4.1511,-4.2279,-4.402,-4.4751,-4.5729,-4.7429,-4.7712,-4.749,-4.6913,-4.6606,-4.6132,0.0,-4.624,-4.6665,-4.606,-4.6007,-4.5914,-4.5649,-4.5595,-4.5236,-4.4375,-4.3742,-4.289,-4.1763,-4.1231,-4.0795,-4.0504,-4.0236,-4.0134,-4.007,-3.9569,-3.8998,-3.8409,-3.8421,-3.7933,-3.7131,-3.7131,-3.6429,-3.5423,-3.5423,-3.5054,-3.4674,-3.5166,-3.5087,-3.465,0.0,0.0,0.0,0.0,0.0,0.0,0.0,0.0,0.0,0.0,0.0,0.0,0.0,0.0,0.0,0.0,-2.0407,-2.18,-2.3169,-2.5149,-2.6955,-2.8439,-2.9458,-3.0383,-3.1184,-3.1405,-3.1544,-3.1568,-3.1965,-3.24,-3.2779,-3.3173,-3.3566,-3.3869,-3.3586,-3.3378,-3.3301,-3.2962,-3.2516,-3.2084,-3.2084,-3.1822,-3.1335,-3.0941,-3.0401,-2.9764,0.0,-2.8892,-2.8841,-2.8277,-2.8383,-2.8863,-2.9249,-2.9974,-3.0937,-3.2579,-3.3444,-3.4297,-3.609,-3.7383,-3.8804,-4.1149,-4.2233,-4.285,-4.3559,-4.3572,-4.3192,-4.2356,-4.1758,-4.1201,-4.0778,-4.0624,-4.1201,-4.3115,-4.4091,-4.5187,-4.6916,-4.6956,-4.6777,-4.6555,-4.5917,0.0,0.0,0.0,0.0,-4.5429,-4.5594,-4.5542,-4.5059,-4.4992,-4.4711,-4.4054,-4.3458,-4.277,-4.2058,-4.144,-4.0863,-4.0236,-3.9775,-3.9465,-3.9258,-3.8893,-3.8566,-3.8409,-3.8198,-3.7892,-3.7423,-3.7185,-3.6526,-3.5664,-3.5687,-3.5476,-3.5176,-3.5521,-3.5683,-3.5654,0.0,0.0,0.0,0.0,0.0,0.0,0.0,0.0,0.0,0.0,0.0,0.0,0.0,0.0,0.0,0.0,0.0,-2.0593,-2.2147,-2.3519,-2.5025,-2.6646,-2.7525,-2.8322,-2.9105,-2.9577,-2.9745,-2.964,-3.0494,-3.1013,-3.1254,-3.1865,-3.2318,-3.2647,-3.2212,-3.2062,-3.2011,-3.166,-3.1106,-3.0509,-3.0717,-3.0383,-2.9777,-2.9559,-2.9147,0.0,-2.7698,-2.7213,-2.6967,-2.6967,-2.742,-2.8025,-2.8477,-2.9748,-3.1241,-3.1955,-3.3361,-3.4997,-3.6737,-3.8075,-3.9505,-4.169,-4.2448,-4.2866,-4.3441,-4.3088,-4.2476,-4.1953,-4.0863,-3.9959,-3.9825,-3.9748,-4.0353,-4.2415,-4.3634,-4.4932,-4.6657,-4.6713,-4.6403,-4.6013,-4.544,-4.4851,0.0,0.0,0.0,-4.4664,-4.505,-4.5005,-4.4476,-4.4422,-4.4203,-4.3764,-4.316,-4.2633,-4.221,-4.1406,-4.0537,-3.9608,-3.9206,-3.8841,-3.8526,-3.8356,-3.825,-3.825,-3.808,-3.7838,-3.7542,-3.7251,-3.6634,-3.5982,-3.584,-3.5574,-3.534,-3.5674,-3.589,-3.5936,0.0,0.0,0.0,0.0,0.0,0.0,0.0,0.0,0.0,0.0,0.0,0.0,0.0,0.0,0.0,0.0,0.0,0.0,-2.1356,-2.2098,-2.2923,-2.3974,-2.5168,-2.5805,-2.5846,-2.7094,-2.7693,-2.7569,-2.8884,-2.9457,-2.9339,-2.993,-3.0228,-3.0194,-2.9789,-2.9603,-2.9603,-2.9307,-2.8747,-2.814,-2.8688,-2.8325,-2.7599,-2.8083,-2.7706,-2.6898,-2.6898,-2.6209,-2.5347,-2.5758,-2.6898,-2.8196,-2.8478,-3.056,-3.2685,-3.15,-3.3822,-3.6815,-3.7172,-3.863,-4.0413,-4.1822,-4.2147,-4.2265,-4.2762,-4.2018,-4.1209,-4.1182,-3.968,-3.8402,-3.8577,-3.8878,-3.9777,-4.179,-4.3275,-4.484,-4.6564,-4.6832,-4.6408,-4.523,-4.5078,-4.4597,-4.3483,-4.3636,0.0,-4.3819,0.0,-4.4422,-4.3899,-4.3899,-4.3708,-4.3394,-4.2912,-4.2469,-4.2213,-4.1065,-3.987,-3.8736,-3.8473,-3.825,-3.7986,-3.7986,-3.7986,-3.7986,-3.7986,-3.7838,-3.7596,-3.7251,-3.6808,-3.6266,-3.5961,-3.5557,-3.5194,-3.5681,-3.5708,-3.5569,0.0,0.0,0.0,0.0,0.0,0.0,0.0,0.0,0.0,0.0,0.0,0.0,0.0,0.0,0.0,0.0,0.0,0.0,-1.9698,-2.1037,-2.2142,-2.2869,-2.396,-2.4774,-2.5222,-2.5649,-2.587,-2.5842,-2.6622,-2.7007,-2.6974,-2.7478,-2.7701,-2.7701,-2.7359,-2.72,-2.7195,-2.7164,-2.7024,-2.69,-2.7212,-2.7078,-2.6618,-2.6582,-2.6122,-2.5599,-2.554,-2.5254,-2.4992,-2.5512,-2.6954,-2.8838,-3.061,-3.1996,-3.3193,-3.4225,-3.529,-3.6472,-3.797,-3.909,-4.0077,-4.1222,-4.1401,-4.1282,-4.1425,-4.0729,-3.9984,-3.9767,-3.8523,-3.7505,-3.7586,-3.7769,-3.8517,-4.0314,-4.2132,-4.3953,-4.5693,-4.5921,-4.5733,-4.5151,-4.4714,-4.406,-4.3189,-4.3507,0.0,0.0,-4.3676,-4.3929,-4.3517,-4.3517,-4.3406,-4.3141,-4.296,-4.2683,-4.2213,-4.0666,-3.9316,-3.8198,-3.7945,-3.7756,-3.7691,-3.7691,-3.7785,-3.7986,-3.7986,-3.7986,-3.788,-3.7346,-3.6916,-3.6592,-3.6277,-3.5925,-3.5681,-3.6013,-3.6131,-3.6051,0.0,0.0,0.0,0.0,0.0,0.0,0.0,0.0,0.0,0.0,0.0,0.0,0.0,0.0,0.0,0.0,0.0,0.0,0.0,-2.0031,-2.0914,-2.176,-2.2321,-2.2898,-2.3497,-2.3902,-2.4079,-2.4012,-2.4929,-2.5368,-2.5325,-2.5796,-2.5964,-2.5905,-2.5654,-2.5505,-2.5472,-2.5349,-2.5089,0.0,0.0,-2.5078,-2.4521,-2.4706,-2.4655,-2.4472,-2.4366,-2.4495,-2.4883,-2.6209,-2.8095,-3.0283,-3.2166,-3.3617,-3.4736,-3.5427,-3.6198,-3.7083,-3.8124,-3.8948,-3.9687,-4.0456,-4.0577,-4.0324,-3.9816,-3.9099,-3.826,-3.74,-3.6263,-3.5436,-3.5558,-3.6146,-3.7281,-3.9246,-4.1297,-4.3269,-4.4971,-4.5427,-4.5442,-4.4965,-4.4611,-4.415,-4.3415,-4.3538,-4.3429,0.0,-4.3407,-4.353,-4.324,-4.324,-4.3129,-4.2974,-4.2974,-4.2655,-4.1993,-4.0523,-3.9338,-3.8322,-3.7851,-3.7596,-3.7596,-3.7596,-3.7744,-3.7986,0.0,-3.7986,-3.7986,-3.7518,-3.7143,-3.6862,-3.6592,-3.6266,-3.6059,-3.6223,-3.632,-3.6243,0.0,0.0,0.0,0.0,0.0,0.0,0.0,0.0,0.0,0.0,0.0,0.0,0.0,0.0,0.0,0.0,0.0,0.0,0.0,0.0,-1.9655,-2.0642,-2.0676,-2.0936,-2.1479,-2.2204,-2.2531,-2.2407,-2.358,-2.4103,-2.3984,-2.4286,-2.4353,-2.4228,-2.4088,-2.3948,-2.3821,-2.3623,-2.3087,-2.2439,-2.321,-2.2911,-2.2123,0.0,-2.3232,-2.3398,-2.3374,-2.3835,-2.4804,-2.714,-2.9484,-3.1723,-3.3322,-3.5146,-3.6548,-3.5846,-3.6716,-3.7945,-3.7992,-3.8534,-3.9236,-3.9751,-3.9762,-3.9414,-3.8345,-3.7458,-3.6418,-3.4873,-3.369,-3.3023,-3.3343,-3.4464,-3.6049,-3.814,-4.0357,-4.2417,-4.4067,-4.4877,-4.5156,-4.4678,-4.465,-4.4418,-4.3828,-4.3554,-4.3394,-4.3338,-4.3338,-4.324,-4.303,-4.2974,-4.2974,-4.2974,-4.2974,-4.2543,-4.1662,-4.0557,-3.9582,-3.8713,-3.7941,-3.7542,-3.7596,-3.7596,-3.7744,-3.7986,0.0,0.0,-3.7986,-3.7691,-3.7423,-3.7078,-3.6808,-3.6538,-3.632,-3.632,-3.622,-3.6105,0.0,0.0,0.0,0.0,0.0,0.0,0.0,0.0,0.0,0.0,-1.788,-1.8372,0.0,0.0,0.0,0.0,0.0,0.0,0.0,0.0,0.0,-1.9488,-2.0259,-2.0744,-2.084,-2.1584,-2.1935,-2.1935,-2.2276,-2.2349,-2.2214,-2.1684,-2.1373,-2.1242,-2.1048,-2.0951,-2.0968,-2.1407,-2.1422,-2.1232,-2.1782,-2.1705,-2.1366,-2.1922,0.0,0.0,-2.2516,-2.3311,-2.445,-2.6853,-2.9172,-3.1406,-3.379,-3.5684,-3.6988,-3.6852,-3.7224,-3.768,-3.7871,-3.8364,-3.8981,-3.9464,-3.9169,-3.8514,-3.7717,-3.6534,-3.5219,-3.3892,-3.281,-3.2274,-3.2834,-3.364,-3.4806,-3.6476,-3.8484,-4.0373,-4.2073,-4.3196,-4.3913,-4.4045,-4.4436,-4.4357,-4.353,-4.3441,0.0,0.0,0.0,-4.303,-4.2974,-4.2974,-4.2974,-4.2974,-4.2974,-4.25,-4.1355,-4.0526,-3.9552,-3.8478,-3.7606,-3.7304,-3.7596,-3.7596,-3.7744,-3.7986,0.0,0.0,-3.7986,-3.7691,-3.7423,-3.7078,-3.6808,-3.6538,-3.632,-3.632,-3.6002,-3.5581,0.0,0.0,0.0,0.0,0.0,0.0,0.0,-1.5955,-1.6741,-1.717,-1.7879,-1.838,-1.8498,-1.8392,-1.8358,0.0,0.0,0.0,0.0,0.0,0.0,0.0,-1.9695,-2.0194,-2.079,-2.1139,-2.1489,-2.1793,0.0,-2.1736,-2.1416,-2.0919,-2.0457,-2.0035,-1.9898,-1.9934,-2.0112,-2.0252,-2.0374,-2.0432,-2.055,-2.0567,-2.0535,0.0,0.0,0.0,-2.1833,-2.2573,-2.3534,-2.5367,-2.7425,-2.9777,-3.2933,-3.5228,-3.6624,-3.624,-3.6508,-3.6998,-3.7222,-3.771,-3.8295,-3.9031,-3.8794,-3.8111,-3.6831,-3.5546,-3.4031,-3.2039,-3.1226,-3.0927,-3.1102,-3.2358,-3.3724,-3.4742,-3.7006,-3.9131,-4.0389,-4.1839,-4.2957,-4.3368,-4.3775,-4.3903,-4.3696,-4.3517,-4.3406,-4.3432,0.0,-4.3321,-4.3042,-4.2806,-4.275,-4.275,-4.2469,-4.2063,-4.1717,-4.0451,-3.9642,-3.92,-3.8102,-3.7572,-3.7596,-3.7596,-3.7649,-3.7785,-3.7933,0.0,-3.8198,-3.8051,-3.7838,-3.7507,-3.7078,-3.6754,-3.6483,-3.632,-3.5956,-3.5432,0.0,0.0,0.0,0.0,0.0,0.0,0.0,-1.6091,-1.6931,-1.7161,-1.7748,-1.8189,-1.8366,-1.8333,-1.8333,0.0,0.0,0.0,0.0,0.0,0.0,0.0,0.0,0.0,-2.045,0.0,0.0,-2.1553,-2.1762,0.0,0.0,0.0,0.0,0.0,-1.9381,-1.9548,-1.99,-1.9736,-1.9795,0.0,0.0,-1.9829,0.0,0.0,0.0,0.0,0.0,-2.1867,-2.2588,-2.4063,-2.578,-2.7835,-3.0996,-3.3584,-3.5301,-3.4851,-3.5288,-3.5984,-3.6413,-3.7019,-3.7697,-3.8537,-3.8465,-3.7758,-3.594,-3.462,-3.3001,-3.047,-2.9806,-2.9674,-2.961,-3.1065,-3.2531,-3.3219,-3.5578,-3.7673,-3.8815,-4.0555,-4.2014,-4.2639,-4.3165,-4.3585,-4.3776,-4.3696,0.0,-4.3899,0.0,0.0,-4.3141,-4.2681,-4.2525,-4.2525,-4.2004,-4.1789,-4.1984,-4.0461,-3.9751,-3.9892,-3.8557,-3.7785,-3.7596,-3.7596,-3.7596,-3.7596,-3.7945,0.0,0.0,-3.8409,-3.825,-3.7933,-3.74,-3.7024,-3.6646,-3.6483,-3.5941,-3.526,0.0,0.0,0.0,0.0,0.0,0.0,0.0,-1.5892,-1.6632,-1.737,-1.7727,-1.7949,-1.8042,-1.8135,-1.8208,0.0,0.0,0.0,0.0,0.0,0.0,0.0,0.0,0.0,0.0,0.0,0.0,-2.0795,-2.1601,0.0,0.0,0.0,0.0,0.0,0.0,-1.9084,-1.9633,-1.9743,0.0,0.0,0.0,0.0,0.0,0.0,0.0,0.0,0.0,-2.1319,-2.1834,-2.3963,-2.5261,-2.6244,-2.7644,-2.9993,-3.2346,-3.293,-3.367,-3.4566,-3.5684,-3.6724,-3.7593,-3.7985,-3.7814,-3.7106,-3.513,-3.3781,-3.2293,-3.0175,-2.93,-2.9062,-2.9509,-3.0219,-3.1125,-3.2308,-3.3772,-3.5369,-3.7245,-3.9082,-4.0668,-4.1694,-4.3003,-4.3764,-4.3462,-4.3903,-4.4148,0.0,0.0,0.0,-4.3394,-4.2793,-4.2525,-4.2525,-4.2199,-4.1915,-4.1663,-4.0548,-3.9861,-3.964,-3.8257,-3.7596,-3.7596,-3.7596,-3.7596,-3.7649,0.0,0.0,0.0,-3.8409,-3.825,-3.7986,-3.7691,-3.7197,-3.67,-3.6646,-3.5883,-3.4854,0.0,0.0,0.0,0.0,0.0,0.0,-1.5554,-1.6299,-1.6958,-1.7284,-1.7584,-1.7801,-1.7828,-1.7929,-1.8063,-1.8183,0.0,0.0,0.0,0.0,0.0,0.0,0.0,0.0,0.0,0.0,-1.9978,-2.0689,-2.1052,0.0,0.0,0.0,0.0,0.0,0.0,-1.8758,-1.9606,-1.9439,0.0,0.0,0.0,0.0,0.0,0.0,0.0,0.0,0.0,0.0,-2.1821,-2.2582,-2.3712,-2.488,-2.5381,-2.6909,-2.8903,-3.1062,-3.2816,-3.4313,-3.5549,-3.6416,-3.7137,-3.7824,-3.7365,-3.6426,-3.5087,-3.3648,-3.2057,-3.0253,-2.9289,-2.8825,-2.8935,-2.9939,-3.0846,-3.1144,-3.3113,-3.5102,-3.6368,-3.8177,-3.9853,-4.1058,-4.236,-4.3198,0.0,0.0,-4.4313,0.0,0.0,0.0,-4.3394,-4.2694,-4.2199,-4.1948,-4.1688,-4.1573,-4.1606,-4.0226,-3.953,-3.9561,-3.8017,-3.7197,-3.7036,-3.7209,-3.7304,-3.7358,0.0,0.0,0.0,-3.8631,-3.8579,-3.8421,-3.785,-3.7435,-3.7209,-3.6808,-3.6008,-3.5034,0.0,0.0,0.0,0.0,0.0,-1.5807,-1.5774,-1.6504,-1.7086,-1.7115,-1.7378,-1.7577,-1.761,-1.772,-1.7848,-1.7989,-1.7975,0.0,0.0,0.0,0.0,0.0,0.0,0.0,0.0,0.0,-1.9552,-2.0398,-2.0785,-2.074,0.0,0.0,-1.9627,-1.8848,0.0,0.0,0.0,0.0,0.0,0.0,0.0,0.0,0.0,0.0,0.0,0.0,0.0,0.0,0.0,0.0,0.0,-2.4025,-2.4235,-2.5273,-2.6935,-2.9635,-3.1735,-3.3499,-3.5027,-3.5878,-3.6506,-3.7116,-3.6503,-3.5489,-3.4472,-3.2883,-3.1291,-3.0073,-2.91,-2.8464,-2.8486,-2.9556,-3.0411,-3.0391,-3.2612,-3.4656,-3.563,-3.7501,-3.9171,-4.0247,-4.1521,-4.2539,0.0,-4.3914,0.0,0.0,0.0,0.0,0.0,-4.2356,-4.1802,-4.1492,-4.1172,-4.1115,-4.1206,-3.9932,-3.9284,-3.9328,-3.7996,-3.7176,-3.6808,-3.7143,-3.7304,-3.74,0.0,0.0,0.0,-3.8841,-3.8788,-3.8736,-3.801,-3.7649,-3.753,-3.6871,-3.6027,-3.5155,0.0,0.0,0.0,0.0,0.0,0.0,-1.5693,-1.6267,-1.674,-1.6876,-1.7073,-1.7253,-1.7384,-1.7461,-1.7496,-1.7516,-1.7747,0.0,0.0,0.0,0.0,0.0,0.0,0.0,0.0,0.0,-1.97,-1.9714,-2.0971,-2.1264,-2.0699,-2.034,-2.0193,-2.0151,0.0,0.0,0.0,0.0,0.0,0.0,0.0,0.0,0.0,0.0,0.0,0.0,0.0,0.0,0.0,0.0,0.0,0.0,0.0,-2.5522,-2.7042,-2.8811,-3.0171,-3.161,-3.373,-3.5064,-3.5773,-3.5657,-3.5052,-3.4179,-3.3,-3.1241,-2.9755,-2.9445,-2.8494,-2.7885,-2.8414,-2.8955,-2.9555,-3.0269,-3.1963,-3.3679,-3.5009,-3.7069,-3.8588,-3.9145,-4.0696,-4.1931,-4.2526,-4.3854,0.0,0.0,0.0,0.0,0.0,-4.1948,-4.1504,-4.1184,-4.0896,-4.0537,-4.0223,-3.9648,-3.9188,-3.8715,-3.8142,-3.7625,-3.7131,-3.7423,-3.7744,0.0,0.0,0.0,0.0,-3.8945,-3.8788,-3.8736,-3.8198,-3.7838,-3.7483,-3.6697,-3.5893,-3.5097,0.0,0.0,0.0,0.0,0.0,0.0,0.0,-1.6476,-1.6718,-1.6761,-1.7023,-1.7178,-1.7128,-1.7308,-1.7378,-1.7303,-1.7509,0.0,0.0,0.0,0.0,0.0,0.0,0.0,0.0,-1.8634,-1.9288,-1.97,-2.0469,-2.0788,-2.0689,-2.068,-2.0509,-2.0193,-1.9998,-2.0325,0.0,0.0,0.0,0.0,0.0,0.0,0.0,0.0,0.0,0.0,0.0,0.0,0.0,0.0,0.0,0.0,0.0,0.0,0.0,-2.7866,-2.9532,-3.0982,-3.2418,-3.3193,-3.3559,-3.3312,-3.2702,-3.178,-3.0637,-2.9568,-2.8821,-2.868,-2.8135,-2.7924,-2.8588,-2.9121,-2.9939,-3.123,-3.2525,-3.4085,-3.5961,-3.7159,-3.8199,-3.9102,-4.0532,-4.1955,0.0,0.0,0.0,0.0,0.0,0.0,0.0,-4.1948,-4.139,-4.0896,-4.0537,-4.0293,-4.0223,-3.9487,-3.8859,-3.8426,-3.7901,-3.7332,-3.6862,-3.756,0.0,0.0,0.0,0.0,0.0,-3.8841,-3.8684,-3.8461,-3.8145,-3.7838,-3.7483,-3.6697,-3.5893,-3.5085,0.0,0.0,0.0,0.0,0.0,0.0,0.0,-1.6513,-1.6611,-1.662,-1.6812,-1.6947,-1.696,-1.712,-1.7183,-1.7094,-1.7199,0.0,0.0,0.0,0.0,0.0,0.0,0.0,-1.7973,-1.8698,-1.9358,-1.9971,-2.0549,-2.0867,-2.0961,-2.0868,-2.0826,-2.0809,-2.0617,-2.0877,0.0,0.0,0.0,0.0,0.0,0.0,-2.0195,0.0,0.0,0.0,0.0,0.0,0.0,0.0,0.0,0.0,0.0,0.0,0.0,0.0,-2.792,-2.9302,-3.0916,-3.1489,-3.1587,-3.1377,-3.071,-2.9934,-2.9139,-2.8288,-2.7729,-2.7937,-2.793,-2.8019,-2.8517,-2.9398,-3.0315,-3.1166,-3.2549,-3.395,-3.5171,-3.6459,-3.769,-3.8904,0.0,0.0,0.0,0.0,0.0,0.0,0.0,0.0,0.0,-4.1663,-4.1033,-4.0537,-4.0188,-4.0013,-3.9873,-3.9384,-3.8827,-3.8257,-3.8055,-3.7641,-3.7036,-3.7826,0.0,0.0,0.0,0.0,0.0,-3.8841,-3.8566,-3.8198,-3.7933,-3.7571,-3.7027,-3.6233,-3.5485,-3.4806,0.0,0.0,0.0,0.0,0.0,0.0,0.0,-1.6392,-1.6414,-1.6479,-1.65,-1.6586,-1.6812,-1.6854,-1.6854,-1.6854,0.0,0.0,0.0,0.0,0.0,0.0,0.0,0.0,-1.8326,-1.9092,-1.9763,-2.0305,-2.1029,-2.1375,-2.1361,-2.0947,-2.1129,-2.1756,-2.1352,-2.1434,-2.1806,-2.0908,-2.0514,-2.0441,-2.0193,-2.0298,0.0,0.0,0.0,0.0,0.0,0.0,0.0,0.0,0.0,0.0,0.0,0.0,0.0,0.0,0.0,0.0,0.0,-2.9834,-2.9872,-2.9617,-2.9037,-2.8474,-2.8223,-2.7213,0.0,-2.7275,-2.7775,-2.8153,-2.8293,-2.9674,-3.0704,-3.0502,-3.2169,-3.3452,-3.33,-3.5241,-3.7248,0.0,-4.0011,0.0,0.0,0.0,0.0,0.0,0.0,0.0,0.0,-4.1218,-4.0571,-4.0223,-3.9966,-3.9626,-3.9308,-3.9308,-3.8908,-3.8177,-3.8538,-3.8343,-3.7649,-3.8157,0.0,0.0,0.0,0.0,0.0,-3.8893,-3.8461,-3.7933,-3.7691,-3.7062,-3.628,-3.552,-3.4893,-3.4342,0.0,0.0,0.0,0.0,0.0,0.0,0.0,0.0,0.0,0.0,-1.6362,-1.6405,-1.6362,-1.6448,-1.647,0.0,0.0,0.0,0.0,0.0,0.0,0.0,0.0,0.0,-1.7623,-1.876,-1.9413,-1.956,-2.0588,-2.1082,-2.1106,-2.1178,-2.1335,-2.1506,-2.1702,-2.1351,-2.0639,-2.0862,-2.0565,-2.0021,-2.0769,-2.0997,0.0,0.0,0.0,0.0,-2.1816,-2.2094,0.0,0.0,0.0,0.0,0.0,0.0,0.0,0.0,-2.4541,-2.4631,-2.5918,0.0,-2.7953,-2.7361,-2.7054,-2.6785,0.0,-2.578,-2.5756,-2.6517,-2.7444,-2.8179,-2.8459,-2.9551,-3.0779,-3.189,-3.2853,-3.3768,-3.4723,-3.5905,0.0,-3.9199,-3.9904,-4.0772,0.0,0.0,0.0,0.0,0.0,0.0,0.0,-4.1332,-4.0815,-4.0223,-3.9966,-3.9626,-3.9308,-3.9308,-3.8908,-3.8177,-3.8538,-3.8441,-3.7933,-3.8473,0.0,0.0,0.0,0.0,-3.8893,-3.8409,-3.7998,-3.7637,-3.7358,-3.6784,-3.6069,-3.5624,-3.5046,-3.4381,0.0,0.0,0.0,0.0,0.0,0.0,0.0,0.0,0.0,0.0,0.0,-1.6219,-1.62,-1.6253,0.0,0.0,0.0,0.0,0.0,0.0,0.0,0.0,0.0,-1.7377,-1.7715,-1.8702,-1.933,-1.9631,-2.0558,-2.0997,-2.0997,-2.1155,-2.1277,-2.141,-2.1456,-2.1004,-2.0221,-2.0476,-2.0368,-2.0059,-2.0776,0.0,0.0,0.0,0.0,0.0,-2.1732,-2.1974,0.0,-2.28,-2.2818,-2.2665,0.0,0.0,0.0,0.0,-2.3374,-2.3405,-2.4165,-2.5357,-2.6342,-2.6079,-2.6043,-2.5887,-2.5407,-2.5312,-2.5431,-2.5935,-2.7138,-2.8144,-2.8213,-2.9356,-3.0583,-3.1508,-3.2444,-3.372,-3.5716,0.0,-3.6719,-3.878,-3.9423,0.0,0.0,0.0,0.0,0.0,0.0,0.0,0.0,-4.123,-4.0781,-4.0409,-4.013,-3.9849,-3.9555,-3.9555,-3.9198,-3.8627,-3.8918,-3.8759,-3.8198,-3.8788,0.0,0.0,0.0,0.0,-3.8409,-3.8145,-3.7679,-3.7209,-3.7131,-3.6472,-3.5637,-3.5594,-3.5008,-3.4278,0.0,0.0,0.0,0.0,0.0,0.0,0.0,0.0,0.0,0.0,0.0,0.0,0.0,0.0,0.0,0.0,0.0,0.0,0.0,0.0,0.0,0.0,-1.6981,-1.7337,-1.8052,-1.8736,-1.9384,-1.9967,-2.0631,-2.0947,-2.0947,-2.0972,-2.1144,-2.1396,-2.1009,-2.0642,-2.0289,-2.018,-2.0202,-2.0345,-2.0694,0.0,0.0,0.0,0.0,0.0,0.0,0.0,0.0,-2.2341,-2.2328,-2.2135,-2.2135,0.0,0.0,0.0,0.0,0.0,-2.3307,-2.4213,-2.5086,-2.5472,-2.5571,-2.5571,-2.5418,-2.5382,-2.5442,-2.5715,-2.7004,-2.8069,-2.8002,-2.9332,-3.053,-3.0919,-3.2183,-3.4007,-3.6599,-3.6078,-3.6217,-3.8413,0.0,0.0,0.0,0.0,0.0,0.0,0.0,0.0,0.0,-4.1103,-4.0838,-4.0792,-4.0454,-4.0175,-3.9966,-3.9861,-3.9601,-3.9229,-3.9378,-3.9153,-3.8566,-3.8998,-3.9102,0.0,0.0,0.0,-3.7986,-3.788,-3.7453,-3.6754,-3.7024,-3.635,-3.5357,-3.5592,-3.5034,-3.4211,0.0,0.0,0.0,0.0,0.0,0.0,0.0,0.0,0.0,0.0,0.0,0.0,0.0,0.0,0.0,0.0,0.0,0.0,0.0,0.0,0.0,-1.6565,-1.6842,-1.7282,-1.7917,-1.8588,-1.9222,-1.9823,-2.0448,-2.0749,-2.0749,-2.085,-2.1097,-2.1372,-2.0799,-2.0648,-2.078,-2.0757,-2.0757,-2.0835,-2.128,0.0,0.0,0.0,0.0,0.0,0.0,0.0,0.0,-2.1994,-2.1906,-2.1761,-2.1761,0.0,0.0,0.0,0.0,0.0,-2.3107,-2.3829,-2.4559,-2.518,-2.5453,-2.5653,-2.5793,-2.5688,-2.5739,-2.6381,-2.7384,-2.8262,-2.8811,-3.0044,-3.1352,-3.2541,-3.4199,-3.6062,0.0,0.0,-3.759,-3.9618,0.0,0.0,0.0,0.0,0.0,0.0,0.0,0.0,0.0,0.0,-4.1332,-4.1127,-4.0829,-4.07,-4.0644,-4.0171,-3.9861,-3.9837,-3.9443,-3.923,-3.9154,-3.8945,-3.8998,0.0,0.0,-3.8133,-3.7986,-3.7453,-3.7185,-3.7024,-3.7078,-3.6602,-3.5888,-3.5939,-3.5437,-3.4677,0.0,0.0,0.0,0.0,0.0,0.0,0.0,0.0,0.0,0.0,0.0,0.0,0.0,0.0,0.0,0.0,0.0,0.0,0.0,0.0,-1.6001,-1.6207,-1.6867,-1.7399,-1.7775,-1.8693,-1.9335,-1.9692,-2.0313,-2.0587,-2.0587,-2.0612,-2.0736,-2.0944,-2.0444,-2.0355,-2.0574,-2.0643,-2.0735,-2.0836,0.0,0.0,0.0,0.0,0.0,0.0,0.0,0.0,0.0,0.0,-2.1371,-2.1149,-2.1149,0.0,0.0,0.0,0.0,0.0,-2.2918,-2.3591,-2.4317,-2.5109,-2.5453,-2.5726,-2.6208,-2.6269,-2.6369,-2.7016,-2.7849,-2.8641,-2.9211,-3.0437,-3.1891,-3.3462,-3.4798,-3.6218,-3.7701,-3.7642,-3.8087,0.0,0.0,0.0,0.0,0.0,0.0,0.0,0.0,0.0,0.0,0.0,-4.1667,-4.1286,-4.113,-4.1016,-4.0887,-4.0263,-3.994,-3.9793,-3.9548,-3.9251,-3.8998,-3.8736,-3.8566,-3.8566,0.0,-3.7625,-3.7292,-3.7131,-3.7078,-3.7108,-3.7145,-3.6876,-3.6338,-3.5761,-3.5146,-3.458,0.0,0.0,0.0,0.0,0.0,0.0,0.0,0.0,0.0,0.0,0.0,0.0,0.0,0.0,0.0,0.0,0.0,0.0,0.0,-1.576,-1.5836,-1.5988,-1.6963,-1.7609,-1.7846,-1.8864,-1.9513,-1.974,-2.0191,-2.0436,-2.0436,-2.0385,-2.0422,-2.0547,-2.0227,-2.0199,-2.039,-2.0519,-2.0637,-2.0748,0.0,0.0,0.0,0.0,0.0,0.0,0.0,0.0,0.0,0.0,0.0,0.0,0.0,0.0,0.0,-2.1103,-2.16,-2.2247,-2.2957,-2.3675,-2.4366,-2.5098,-2.5585,-2.6016,-2.6611,-2.688,-2.7151,-2.7792,-2.8451,-2.9123,-2.9846,-3.1215,-3.2729,-3.4067,-3.5319,-3.6455,-3.7478,-3.7829,0.0,0.0,0.0,0.0,0.0,0.0,0.0,0.0,0.0,0.0,0.0,0.0,-4.1829,-4.141,-4.1219,-4.1037,-4.0819,-4.0271,-3.9954,-3.9812,-3.9623,-3.9299,-3.8788,-3.8473,-3.8198,-3.7986,-3.7625,-3.7262,-3.6928,-3.7143,-3.7197,-3.7192,-3.7187,-3.6898,-3.6412,-3.5478,-3.4835,-3.4384,0.0,0.0,0.0,0.0,0.0,0.0,0.0,0.0,0.0,0.0,0.0,0.0,0.0,0.0,0.0,0.0,0.0,0.0,0.0,-1.5693,-1.5792,-1.5988,-1.7137,-1.7963,-1.834,-1.9044,-1.9643,-2.0143,-2.0207,-2.0207,-2.0207,-2.0207,-2.0296,-2.0409,-2.0383,-2.0458,-2.0607,-2.0718,-2.0792,-2.0792,-2.0832,0.0,0.0,0.0,0.0,0.0,0.0,0.0,0.0,0.0,0.0,0.0,0.0,0.0,-2.125,-2.1699,-2.2192,-2.2799,-2.3468,-2.4167,-2.4838,-2.5206,-2.5983,-2.6696,-2.6935,-2.7369,-2.8027,-2.9045,-2.9213,-2.9625,-3.1176,-3.2964,-3.4317,-3.4605,-3.6445,-3.7852,-3.7939,0.0,0.0,0.0,0.0,0.0,0.0,0.0,0.0,0.0,0.0,0.0,0.0,0.0,0.0,-4.165,-4.0951,-4.0561,-4.0523,-3.9971,-3.9959,-4.0408,-3.9673,-3.9151,-3.8788,-3.825,-3.8039,-3.7986,-3.74,-3.7304,-3.7542,-3.7542,-3.7542,-3.7548,-3.7304,-3.6567,-3.5605,-3.504,-3.4628,-3.4335,0.0,0.0,0.0,0.0,0.0,0.0,0.0,0.0,0.0,0.0,0.0,0.0,0.0,0.0,0.0,0.0,0.0,0.0,0.0,-1.5693,-1.5792,-1.5988,-1.7151,-1.7894,-1.8155,-1.9045,-1.9661,-1.9939,-1.9939,-1.9991,-2.0067,-1.9991,-2.0016,-2.0156,-2.0156,-2.0233,-2.0346,-2.0498,-2.0535,-2.0535,-2.0535,-2.0397,0.0,0.0,0.0,0.0,0.0,0.0,0.0,0.0,-2.069,-2.0593,-2.0593,-2.0775,-2.1101,-2.1625,-2.2227,-2.2856,-2.3514,-2.4154,-2.4788,-2.5456,-2.6335,-2.7324,-2.8325,-2.9061,-2.9899,-3.1183,-3.1314,-3.1496,-3.2412,-3.3685,-3.4702,-3.5132,-3.6749,-3.8002,0.0,0.0,0.0,0.0,0.0,0.0,0.0,0.0,0.0,0.0,0.0,0.0,0.0,0.0,0.0,-4.098,-4.0674,-4.0402,-4.0245,-4.0043,-4.0043,-4.0245,-3.9409,-3.8945,-3.8788,-3.8051,-3.7744,-3.7744,-3.7304,-3.7197,-3.7281,-3.7133,-3.7214,-3.7264,-3.6708,-3.5923,-3.5051,-3.47,-3.4298,-3.3965,0.0,0.0,0.0,0.0,0.0,0.0,0.0,0.0,0.0,0.0,0.0,0.0,0.0,0.0,0.0,0.0,0.0,0.0,-1.5792,-1.5792,-1.5953,-1.6288,-1.7306,-1.8004,-1.8262,-1.9094,-1.9591,-1.9656,-1.9656,-1.972,-1.981,-1.9759,-1.9798,-1.9888,-1.9926,-2.0003,-2.0067,-2.0169,-2.022,-2.022,-2.0169,-2.0003,0.0,0.0,0.0,0.0,0.0,0.0,0.0,0.0,-2.0658,-2.0561,-2.0561,-2.0855,-2.1308,-2.1865,-2.2434,-2.3098,-2.384,-2.4318,-2.4799,-2.5669,-2.6637,-2.7814,-2.9512,-3.0383,-3.1295,-3.2766,-3.3077,-3.3187,-3.3385,-3.4125,-3.4856,0.0,-3.6784,0.0,0.0,0.0,0.0,0.0,0.0,0.0,0.0,0.0,0.0,0.0,0.0,0.0,0.0,0.0,0.0,0.0,-4.0442,-4.0217,-3.9981,-3.9981,-3.9981,-3.9981,-3.9154,-3.8736,-3.8631,-3.7904,-3.7596,-3.7596,-3.737,-3.721,-3.7127,-3.6889,-3.6649,-3.641,-3.5855,-3.5194,-3.4543,-3.4298,-3.3965,-3.3679,0.0,0.0,0.0,0.0,0.0,0.0,0.0,0.0,0.0,0.0,0.0,0.0,0.0,0.0,0.0,0.0,0.0,0.0,-1.5988,-1.6001,-1.631,-1.6974,-1.7656,-1.8238,-1.8784,-1.9189,-1.9394,-1.9394,-1.9394,-1.9394,-1.9394,-1.9539,-1.9617,-1.9617,-1.9734,-1.9798,-1.9798,-1.9798,-1.9798,-1.9798,-1.9656,-1.9512,-1.9394,0.0,0.0,0.0,0.0,0.0,0.0,0.0,-2.0903,-2.0903,-2.0903,-2.1341,-2.1986,-2.2524,-2.3041,-2.3581,-2.4541,-2.4801,-2.5027,-2.5913,-2.6834,-2.8099,-3.029,-3.1124,-3.1888,-3.3571,-3.4349,-3.4517,-3.401,-3.4361,-3.4856,-3.5408,-3.6471,0.0,0.0,0.0,0.0,0.0,0.0,0.0,0.0,0.0,0.0,0.0,0.0,0.0,0.0,0.0,0.0,0.0,-4.022,-3.9981,-3.9697,-3.9697,-3.9697,-3.9697,-3.9114,-3.8684,-3.8409,-3.785,-3.7596,-3.7596,-3.7596,-3.7433,-3.7192,-3.692,-3.5991,-3.4804,-3.4804,-3.451,-3.4075,-3.3779,-3.3679,-3.3679,0.0,0.0,0.0,0.0,0.0,0.0,0.0,0.0,0.0,0.0,0.0,0.0,0.0,0.0,0.0,0.0,0.0,0.0,-1.6169,-1.65,-1.6827,-1.7124,-1.7944,-1.8499,-1.8659,-1.8957,-1.9158,-1.9249,-1.9249,-1.9302,-1.9394,-1.9447,-1.9512,-1.9617,-1.963,-1.9708,-1.9798,-1.9708,-1.9656,-1.9656,-1.9604,-1.9512,-1.942,0.0,0.0,0.0,0.0,0.0,0.0,0.0,0.0,0.0,-2.0935,-2.1133,-2.1592,-2.2454,-2.2891,-2.334,-2.4329,-2.4987,-2.5653,-2.6982,-2.7623,-2.8684,-3.1541,-3.2421,-3.3,-3.452,-3.504,-3.5048,-3.4375,-3.4972,0.0,-3.5516,0.0,0.0,0.0,0.0,0.0,0.0,0.0,0.0,0.0,0.0,0.0,0.0,0.0,0.0,0.0,0.0,0.0,0.0,-4.0069,-4.0083,-3.9981,-3.9788,-3.9697,-3.9697,-3.8893,-3.8579,-3.8684,-3.8157,-3.7892,-3.7868,-3.7285,-3.6982,-3.682,-3.5825,-3.4987,-3.4287,-3.4088,-3.3957,-3.3779,-3.353,-3.3431,-3.3431,0.0,0.0,0.0,0.0,0.0,0.0,0.0,0.0,0.0,0.0,-1.6416,-1.6787,0.0,0.0,0.0,0.0,0.0,0.0,-1.6621,-1.685,-1.7143,-1.7423,-1.8167,-1.8669,-1.8839,-1.8936,-1.9052,-1.9117,-1.9117,-1.9158,-1.9237,-1.9289,-1.9394,-1.9512,-1.9591,-1.963,-1.9708,-1.9591,-1.9486,-1.9447,-1.9382,-1.9342,-1.9328,0.0,0.0,0.0,0.0,0.0,0.0,0.0,0.0,0.0,-2.0953,-2.14,-2.211,-2.2725,-2.3281,-2.3839,-2.4566,-2.5263,-2.6135,-2.7452,-2.8064,-2.9162,-3.2326,-3.3627,-3.4457,-3.5453,-3.5844,-3.5785,-3.5107,-3.5407,0.0,0.0,0.0,0.0,0.0,0.0,0.0,0.0,0.0,0.0,0.0,0.0,0.0,0.0,0.0,0.0,0.0,0.0,0.0,0.0,-3.9981,-3.9981,-3.9775,-3.9465,-3.927,-3.9154,-3.8433,-3.8048,-3.8,-3.7731,-3.7428,-3.7011,-3.6331,-3.5951,-3.5777,-3.475,-3.4146,-3.3779,-3.358,-3.353,-3.353,-3.3331,-3.3281,-3.3331,0.0,0.0,0.0,0.0,0.0,0.0,0.0,0.0,0.0,0.0,-1.6675,-1.7108,0.0,0.0,0.0,0.0,0.0,0.0,0.0,-1.7191,-1.7368,-1.7859,-1.8375,-1.8814,-1.9158,-1.9052,-1.8987,-1.8987,-1.8987,-1.9011,-1.9086,-1.9216,-1.9373,-1.9542,-1.9611,-1.9665,-1.9626,-1.9471,-1.9352,-1.9255,-1.9151,-1.9151,-1.9281,-1.9295,0.0,0.0,0.0,0.0,0.0,0.0,0.0,0.0,-2.0936,-2.1918,-2.3085,-2.3213,-2.3931,-2.4743,-2.5028,-2.5649,-2.648,-2.7551,-2.8476,-2.9875,-3.2836,-3.4724,-3.5971,-3.6327,-3.6611,-3.6616,-3.6049,-3.5789,-3.5943,0.0,0.0,0.0,0.0,0.0,0.0,0.0,0.0,0.0,0.0,0.0,0.0,0.0,0.0,0.0,0.0,0.0,0.0,0.0,-3.9929,-3.9826,-3.931,-3.8945,-3.8579,0.0,-3.7749,-3.7186,-3.6664,-3.6932,-3.6497,-3.5486,-3.4965,-3.4579,-3.4256,-3.3865,-3.353,-3.3281,-3.3281,-3.3281,-3.3281,-3.3281,-3.3331,-3.3381,0.0,0.0,0.0,0.0,0.0,0.0,0.0,0.0,0.0,0.0,0.0,0.0,0.0,0.0,0.0,0.0,0.0,0.0,0.0,-1.8031,-1.8314,-1.8412,-1.8838,-1.9049,-1.904,-1.9013,-1.8987,-1.8987,-1.8987,-1.923,-1.964,-1.9764,-2.0077,-2.0491,-2.0189,-2.0074,-2.0023,-1.9472,-1.9466,-1.9828,-1.98,-1.98,-1.9855,-2.0047,-1.9957,0.0,0.0,0.0,0.0,0.0,0.0,0.0,-2.1117,-2.1651,-2.236,-2.3179,-2.3615,-2.3971,-2.4861,-2.5721,-2.6773,-2.8462,-3.0521,-3.2537,-3.4007,-3.4976,-3.5865,-3.6749,-3.7124,-3.7176,-3.6603,-3.6637,0.0,0.0,0.0,0.0,0.0,0.0,0.0,0.0,0.0,0.0,0.0,0.0,0.0,0.0,0.0,0.0,0.0,0.0,0.0,-3.9697,-3.9736,-3.9633,-3.931,-3.8566,-3.8145,0.0,-3.6903,-3.6063,-3.556,-3.6256,-3.5875,-3.4664,-3.4559,-3.414,-3.3531,-3.3427,-3.3331,-3.3281,-3.3281,-3.3281,-3.3281,-3.3281,-3.3431,-3.363,0.0,0.0,0.0,0.0,0.0,0.0,0.0,0.0,0.0,0.0,0.0,0.0,0.0,0.0,0.0,0.0,0.0,0.0,0.0,0.0,-1.8529,-1.8785,-1.8986,-1.9078,-1.8987,-1.8987,-1.8972,-1.8893,-1.9225,-1.9558,-1.9906,-2.0228,-2.062,-2.1043,-2.0804,-2.0668,-2.0573,-2.0208,-2.0159,-2.0274,-2.0274,-2.033,-2.0402,-2.0529,-2.0523,-2.0412,-2.0397,0.0,0.0,0.0,0.0,0.0,0.0,0.0,-2.2299,-2.3103,-2.349,-2.3841,-2.4735,-2.5777,-2.7115,-2.933,-3.1419,-3.3088,-3.384,-3.4771,-3.5763,-3.6728,-3.7127,-3.7214,-3.6956,0.0,0.0,0.0,0.0,0.0,0.0,0.0,0.0,0.0,0.0,0.0,0.0,0.0,0.0,0.0,0.0,0.0,0.0,-3.9839,-3.9788,-3.953,-3.953,-3.931,-3.8893,-3.8157,-3.7732,-3.7548,-3.6349,-3.534,-3.4652,-3.4853,-3.4651,-3.4197,-3.3954,-3.3673,-3.3281,-3.3281,-3.3281,-3.3281,-3.3281,-3.3281,-3.3331,-3.3431,-3.358,-3.3729,0.0,0.0,0.0,0.0,0.0,0.0,0.0,0.0,0.0,0.0,0.0,0.0,0.0,0.0,0.0,0.0,0.0,0.0,0.0,0.0,0.0,-1.8975,-1.8999,-1.8999,-1.8987,-1.8999,-1.8919,-1.8798,-1.9598,-2.0149,-2.043,-2.0933,-2.1424,-2.1857,-2.1699,-2.1526,-2.133,-2.106,-2.0905,-2.0771,-2.0754,-2.08,-2.0904,-2.0932,-2.1072,-2.1191,-2.0707,-2.0613,-2.0578,-2.0005,0.0,0.0,0.0,0.0,-2.2439,-2.306,-2.3474,-2.386,-2.4611,-2.5938,-2.7717,-3.014,-3.1672,-3.2796,-3.3414,-3.4448,-3.557,-3.6464,-3.6921,-3.7155,0.0,0.0,0.0,0.0,0.0,0.0,0.0,0.0,0.0,0.0,0.0,0.0,0.0,0.0,0.0,0.0,0.0,0.0,-3.9788,-3.9788,-3.9633,-3.931,-3.9258,-3.8945,-3.8421,-3.7767,-3.7346,-3.7044,-3.5915,-3.4878,-3.3917,-3.3565,-3.3549,-3.3855,-3.3453,-3.3281,-3.3281,-3.3281,-3.3281,-3.3281,-3.3281,-3.3331,-3.3381,-3.363,-3.3729,-3.3866,0.0,0.0,0.0,0.0,0.0,0.0,0.0,0.0,0.0,0.0,-1.8776,-1.8917,0.0,0.0,0.0,0.0,0.0,0.0,0.0,0.0,0.0,-1.8987,-1.8893,-1.8866,-1.8987,-1.8893,-1.8825,-1.8798,-2.0098,-2.1242,-2.2183,-2.2528,-2.3225,-2.4115,-2.3308,-2.2852,-2.2653,-2.1362,-2.1066,-2.1461,-2.1355,-2.1296,-2.1325,-2.1461,-2.1304,-2.1047,-2.1073,-2.12,-2.1265,-2.074,-2.0602,0.0,0.0,0.0,-2.2089,-2.315,-2.3379,-2.3506,-2.4536,-2.6574,-2.8898,-3.0819,-3.1772,-3.2579,-3.3875,-3.4317,-3.4799,0.0,-3.6921,0.0,0.0,0.0,0.0,0.0,0.0,0.0,0.0,0.0,0.0,0.0,0.0,0.0,0.0,0.0,0.0,0.0,0.0,0.0,-4.0032,-4.0032,-3.9826,-3.9322,-3.8998,-3.8736,-3.8409,-3.7407,-3.6865,-3.6801,-3.5549,-3.447,-3.3723,-3.3665,-3.3565,-3.3373,-3.3315,-3.3281,-3.3281,-3.3281,-3.3281,-3.3281,-3.3281,-3.3431,-3.363,-3.3679,-3.3965,-3.4335,0.0,0.0,0.0,0.0,0.0,0.0,0.0,0.0,0.0,0.0,0.0,-1.8972,0.0,0.0,0.0,0.0,0.0,0.0,0.0,0.0,0.0,-1.8774,-1.8721,-1.8732,-1.8774,-1.8732,-1.8598,-1.8422,-2.0065,-2.1483,-2.2575,-2.3678,-2.4589,-2.5287,-2.4577,-2.4179,-2.3942,-2.28,-2.236,-2.2462,-2.2018,-2.2029,-2.2289,-2.2018,-2.2311,-2.2739,-2.1834,-2.1915,-2.2284,-2.1446,-2.1102,-2.1119,-2.1668,0.0,0.0,0.0,-2.2897,-2.3096,-2.4693,-2.6923,-2.9075,-3.0231,-3.1361,-3.234,-3.297,-3.3718,-3.4444,-3.5073,-3.5711,0.0,0.0,0.0,0.0,0.0,0.0,0.0,0.0,0.0,0.0,0.0,0.0,0.0,0.0,0.0,0.0,0.0,0.0,-3.989,-3.989,-3.9434,-3.9016,-3.8617,-3.8001,-3.7572,-3.7263,-3.6673,-3.6102,-3.5663,-3.5078,-3.4507,-3.3927,-3.3927,-3.3679,-3.3281,-3.3281,-3.3281,-3.3281,-3.3281,-3.3281,-3.3281,-3.3281,-3.3481,-3.3729,-3.3878,-3.4113,-3.4433,0.0,0.0,0.0,0.0,0.0,0.0,0.0,0.0,0.0,0.0,0.0,0.0,0.0,0.0,0.0,0.0,0.0,0.0,0.0,0.0,0.0,-1.8587,-1.856,-1.856,-1.8587,-1.856,-1.841,-1.8084,-1.9872,-2.1284,-2.2379,-2.4108,-2.5259,-2.5967,-2.5509,-2.5344,-2.5355,-2.4194,-2.3686,-2.3541,-2.2877,-2.2898,-2.3264,-2.2834,-2.3449,-2.4435,-2.3158,-2.3157,-2.3584,-2.2661,-2.2072,-2.1795,-2.2234,-2.1994,0.0,0.0,0.0,-2.3095,-2.4752,-2.6577,-2.8186,-2.8862,-3.009,-3.1204,-3.1617,-3.2651,-3.3698,0.0,0.0,0.0,0.0,0.0,0.0,0.0,0.0,0.0,0.0,0.0,0.0,0.0,0.0,0.0,0.0,0.0,0.0,0.0,0.0,-3.9372,-3.9372,-3.8767,-3.8252,-3.7857,-3.7187,-3.6664,-3.6411,-3.6063,-3.5539,-3.4816,-3.4816,-3.4565,-3.4162,-3.4162,-3.3866,-3.3381,-3.3381,-3.3381,-3.3281,-3.3281,-3.3281,-3.3281,-3.3281,-3.3481,-3.3729,-3.4026,-3.4211,-3.4433,0.0,0.0,0.0,0.0,0.0,0.0,0.0,0.0,0.0,0.0,0.0,0.0,-1.8625,-1.8614,-1.8572,-1.8422,-1.8422,0.0,0.0,0.0,0.0,-1.8587,-1.8464,0.0,-1.8587,-1.8464,-1.8313,-1.8084,-1.9529,-2.073,-2.1702,-2.3506,-2.5012,-2.6158,-2.5958,-2.6343,-2.7046,-2.509,-2.4434,-2.4668,-2.3985,-2.3931,-2.4218,-2.3985,-2.4513,-2.5327,-2.524,-2.5315,-2.5385,-2.4833,-2.3817,-2.2822,-2.2997,-2.2379,-2.1757,0.0,0.0,0.0,-2.4449,-2.5091,-2.58,-2.6717,-2.7543,-2.8512,-3.0042,0.0,-3.2018,0.0,0.0,0.0,0.0,0.0,0.0,0.0,0.0,0.0,0.0,0.0,0.0,0.0,0.0,0.0,0.0,0.0,0.0,0.0,0.0,-3.8461,-3.8461,-3.8251,-3.7829,-3.728,-3.6941,-3.6664,-3.6411,-3.5855,-3.5339,-3.4823,-3.4823,-3.4652,-3.4384,-3.4384,-3.4101,-3.3679,-3.3679,-3.353,-3.3281,-3.3281,-3.3281,-3.3281,-3.3281,-3.3481,-3.3729,-3.4026,-3.4211,-3.4433,0.0,0.0,0.0,0.0,0.0,0.0,0.0,0.0,0.0,0.0,0.0,0.0,0.0,-1.8677,-1.8428,-1.7982,-1.7959,0.0,0.0,0.0,0.0,-1.803,-1.7986,-1.7986,-1.803,-1.8045,-1.8002,-1.7838,-1.9082,-2.0282,-2.1423,-2.2503,-2.4224,-2.6401,-2.6274,-2.6489,-2.6812,-2.5427,-2.4971,-2.512,-2.4279,-2.4505,-2.532,-2.5286,-2.6223,-2.7491,-2.726,-2.7276,-2.7265,-2.6367,-2.5459,-2.4555,-2.3748,-2.3077,-2.2646,-2.2745,-2.3306,-2.3904,-2.4009,-2.4705,-2.5443,-2.5657,-2.647,-2.7433,-2.8361,-2.9031,-2.9866,0.0,0.0,0.0,0.0,0.0,0.0,0.0,0.0,0.0,0.0,0.0,0.0,0.0,0.0,0.0,0.0,0.0,0.0,0.0,0.0,0.0,-3.7668,-3.7159,-3.6677,-3.6467,-3.5829,-3.5487,-3.5388,-3.5159,-3.4967,-3.4775,-3.4775,-3.4726,-3.4677,-3.4677,-3.4494,-3.415,-3.4014,-3.3729,-3.3281,-3.3281,-3.3281,-3.3281,-3.3281,-3.3481,-3.3729,-3.4026,-3.4211,-3.4433,0.0,0.0,0.0,0.0,0.0,0.0,0.0,0.0,-1.9274,-1.9389,0.0,0.0,0.0,0.0,-1.8598,-1.8198,-1.7991,-1.7874,-1.7874,-1.7718,-1.7617,-1.7617,-1.7684,-1.7711,-1.7711,-1.7826,-1.7826,-1.7711,-1.8662,-1.9666,-2.0684,-2.1533,-2.3164,-2.5406,-2.5607,-2.618,-2.692,-2.5831,-2.5685,-2.6083,-2.5247,-2.564,-2.6723,-2.6723,-2.7752,-2.9126,-2.8974,-2.8946,-2.8869,-2.8239,-2.7094,-2.582,-2.5013,-2.4176,-2.3378,-2.2837,-2.3182,-2.3672,-2.3486,-2.3945,-2.4439,-2.4251,-2.4906,-2.5777,-2.6525,-2.7287,-2.8199,0.0,0.0,0.0,0.0,0.0,0.0,0.0,0.0,0.0,0.0,0.0,0.0,0.0,0.0,0.0,0.0,0.0,0.0,0.0,0.0,0.0,-3.6727,-3.6162,-3.5721,-3.5599,-3.5065,-3.4775,-3.4775,-3.4775,-3.4775,-3.4775,-3.4775,-3.4775,-3.4775,-3.4775,-3.4628,-3.4384,-3.4249,-3.3915,-3.3431,-3.3331,-3.3281,-3.3281,-3.3281,-3.3431,-3.358,-3.3878,-3.4064,-3.42,0.0,0.0,0.0,0.0,0.0,0.0,0.0,0.0,-1.9977,-1.9647,0.0,0.0,0.0,0.0,0.0,-1.9067,-1.8526,-1.8202,-1.8202,-1.7778,-1.7529,-1.7518,0.0,0.0,-1.7684,-1.7838,-1.7838,-1.7711,-1.8306,-1.8889,-1.9417,-2.0602,-2.1881,-2.3226,-2.3949,-2.5479,-2.744,-2.6365,-2.6547,-2.7518,-2.6949,-2.7416,-2.8426,-2.8294,-2.9038,-3.019,-3.0445,-3.0407,-3.0253,-3.042,-2.8777,-2.6669,-2.673,-2.5486,-2.3829,-2.296,-2.2878,-2.3078,0.0,0.0,0.0,-2.2451,-2.2778,-2.3466,-2.4579,0.0,-2.7015,0.0,0.0,0.0,0.0,0.0,0.0,0.0,0.0,0.0,0.0,0.0,0.0,0.0,0.0,0.0,0.0,0.0,0.0,0.0,0.0,-3.5572,-3.5572,-3.532,-3.5078,-3.4823,-3.4775,-3.4775,-3.4775,-3.4775,-3.4775,-3.4775,-3.4775,-3.4775,-3.4775,-3.4775,-3.4677,-3.4433,-3.4384,-3.415,-3.3679,-3.3431,-3.3331,-3.3331,-3.3331,-3.3331,-3.3331,-3.363,-3.3729,-3.3729,0.0,0.0,0.0,0.0,0.0,-1.9725,-1.9795,-1.9783,-1.9821,0.0,0.0,0.0,-1.9284,-1.8794,-1.8436,-1.8436,-1.8287,-1.8212,-1.8212,-1.8162,-1.8013,-1.7665,-1.8127,-1.8122,-1.7429,-1.798,-1.8076,-1.7711,-1.8346,-1.8999,-1.9629,-2.0217,-2.1406,-2.3058,-2.3277,-2.4245,-2.5717,-2.5549,-2.6122,-2.7199,-2.7467,-2.8387,-2.9732,-3.0649,-3.1481,-3.225,-3.3289,-3.3356,-3.2957,0.0,-3.1487,-2.9712,-2.6904,-2.5073,-2.386,-2.3083,-2.2969,-2.3047,-2.283,0.0,0.0,0.0,0.0,0.0,0.0,0.0,0.0,0.0,0.0,0.0,0.0,0.0,0.0,0.0,0.0,0.0,0.0,0.0,0.0,0.0,0.0,0.0,0.0,0.0,0.0,0.0,-3.4908,-3.503,-3.503,-3.4932,-3.4884,-3.4775,-3.4775,-3.4775,-3.4775,-3.4775,-3.4775,-3.4775,-3.4775,-3.4775,-3.4775,-3.4775,-3.4775,-3.4677,-3.4482,-3.4335,-3.415,-3.3767,-3.358,-3.358,-3.358,-3.358,-3.363,-3.3878,-3.3878,-3.3729,0.0,0.0,0.0,0.0,0.0,-2.0083,-2.0094,-2.0083,-2.0124,0.0,0.0,0.0,-1.9522,-1.8998,-1.868,-1.8775,-1.8543,-1.8395,-1.8395,-1.8348,-1.8194,-1.7916,-1.8414,-1.8436,-1.7908,-1.8451,-1.8608,-1.8328,-1.8861,-1.9417,-1.9998,-2.0183,-2.1215,-2.2889,-2.2889,-2.3583,-2.4838,-2.5242,-2.613,-2.7309,-2.8164,-2.9289,-3.0519,-3.1554,-3.2324,-3.3062,-3.4159,-3.436,-3.4105,-3.4139,-3.2797,0.0,-2.7088,-2.5189,-2.4116,-2.3356,-2.3064,-2.2909,-2.2739,-2.2647,-2.2525,-2.234,0.0,0.0,-2.2349,-2.2959,0.0,0.0,0.0,0.0,0.0,0.0,0.0,0.0,0.0,0.0,0.0,0.0,0.0,0.0,0.0,0.0,0.0,0.0,0.0,-3.4219,-3.4378,-3.4546,-3.4775,-3.4775,-3.4775,-3.4775,-3.4775,-3.4775,-3.4775,-3.4775,-3.4775,-3.4775,-3.4775,-3.4775,-3.4775,-3.4775,-3.4775,-3.4775,-3.4628,-3.4482,-3.4384,-3.4101,-3.3915,-3.3878,-3.3878,-3.3878,-3.3878,-3.3927,-3.3828,-3.3679,0.0,0.0,-2.0091,-2.059,-2.0714,-2.0747,-2.078,-2.0792,-2.0761,0.0,-2.0347,-2.0074,-1.9764,-1.9531,-1.9498,-1.9665,-1.9229,-1.8911,-1.8869,-1.8575,-1.8382,-1.8275,-1.8605,-1.8766,-1.8668,-1.9025,-1.9216,-1.916,-1.9526,-1.9938,-2.035,-2.0408,-2.1241,-2.2673,-2.2673,-2.3352,-2.4536,-2.5327,-2.6403,-2.7656,-2.9056,-3.0215,-3.1215,-3.1876,-3.2546,-3.3277,-3.4082,-3.4318,-3.4425,-3.5027,-3.3172,0.0,0.0,0.0,0.0,-2.3749,-2.3145,-2.2764,-2.2702,-2.2555,-2.2389,-2.2389,0.0,0.0,-2.1937,-2.2618,-2.3261,0.0,0.0,0.0,0.0,0.0,0.0,0.0,0.0,0.0,0.0,0.0,0.0,0.0,0.0,0.0,0.0,-3.3426,-3.3625,-3.3921,-3.4018,-3.4282,-3.4751,-3.4775,-3.4775,-3.4775,-3.4775,-3.4775,-3.4775,-3.4775,-3.4775,-3.4775,-3.4835,-3.4823,-3.4835,-3.4884,-3.4872,-3.4872,-3.4884,-3.4726,-3.4482,-3.4433,-3.4298,-3.4125,-3.4125,-3.4125,-3.4075,-3.3828,-3.3729,-3.363,0.0,-2.0073,-2.0138,-2.0421,-2.0786,-2.1074,-2.1229,-2.1464,-2.1561,-2.1527,-2.1114,-2.0732,-2.0512,-2.0302,-2.0197,-2.0232,-2.0289,-2.0159,-1.9768,-1.9822,-1.9562,-1.8796,-1.919,-1.9105,-1.8466,-1.9049,-1.9214,-1.895,-1.9563,-1.9902,-2.0003,-2.0428,-2.1291,-2.2469,-2.2469,-2.3212,-2.4548,-2.569,-2.674,-2.7837,-3.0007,-3.1564,-3.2832,-3.4175,-3.4765,-3.4976,-3.5615,-3.5865,-3.5794,-3.5158,-3.3553,-3.1356,0.0,0.0,0.0,-2.3971,0.0,-2.3199,-2.2604,-2.242,0.0,0.0,0.0,0.0,-2.1824,-2.1914,-2.211,0.0,0.0,0.0,0.0,0.0,0.0,0.0,0.0,0.0,0.0,0.0,0.0,0.0,0.0,0.0,0.0,-3.2309,-3.2909,-3.3392,-3.4198,-3.4667,-3.4775,-3.4775,-3.4775,-3.4775,-3.4775,-3.4775,-3.4775,-3.4775,-3.4775,-3.4775,-3.503,-3.5126,-3.5126,-3.5368,-3.5416,-3.5428,-3.5223,-3.5078,-3.503,-3.4823,-3.458,-3.4347,-3.4347,-3.4261,-3.4075,-3.4026,-3.3729,-3.3381,-2.0063,-2.0303,-2.0533,-2.0632,-2.1028,-2.1381,-2.1472,-2.1601,-2.171,-2.171,-2.1371,-2.102,-2.074,-2.0705,-2.074,-2.0846,-2.0952,-2.0927,-2.0807,-2.0674,-2.0341,-1.9758,-1.9736,-1.9511,-1.9009,-1.9425,-1.9585,-1.9502,-1.9955,-2.0204,-2.031,-2.0589,-2.1327,-2.24,-2.2503,-2.342,-2.498,-2.6448,-2.7636,-2.8714,-3.0634,-3.202,-3.3089,-3.4792,-3.5549,-3.5716,-3.6297,-3.6593,-3.6519,-3.5524,-3.4059,0.0,-2.9897,-2.7911,-2.6136,0.0,-2.3506,-2.3113,0.0,0.0,0.0,-2.2216,0.0,0.0,0.0,-2.151,-2.1624,0.0,0.0,0.0,0.0,0.0,0.0,0.0,0.0,0.0,0.0,0.0,0.0,0.0,0.0,0.0,0.0,-3.1146,-3.2022,-3.2839,-3.3621,-3.4174,-3.4366,-3.439,-3.4498,-3.4775,-3.4775,-3.4775,-3.4775,-3.492,-3.4981,-3.5017,-3.5003,-3.5159,-3.5416,-3.5242,-3.5362,-3.5572,-3.5476,-3.532,-3.5175,-3.5078,-3.4823,-3.458,-3.458,-3.4543,-3.4408,-3.4174,-3.3927,-3.3679,-2.0107,-2.0533,-2.0894,-2.0894,-2.1376,-2.1723,-2.1723,-2.18,-2.1865,-2.183,-2.184,-2.1732,-2.1422,-2.169,-2.2015,-2.227,-2.2306,-2.2327,-2.2355,-2.1878,-2.1466,-2.1138,-2.0517,-2.0071,-1.9871,-1.9952,-1.9987,-2.0074,-2.0226,-2.041,-2.0572,-2.0705,-2.1318,-2.2377,-2.2777,-2.3884,-2.5513,-2.7323,-2.873,-2.9791,-3.1491,-3.2432,-3.3046,-3.4815,-3.5709,-3.6071,-3.659,-3.6904,-3.6836,-3.5724,-3.4468,-3.3001,-3.0775,-2.8699,0.0,0.0,0.0,0.0,0.0,0.0,0.0,0.0,0.0,-2.2049,0.0,0.0,0.0,0.0,0.0,0.0,0.0,0.0,0.0,0.0,0.0,0.0,0.0,0.0,0.0,0.0,0.0,0.0,0.0,-2.9953,-3.0939,-3.1817,-3.2563,-3.3152,-3.3561,-3.373,-3.409,-3.4619,-3.4631,-3.4679,-3.4775,-3.4969,-3.5077,-3.5065,-3.4813,-3.493,-3.5336,-3.5051,-3.5184,-3.5556,-3.5667,-3.5524,-3.5271,-3.5223,-3.503,-3.4775,-3.4775,-3.4738,-3.464,-3.4211,-3.4026,-3.3878,-2.0151,-2.0533,-2.0894,-2.0894,-2.1625,-2.2237,-2.2237,-2.2575,-2.2763,-2.2615,-2.3323,-2.3841,-2.3802,-2.4638,-2.5341,-2.5791,-2.5994,-2.5774,-2.5092,-2.4442,-2.3783,-2.3091,-2.1841,-2.1038,-2.0863,-2.0469,-2.0165,-1.9933,-1.9933,-2.0042,-2.0194,-2.0643,-2.1374,-2.2285,-2.3366,-2.4605,-2.5992,-2.8258,-2.9776,-3.0827,-3.3132,-3.3804,0.0,-3.4965,-3.5843,-3.6392,-3.6933,-3.695,-3.6603,0.0,-3.4337,-3.3098,0.0,-2.9818,-2.8151,-2.6384,0.0,0.0,0.0,0.0,0.0,0.0,-2.2787,0.0,0.0,0.0,0.0,0.0,0.0,0.0,0.0,0.0,0.0,0.0,0.0,0.0,0.0,0.0,0.0,0.0,0.0,0.0,0.0,0.0,-2.9532,-2.9653,-3.1023,-3.1922,-3.1982,-3.2851,-3.3609,-3.4066,-3.4078,-3.4306,-3.4823,-3.4606,-3.4471,-3.4506,-3.4388,-3.4384,-3.4458,-3.511,-3.544,-3.5528,-3.5839,-3.5812,-3.5524,-3.5271,-3.503,-3.4775,-3.4775,-3.4543,-3.4174,-3.4125,-3.3779,-3.3381,-2.0443,-2.0952,-2.1436,-2.1436,-2.2133,-2.2717,-2.2717,-2.311,-2.3449,-2.3567,-2.4403,-2.5088,-2.5444,-2.6343,-2.7203,-2.795,-2.81,-2.7914,0.0,-2.6322,-2.5385,-2.4657,-2.3006,-2.195,-2.1664,-2.1121,-2.0683,-2.0321,-2.0321,-2.0388,-2.0566,-2.0796,-2.1436,-2.2479,-2.3507,-2.5021,-2.7054,-2.9453,-3.1327,-3.2832,-3.4799,-3.5403,0.0,-3.616,-3.6634,-3.691,-3.7462,-3.6945,-3.5995,0.0,-3.5075,0.0,0.0,0.0,0.0,0.0,0.0,0.0,0.0,0.0,0.0,0.0,0.0,0.0,-2.0596,0.0,-1.9483,0.0,0.0,0.0,0.0,0.0,0.0,0.0,0.0,0.0,0.0,0.0,0.0,0.0,0.0,0.0,0.0,0.0,0.0,0.0,0.0,-2.9316,-3.0242,-3.1312,-3.2364,-3.3288,-3.3487,-3.3846,-3.4346,-3.422,-3.425,-3.4318,-3.4139,-3.4232,-3.4532,-3.4535,-3.4893,-3.5508,-3.5665,-3.5658,-3.5572,-3.5476,-3.5175,-3.4775,-3.4775,-3.458,-3.4249,-3.4125,-3.3878,-3.353,-2.0935,-2.1408,-2.1803,-2.1744,-2.2429,-2.3082,-2.3262,-2.3875,-2.4447,-2.4821,-2.582,-2.6766,-2.7417,-2.8519,-2.9505,-3.0164,-3.0349,-3.0248,0.0,0.0,-2.7592,-2.6829,-2.504,0.0,-2.3264,-2.2407,-2.1747,-2.1277,-2.102,-2.0989,-2.117,-2.1268,-2.1765,-2.2673,-2.3796,-2.5486,-2.7671,-3.0393,-3.2521,-3.4267,-3.594,-3.6649,-3.6741,-3.7002,-3.7128,-3.7255,-3.7443,-3.673,-3.5678,-3.5962,-3.5458,0.0,-3.3551,0.0,0.0,0.0,0.0,0.0,-2.6187,0.0,0.0,0.0,0.0,0.0,0.0,0.0,0.0,0.0,0.0,0.0,0.0,0.0,0.0,-1.7975,0.0,0.0,0.0,0.0,0.0,0.0,0.0,0.0,0.0,0.0,0.0,0.0,0.0,0.0,-2.7921,-2.9494,-3.0882,-3.2079,-3.2705,-3.3339,-3.3998,-3.3896,-3.3958,-3.4069,-3.3802,-3.3884,-3.4261,-3.401,-3.4424,-3.5282,-3.5433,-3.5541,-3.562,-3.562,-3.5271,-3.4775,-3.4775,-3.4628,-3.4384,-3.4162,-3.3927,-3.3679,-2.1607,-2.1699,-2.1779,-2.1616,-2.2368,-2.324,-2.3973,-2.5072,-2.5986,-2.6449,-2.8008,-2.9361,-3.01,-3.1797,-3.284,-3.2757,-3.3267,-3.323,-3.2421,0.0,-3.0885,0.0,0.0,-2.703,0.0,0.0,-2.3399,-2.2939,-2.2024,-2.1664,-2.186,-2.2122,-2.2377,-2.2695,-2.4544,-2.605,-2.7412,-3.0701,-3.299,-3.457,-3.6413,-3.7341,-3.7531,0.0,-3.6973,-3.7132,-3.6628,0.0,0.0,-3.5394,-3.4973,0.0,0.0,0.0,0.0,0.0,0.0,0.0,0.0,0.0,0.0,-2.6065,0.0,0.0,0.0,0.0,-1.9731,0.0,0.0,0.0,0.0,0.0,-1.7711,-1.7711,-1.7346,0.0,0.0,0.0,0.0,0.0,0.0,0.0,0.0,0.0,0.0,0.0,0.0,0.0,-2.465,-2.7329,-2.9363,-3.0433,-3.1675,-3.2884,-3.3998,-3.3694,-3.3511,-3.3499,-3.3227,-3.3106,-3.3156,-3.3658,-3.4211,-3.4731,-3.527,-3.5541,-3.562,-3.562,-3.5271,-3.4775,-3.4775,-3.4628,-3.4384,-3.4162,-3.3927,-3.3679,-2.2184,-2.2306,-2.2406,-2.2286,-2.3091,-2.4221,-2.574,-2.6583,-2.7557,-2.8925,-3.0318,-3.16,-3.2769,-3.3842,-3.4728,0.0,0.0,-3.4641,-3.3803,-3.2886,0.0,0.0,0.0,-2.8642,0.0,0.0,0.0,-2.4661,-2.3976,-2.3352,-2.2822,-2.2915,-2.3084,-2.3387,-2.4663,-2.6371,-2.8477,-3.0672,-3.3241,0.0,0.0,-3.8016,-3.7887,0.0,0.0,-3.7156,-3.6972,-3.6431,0.0,-3.5926,-3.5431,-3.4771,-3.4678,-3.423,-3.3571,-3.3001,-3.1771,0.0,0.0,0.0,-2.7503,-2.6012,0.0,0.0,0.0,0.0,0.0,0.0,0.0,0.0,0.0,-1.8959,-1.8505,-1.8107,-1.7389,-1.6855,0.0,0.0,0.0,0.0,0.0,0.0,0.0,0.0,0.0,0.0,0.0,0.0,0.0,-2.5851,-2.8102,-3.0057,-3.1215,-3.2309,-3.3402,-3.314,-3.3084,-3.3214,-3.3113,-3.3124,-3.3124,-3.3269,-3.3658,-3.4211,-3.4718,-3.5085,-3.5328,-3.5127,-3.505,-3.4993,-3.4499,-3.4318,-3.4384,-3.4162,-3.3927,-3.3679,-2.3038,-2.3016,-2.2969,-2.2562,-2.3653,-2.5116,-2.6787,-2.792,-2.9196,-3.0926,-3.2265,0.0,-3.4686,0.0,-3.6102,0.0,-3.5997,-3.5415,-3.4742,-3.3813,0.0,-3.23,-3.125,0.0,0.0,0.0,0.0,0.0,-2.5819,-2.4945,-2.4146,-2.4006,-2.4033,-2.4238,-2.5116,-2.6553,-2.8434,-3.0324,-3.2928,0.0,0.0,-3.8483,0.0,0.0,-3.7328,-3.6917,0.0,-3.6528,-3.6015,-3.6125,-3.571,-3.5159,-3.4868,-3.4564,-3.4186,-3.382,-3.2824,-3.1789,-3.1357,-3.0079,0.0,-2.7073,-2.5827,0.0,-2.3176,0.0,0.0,0.0,0.0,0.0,0.0,0.0,-1.8942,-1.8174,-1.7269,-1.6403,0.0,-1.5013,0.0,0.0,0.0,0.0,0.0,0.0,0.0,0.0,-1.8379,0.0,0.0,0.0,-2.6187,-2.8147,-2.945,-3.082,-3.2254,-3.2182,-3.2424,-3.2939,-3.3068,-3.3124,-3.3124,-3.3124,-3.3382,-3.3935,-3.4487,-3.4824,-3.5068,-3.5065,-3.5063,-3.4993,-3.4402,-3.4233,-3.4384,-3.4162,-3.3878,-3.3507,-2.408,-2.3725,-2.3356,-2.2597,-2.4126,-2.5937,0.0,0.0,-3.0956,-3.2488,-3.3837,-3.5042,-3.6018,-3.6797,-3.706,-3.6531,-3.6204,-3.5812,-3.5239,-3.4542,0.0,0.0,-3.3043,-3.2662,-3.2174,0.0,0.0,0.0,0.0,-2.6341,-2.5773,-2.5362,-2.5155,-2.5178,-2.5888,-2.6628,-2.7469,-2.9619,-3.2102,-3.4876,-3.7939,-3.8667,-3.789,-3.7658,-3.7097,-3.6447,-3.6447,-3.6599,-3.6678,-3.5883,-3.574,-3.578,-3.4943,-3.4726,-3.463,-3.4126,-3.3959,-3.3671,-3.24,-3.1451,-3.0468,-2.904,0.0,0.0,0.0,0.0,-2.3919,0.0,0.0,0.0,0.0,0.0,0.0,-1.804,-1.6985,-1.5715,-1.401,0.0,0.0,0.0,0.0,0.0,0.0,0.0,-1.536,-1.6021,-1.7212,-1.8156,0.0,0.0,-2.3733,-2.4835,-2.666,-2.8605,-3.0725,-3.0964,-3.1617,-3.2673,-3.297,-3.3124,-3.3124,-3.3081,-3.3357,-3.3884,-3.4392,-3.4682,-3.4809,-3.5278,-3.5223,-3.4775,-3.4507,-3.436,-3.4335,-3.4162,-3.3706,-3.3178,-2.4032,-2.3783,-2.3879,-2.4482,-2.5684,-2.7318,0.0,0.0,0.0,0.0,-3.643,-3.7444,-3.7488,-3.8017,-3.8178,-3.7625,-3.698,0.0,0.0,0.0,0.0,-3.3653,-3.3334,-3.3137,-3.2995,-3.2011,0.0,-3.0769,0.0,-2.8166,-2.7163,-2.6331,-2.5831,-2.5643,-2.6046,-2.6782,-2.7911,-2.9183,-3.1543,-3.4721,-3.6663,-3.7297,0.0,0.0,-3.716,-3.6988,-3.6988,-3.6896,-3.6681,-3.5876,-3.5223,-3.4672,-3.3857,-3.3595,-3.361,-3.3705,-3.3303,-3.2727,-3.2017,-3.0812,-2.9546,-2.8473,-2.7386,-2.6469,0.0,0.0,0.0,0.0,0.0,0.0,0.0,0.0,0.0,-1.8879,-1.674,-1.4775,0.0,0.0,0.0,-1.3621,0.0,0.0,0.0,-1.4846,-1.5108,-1.5475,-1.6268,-1.7331,0.0,0.0,0.0,-2.4628,-2.6576,-2.8286,-2.9668,-3.0645,-3.1502,-3.2344,-3.2867,-3.3124,-3.3081,-3.2896,-3.2884,-3.3046,-3.3429,-3.3806,-3.4219,-3.4123,-3.4506,-3.5042,-3.4222,-3.3869,-3.3866,-3.3828,-3.3325,-3.2673,-2.5138,-2.4662,-2.4726,-2.6023,0.0,0.0,-3.0898,-3.2714,0.0,-3.6122,-3.766,0.0,-3.8198,-3.88,-3.8922,-3.8246,-3.7347,0.0,-3.6008,0.0,0.0,-3.4213,-3.4175,-3.4006,-3.3773,-3.335,0.0,-3.1856,0.0,-2.9254,-2.8222,-2.7142,-2.6553,-2.6431,-2.6553,-2.7035,-2.7789,-2.9765,-3.2103,-3.4626,-3.6427,0.0,0.0,-3.7441,-3.7488,-3.7343,-3.7343,-3.7302,-3.6979,-3.5899,-3.5115,-3.4399,-3.3334,-3.2876,-3.2684,-3.2711,-3.2419,-3.1959,-3.124,-3.0348,-2.9363,-2.8405,-2.7797,-2.7356,-2.7217,-2.7118,-2.6994,0.0,0.0,0.0,0.0,0.0,0.0,-1.8564,-1.6218,0.0,0.0,0.0,0.0,0.0,-1.3772,0.0,0.0,0.0,-1.4926,-1.5108,-1.5812,0.0,0.0,0.0,0.0,-2.3055,-2.4871,-2.6639,-2.8379,-2.9618,-3.0624,-3.1335,-3.2261,-3.2662,-3.2589,-3.2654,-3.2636,-3.2587,-3.301,-3.3281,-3.3509,-3.3835,-3.4241,-3.4631,-3.4186,-3.3952,-3.3878,-3.3729,-3.3183,-3.2454,-2.6489,-2.5746,-2.5673,0.0,0.0,0.0,0.0,-3.3552,0.0,-3.688,0.0,-3.9123,-3.8733,-3.932,-3.9394,-3.8567,0.0,-3.6754,-3.6444,-3.5509,-3.4918,-3.4849,-3.5057,-3.4941,-3.4516,-3.4525,-3.3977,0.0,0.0,-3.0042,-2.9144,-2.7911,-2.7247,-2.719,-2.7259,-2.7438,-2.7895,-3.0974,-3.3118,-3.4617,-3.6729,-3.7567,-3.7564,-3.7887,-3.7838,-3.7596,-3.7542,-3.7489,-3.7299,-3.5959,-3.5168,-3.4541,-3.3217,-3.248,-3.2002,-3.164,-3.1578,-3.1331,-3.0389,-2.9899,-2.9483,-2.8612,-2.8344,-2.8348,-2.8395,-2.8302,-2.8184,-2.811,-2.7229,-2.6218,0.0,0.0,0.0,-1.7895,0.0,0.0,0.0,0.0,0.0,0.0,0.0,0.0,0.0,0.0,0.0,-1.488,-1.5591,0.0,0.0,0.0,0.0,-2.1015,-2.2659,0.0,-2.6967,0.0,-2.951,-3.0152,-3.1526,-3.2101,-3.1916,-3.2432,-3.255,-3.2369,-3.2791,-3.2902,-3.281,-3.3744,-3.4063,-3.3994,-3.428,-3.4298,-3.4064,-3.3758,-3.314,-3.2425,-2.6043,-2.5729,-2.616,0.0,0.0,-3.2046,-3.4913,-3.7023,-3.8435,-3.8819,-4.0207,-4.0933,-4.0217,-4.0037,-3.9727,-3.9204,-3.8125,0.0,0.0,0.0,0.0,-3.5149,-3.4941,-3.4947,-3.5039,-3.5254,-3.4965,0.0,0.0,-3.1435,-2.9974,-2.8517,-2.7621,-2.7201,-2.7667,-2.8765,-3.0425,-3.2082,0.0,-3.4884,-3.657,-3.7244,-3.7304,-3.7834,-3.7838,-3.7542,-3.7304,-3.7036,-3.6738,-3.5864,-3.5207,-3.4488,-3.3223,-3.2578,-3.2164,-3.1503,-3.1281,-3.1049,-3.0075,-2.9489,-2.9017,-2.8442,-2.8201,-2.8149,-2.8348,-2.883,-2.9125,-2.869,-2.8109,-2.7417,-2.6487,0.0,0.0,0.0,0.0,0.0,0.0,0.0,0.0,0.0,0.0,0.0,0.0,0.0,0.0,0.0,0.0,0.0,0.0,0.0,0.0,0.0,0.0,0.0,0.0,0.0,0.0,-2.9903,-3.1433,-3.2101,-3.1916,-3.2272,-3.23,-3.2081,-3.199,-3.2204,-3.256,-3.2741,-3.3191,-3.3791,-3.4231,-3.4298,-3.4028,-3.3545,-3.2992,-3.2417,-2.8233,0.0,-2.856,0.0,0.0,0.0,0.0,-3.9052,0.0,-4.0156,-4.121,-4.1671,-4.0785,-4.0806,-4.0605,-3.9981,-3.9159,-3.846,-3.8078,-3.7373,-3.6846,-3.6631,-3.6226,0.0,-3.5806,-3.6107,-3.5848,-3.5,0.0,0.0,-3.1217,-2.9558,-2.8494,-2.8012,-2.8668,-2.9942,0.0,0.0,0.0,-3.5737,-3.6771,-3.736,-3.7625,-3.789,-3.772,-3.7316,-3.7143,-3.6862,-3.6394,-3.5905,-3.5372,-3.469,-3.3632,-3.2924,-3.2265,-3.1556,-3.1164,-3.0824,-2.9926,-2.953,-2.9195,-2.8453,-2.8348,-2.8354,-2.8402,-2.8757,-2.903,-2.8655,-2.8354,-2.776,-2.6334,-2.3931,0.0,0.0,0.0,0.0,0.0,0.0,0.0,0.0,0.0,0.0,0.0,0.0,0.0,0.0,0.0,0.0,0.0,0.0,0.0,0.0,0.0,0.0,0.0,0.0,0.0,-2.9442,-3.119,-3.1861,-3.1546,-3.2012,-3.2081,-3.1849,-3.1749,-3.1862,-3.2094,-3.2382,-3.2867,-3.3504,-3.3744,-3.3744,-3.3624,-3.3232,-3.2747,-3.2228,-3.0651,-3.0552,0.0,0.0,-3.4127,0.0,-3.8377,-4.028,-4.1409,-4.118,-4.1873,-4.2103,-4.1392,-4.1531,-4.1379,-4.0752,-4.0001,-3.9498,-3.9276,-3.8584,-3.8182,-3.8182,-3.7578,-3.712,-3.6838,-3.6943,-3.6611,0.0,0.0,0.0,0.0,-3.072,-2.9846,0.0,0.0,0.0,0.0,0.0,-3.5081,-3.6525,-3.6988,-3.7455,-3.7826,-3.7826,-3.7507,-3.7024,-3.7024,-3.67,-3.6266,-3.6004,-3.5579,-3.5131,-3.4315,-3.3459,-3.2575,-3.1888,-3.1335,-3.0794,-3.0104,-2.9874,-2.957,-2.8806,-2.8665,-2.8652,-2.8443,-2.8553,-2.8659,-2.8435,-2.8239,-2.7612,-2.5979,-2.413,0.0,0.0,0.0,0.0,0.0,0.0,0.0,0.0,0.0,0.0,0.0,0.0,0.0,0.0,0.0,0.0,0.0,0.0,0.0,0.0,0.0,-2.3051,-2.5594,0.0,-2.87,0.0,-3.0956,-3.1607,-3.1217,-3.1751,-3.1893,-3.1705,-3.1705,-3.1705,-3.1753,-3.2274,-3.2743,-3.3128,-3.3248,-3.3284,-3.3272,-3.2932,-3.2563,-3.2124,0.0,0.0,0.0,0.0,0.0,0.0,-3.9279,-4.1015,-4.2137,-4.207,-4.2559,-4.2873,-4.2823,-4.1935,-4.133,-4.1225,-4.0219,-3.9609,-3.9554,-3.9284,-3.9082,-3.9082,-3.8284,-3.7934,-3.8238,-3.7774,-3.7251,0.0,0.0,0.0,0.0,0.0,0.0,0.0,0.0,0.0,0.0,-3.5539,-3.6145,-3.6787,-3.7021,-3.7138,-3.7185,-3.7185,-3.7024,-3.6754,-3.6754,-3.6538,-3.632,-3.6266,-3.6025,-3.5649,-3.5131,-3.4409,-3.3565,-3.2575,-3.1949,-3.1414,-3.0877,-3.0404,-2.9992,-2.9644,-2.913,-2.8652,-2.8378,-2.8375,-2.843,-2.8387,-2.7731,-2.6853,-2.6032,-2.4851,-2.3574,0.0,0.0,0.0,0.0,0.0,0.0,0.0,0.0,0.0,0.0,0.0,0.0,0.0,0.0,0.0,0.0,0.0,0.0,-1.9333,0.0,-2.3454,-2.5594,-2.7711,0.0,-2.9116,-3.0778,-3.1437,-3.1217,-3.1751,-3.1893,-3.1705,-3.1705,-3.1705,-3.1753,-3.2274,-3.2527,-3.2623,-3.3104,-3.3284,-3.3236,-3.2709,-3.2493,-3.2385,0.0,0.0,0.0,0.0,0.0,0.0,0.0,-4.1234,-4.2106,-4.261,-4.2891,-4.2974,-4.2974,-4.2295,-4.1778,-4.1778,-4.0616,-4.0042,-4.0535,-3.9734,-3.9419,-3.9898,-3.9284,-3.8854,-3.8653,-3.8449,-3.8066,0.0,0.0,0.0,0.0,0.0,0.0,0.0,0.0,-3.4912,-3.5982,-3.6316,-3.6799,-3.7245,-3.7168,-3.7078,-3.7078,-3.7078,-3.6916,-3.67,-3.67,-3.6538,-3.622,-3.5921,-3.5808,-3.5763,-3.5406,-3.4506,-3.3559,-3.299,-3.223,-3.1476,-3.0931,-3.0637,-3.0384,-2.9844,-2.9497,-2.9176,-2.8644,-2.8562,-2.8492,-2.8203,-2.7523,-2.679,-2.6246,-2.5185,-2.4054,0.0,0.0,0.0,0.0,0.0,0.0,0.0,0.0,0.0,0.0,0.0,0.0,0.0,0.0,0.0,0.0,0.0,0.0,-1.9833,0.0,-2.3535,-2.6335,-2.7708,-2.8986,-3.0179,-3.1278,-3.1697,-3.1491,-3.1709,-3.1761,-3.1705,-3.1705,-3.1705,-3.1729,-3.1946,-3.1997,-3.2022,-3.2271,-3.2355,-3.2286,-3.2082,-3.1997,-3.1973,-3.6912,0.0,-3.6965,0.0,-3.8191,-3.9157,-4.0851,-4.1593,-4.2202,-4.2924,-4.2974,-4.2974,-4.2974,-4.2494,-4.211,-4.211,-4.0805,-4.0335,-4.1148,-4.0105,-3.9786,-4.0607,-4.0114,0.0,-3.9068,-3.89,-3.8551,-3.7986,-3.7443,0.0,0.0,0.0,0.0,0.0,-3.5511,-3.6234,-3.6892,-3.6987,-3.7263,-3.7542,-3.7251,-3.7078,-3.7078,-3.7078,-3.6916,-3.67,-3.67,-3.6445,-3.599,-3.5634,-3.5389,-3.5247,-3.5138,-3.4339,-3.3382,-3.3076,-3.2378,-3.1618,-3.1075,-3.0931,-3.0742,-3.0065,-2.9824,-2.9509,-2.8849,-2.8553,-2.8332,-2.7905,-2.7253,-2.67,-2.634,-2.5484,-2.4607,-2.4016,0.0,0.0,0.0,0.0,0.0,0.0,-1.9317,-1.9156,-1.7897,0.0,0.0,0.0,0.0,0.0,0.0,0.0,0.0,0.0,0.0,0.0,0.0,-2.792,-2.9177,-3.0651,-3.1523,-3.1849,-3.1805,-3.1805,-3.1761,-3.1705,-3.1705,-3.1705,-3.1705,-3.1705,-3.1705,-3.1705,-3.1705,-3.1705,-3.1705,-3.1705,-3.1705,-3.1705,-3.7581,-3.8003,-3.8437,-3.8712,-3.9873,-4.0991,-4.1582,-4.2165,-4.2625,-4.2974,-4.2974,-4.2974,-4.2974,-4.2494,-4.211,-4.211,-4.0805,-4.0335,-4.1148,-4.0452,-4.0335,0.0,0.0,-4.0138,-3.9609,-3.908,-3.8551,-3.7986,0.0,0.0,-3.6054,0.0,-3.5827,-3.678,-3.7064,-3.7469,-3.7962,-3.7679,-3.7596,-3.7542,-3.7251,-3.7078,-3.7078,-3.7078,-3.6916,-3.67,-3.67,-3.6214,-3.5531,-3.552,-3.4827,-3.3955,-3.4313,-3.3858,-3.3153,-3.2905,-3.2424,-3.1874,-3.1322,-3.1178,-3.1075,-3.0547,-3.0034,-2.9522,-2.8761,-2.8255,-2.78,-2.7403,-2.6936,-2.6516,-2.6229,-2.5857,-2.5422,-2.4947,0.0,0.0,0.0,0.0,0.0,0.0,-2.0864,-2.0478,-1.8668,0.0,0.0,0.0,0.0,0.0,0.0,0.0,0.0,-2.0924,-2.2618,0.0,-2.6873,-2.8498,-2.9556,-3.011,-3.1199,-3.1805,-3.1994,-3.1994,-3.1893,-3.1705,-3.1705,-3.1705,-3.1705,-3.1705,-3.1705,-3.1705,-3.1705,-3.1705,-3.1705,-3.1705,-3.1705,-3.1705,-3.948,-3.9581,-3.9717,-4.0141,-4.0739,-4.1274,-4.165,-4.2177,-4.2638,-4.2986,-4.2974,-4.2974,-4.2974,-4.2638,-4.2312,0.0,-4.0963,-4.0538,0.0,-4.0464,-4.0347,-4.116,-4.1028,-4.0679,-4.0162,-3.9621,-3.9092,-3.8551,0.0,0.0,0.0,-3.668,-3.6776,-3.71,-3.7512,-3.7829,-3.7986,-3.7691,-3.7596,-3.7542,-3.7251,-3.7078,-3.7078,-3.7078,-3.7024,-3.697,-3.697,-3.6482,-3.5804,-3.5433,-3.4554,-3.3684,-3.3458,-3.3059,-3.2633,-3.254,-3.2178,-3.1669,-3.1281,-3.1178,-3.1127,-3.0765,-3.0555,-3.0238,-2.9344,-2.8543,-2.7931,-2.7794,-2.7505,-2.7274,-2.7214,-2.6711,-2.6365,-2.653,0.0,0.0,0.0,0.0,0.0,0.0,-2.1524,-2.1487,0.0,-2.137,0.0,0.0,0.0,0.0,0.0,0.0,0.0,0.0,-2.4012,0.0,-2.7993,-2.8871,-2.9749,-3.0681,-3.1511,-3.2025,-3.2257,-3.2081,-3.1994,-3.1893,-3.1761,-3.1705,-3.1705,-3.1705,-3.1705,-3.1705,-3.1705,-3.1705,-3.1705,-3.1705,-3.1805,-3.1893,-4.0413,-4.0464,-4.0562,-4.1109,-4.1447,-4.1706,-4.196,-4.2302,-4.2638,-4.2986,-4.2974,-4.2974,-4.2974,-4.2806,0.0,-4.2268,-4.1245,-4.0821,-4.1308,-4.061,-4.0437,-4.116,-4.1184,-4.0944,-4.0403,0.0,0.0,-3.9116,-3.8563,-3.813,-3.7793,-3.7589,-3.7493,-3.7505,-3.7829,-3.7986,-3.7986,-3.7838,-3.7744,-3.7744,-3.7507,-3.7453,-3.7453,-3.7453,-3.7411,-3.7304,-3.7304,-3.6697,-3.5777,-3.549,-3.4548,-3.357,-3.3273,-3.2932,-3.2668,-3.2513,-3.2189,-3.1885,-3.1578,-3.1527,-3.1424,-3.1178,-3.1075,-3.0828,-2.9923,-2.8956,-2.8269,-2.8269,-2.8128,-2.7989,-2.7987,-2.765,-2.7458,-2.755,-2.7167,-2.664,-2.6005,0.0,0.0,0.0,0.0,0.0,0.0,-2.2604,0.0,0.0,0.0,0.0,0.0,0.0,0.0,-2.439,-2.5396,0.0,-2.8913,-2.9504,-3.0176,-3.1039,-3.1845,-3.23,-3.2388,-3.2213,-3.2081,-3.1994,-3.1805,-3.1705,-3.1705,-3.1705,-3.1705,-3.1705,-3.1705,-3.1705,-3.1705,-3.1793,-3.1893,-3.1994,-4.0463,-4.0802,0.0,0.0,-4.1978,0.0,-4.2525,-4.2513,-4.2638,-4.2974,-4.2974,-4.2974,-4.2974,-4.2974,-4.2862,-4.2581,0.0,0.0,0.0,-4.0906,-4.0688,-4.1218,-4.1184,-4.0956,-4.0463,-4.0415,-4.0138,-3.9609,-3.908,-3.8815,-3.8803,-3.825,-3.7986,-3.7986,-3.7986,-3.7986,-3.7986,-3.7986,-3.7986,-3.7986,-3.7986,-3.7986,-3.7986,-3.7986,-3.7838,-3.7649,-3.7649,-3.6748,-3.5631,-3.5631,-3.4746,-3.3645,-3.3645,-3.3446,-3.3147,-3.2645,-3.2493,-3.2443,-3.2128,-3.2015,-3.1964,-3.1721,-3.1626,-3.1341,-3.0466,-2.9493,-2.8771,-2.8817,-2.8817,-2.8732,-2.8565,-2.8724,-2.8697,-2.8184,-2.8365,-2.8187,-2.693,0.0,0.0,0.0,0.0,0.0,0.0,-2.3254,-2.4128,0.0,0.0,0.0,0.0,0.0,-2.4071,-2.6015,-2.6738,-2.7945,-2.9682,-3.0217,-3.075,-3.129,-3.2247,-3.2593,-3.2444,-3.2388,-3.2257,-3.2038,-3.1805,-3.1705,-3.1705,-3.1705,-3.1705,-3.1705,-3.1705,-3.1705,-3.1705,-3.195,-3.1994,-3.2081,0.0,0.0,-4.2078,-4.2574,-4.2718,-4.2818,-4.2862,-4.2862,-4.2918,-4.2974,-4.2974,-4.2974,-4.2974,-4.2974,-4.2974,-4.2862,-4.2413,-4.2051,-4.1972,-4.1554,-4.1359,-4.1492,-4.1287,-4.1124,-4.1004,-4.0595,-4.0138,-3.9609,-3.908,-3.8815,-3.8803,-3.825,-3.7986,-3.7986,-3.7986,-3.7986,-3.7986,-3.7986,-3.7986,-3.7986,-3.7986,-3.7986,-3.7986,-3.7986,-3.7986,-3.788,-3.788,-3.7039,-3.5888,-3.5888,-3.5061,-3.3965,-3.3965,-3.3915,-3.3717,-3.2958,-3.2757,-3.2706,-3.2443,-3.2392,-3.2392,-3.2291,-3.1722,-3.1109,-3.108,-3.0308,-2.9634,-2.9806,-2.984,-2.9897,-3.0055,-2.98,-2.9427,-2.9102,-2.8862,-2.8158,-2.6708,-2.5818,0.0,0.0,-2.4126,-2.4196,-2.436,-2.5497,-2.641,0.0,0.0,0.0,0.0,0.0,-2.6343,-2.6738,-2.7695,-2.8716,-2.9694,-3.0217,-3.1028,-3.2104,-3.2531,-3.2766,-3.2909,-3.2562,-3.2356,-3.2257,-3.1893,-3.1705,-3.1705,-3.1705,-3.1705,-3.1705,-3.1705,-3.1705,-3.1705,-3.195,-3.2125,-3.23,-4.1555,-4.1957,-4.2389,-4.2942,-4.2974,-4.2974,-4.2974,-4.2974,-4.2974,-4.2974,-4.2974,-4.2974,-4.2974,-4.2974,-4.2974,-4.2974,-4.2806,-4.2581,-4.2312,-4.2029,-4.1789,-4.1606,-4.1344,-4.1184,-4.1184,-4.0896,-4.0619,-4.0331,-3.9789,-3.9417,-3.9164,-3.8623,-3.8226,-3.7986,-3.7986,-3.7986,-3.7986,-3.7986,-3.7986,-3.7986,-3.7986,-3.7986,-3.7986,-3.7986,-3.7986,-3.7986,-3.7986,-3.7196,-3.6195,-3.6195,-3.5401,-3.4408,-3.4408,-3.4408,-3.4261,-3.3618,-3.3308,-3.317,-3.3058,-3.2958,-3.2869,-3.2869,-3.2097,-3.1397,-3.1588,-3.0915,-3.0284,-3.051,-3.0556,-3.0601,-3.0781,-3.0547,-3.0241,-2.9856,-2.9253,-2.8424,-2.7108,-2.5885,0.0,-2.4618,-2.4513,-2.465,-2.5111,-2.6337,-2.734,-2.7799,0.0,0.0,-2.8298,-2.8145,-2.797,-2.7783,-2.8579,-2.9371,-3.0102,-3.0735,-3.1516,-3.24,-3.2593,-3.2853,-3.3068,-3.2605,-3.24,-3.2344,-3.1893,-3.1705,-3.1705,-3.1705,-3.1705,-3.1705,-3.1705,-3.1705,-3.1749,-3.2081,-3.2257,-3.2388,-4.2024,-4.2275,-4.2476,-4.2898,-4.2974,-4.2974,-4.2974,-4.2974,-4.2974,-4.2974,-4.2974,-4.2974,-4.2974,-4.2974,-4.2974,-4.2974,-4.2974,-4.2862,-4.2569,-4.2268,-4.1984,-4.1663,-4.1344,-4.1184,-4.1184,-4.1184,-4.1184,-4.1184,-4.0655,-4.0126,-3.9597,-3.9068,-3.8515,-3.7986,-3.7986,-3.7986,-3.7986,-3.7986,-3.7986,-3.7986,-3.8039,-3.8039,-3.7986,-3.8039,-3.8039,-3.7986,-3.7986,-3.7348,-3.6519,-3.6435,-3.5761,-3.4931,-3.4859,-3.4775,-3.4726,-3.4261,-3.3977,-3.3729,-3.3679,-3.3481,-3.3281,-3.3281,-3.2607,-3.1918,-3.2134,-3.1472,-3.0851,-3.1029,-3.1062,-3.1017,-3.1029,-3.0984,-3.0808,-3.0203,-2.9444,-2.8545,-2.7578,0.0,-2.5035,-2.4986,-2.4831,-2.4949,-2.5492,-2.6662,-2.7575,-2.81,-2.8283,0.0,0.0,-2.8925,-2.8943,-2.8783,-2.9332,-2.9937,-3.0566,-3.135,-3.193,-3.2423,-3.2673,-3.2941,-3.3245,-3.2765,-3.2553,-3.2423,-3.2015,-3.1789,-3.1705,-3.1705,-3.1705,-3.1705,-3.1705,-3.1705,-3.1749,-3.2169,-3.2356,-3.2344,-4.2175,-4.259,-4.2873,-4.2961,-4.2974,-4.2974,-4.2974,-4.2974,-4.2974,-4.2974,-4.2974,-4.2974,-4.2974,-4.2974,-4.2974,-4.2974,-4.2974,-4.2974,-4.2918,-4.2437,-4.2098,-4.2041,-4.1471,-4.1184,-4.1184,-4.1184,-4.1184,-4.1184,-4.0655,-4.0126,-3.9597,-3.9068,-3.8515,-3.7986,-3.7986,-3.7986,-3.7986,-3.7986,-3.7986,-3.8039,-3.825,-3.8198,-3.8027,-3.825,-3.8198,-3.7986,-3.7986,-3.7589,-3.7,-3.6555,-3.6002,-3.5425,-3.4919,-3.4775,-3.4738,-3.4433,-3.4211,-3.3927,-3.3481,-3.3331,-3.3281,-3.3281,-3.3019,-3.2645,-3.2476,-3.2135,-3.175,-3.1356,-3.1261,-3.1184,-3.1017,-3.0984,-3.0674,-2.9762,-2.8646,-2.7643,-2.6852,0.0,-2.506,-2.564,-2.5858,-2.6223,-2.69,-2.7525,-2.8115,-2.8648,-2.8516,-2.8465,-2.8712,-2.8757,-2.8846,-2.9034,-2.9702,-3.0283,-3.0623,-3.135,-3.1978,-3.2469,-3.293,-3.3399,-3.3843,-3.357,-3.3177,-3.2706,-3.2494,-3.2106,-3.1705,-3.1705,-3.1705,-3.1705,-3.1705,-3.1705,-3.1705,-3.1981,-3.2081,-3.2081,-4.259,-4.2798,-4.2974,-4.2974,-4.2974,-4.2974,-4.2974,-4.2974,-4.2974,-4.2974,-4.2974,-4.2974,-4.2974,-4.2974,-4.2918,-4.275,-4.275,-4.2638,-4.2538,-4.2268,-4.2041,-4.1859,-4.1414,-4.1184,-4.1184,-4.1184,-4.1184,-4.1184,-4.0944,-4.0547,-4.0018,-3.9489,-3.8948,-3.8419,-3.8118,-3.8092,-3.8198,-3.8198,-3.8303,-3.8461,-3.8579,-3.8514,-3.8461,-3.8566,-3.8461,-3.8198,-3.8198,-3.7807,-3.712,-3.6579,-3.605,-3.5521,-3.4943,-3.4775,-3.4738,-3.4347,-3.4064,-3.3779,-3.3431,-3.3431,-3.353,-3.353,-3.3322,-3.3109,-3.3137,-3.2592,-3.2019,-3.177,-3.1496,-3.1217,-3.1017,-3.0748,-3.0429,-2.9962,-2.8722,0.0,0.0,-2.6032,-2.5424,-2.5967,-2.6001,-2.6333,-2.721,-2.7715,-2.8139,-2.8581,-2.8606,-2.867,-2.8739,-2.8876,-2.9058,-2.9331,-2.9863,-3.0352,-3.0623,-3.1083,-3.1714,-3.25,-3.2828,-3.3346,-3.401,-3.3722,-3.3451,-3.3196,-3.2702,-3.2358,-3.2094,-3.1837,-3.1705,-3.1705,-3.1705,-3.1705,-3.1705,-3.195,-3.1994,-3.2038,-4.2898,-4.2974,-4.2974,-4.2974,-4.2974,-4.2974,-4.2974,-4.2974,-4.2974,-4.2974,-4.2974,-4.2974,-4.2974,-4.2918,-4.2806,-4.2525,-4.2413,-4.2312,-4.1972,-4.2041,-4.1984,-4.172,-4.1516,-4.1357,-4.1287,-4.1287,-4.123,-4.1184,-4.1184,-4.0965,-4.0491,-4.0081,-3.9551,-3.902,-3.8584,-3.8424,-3.8461,-3.8461,-3.8631,-3.8788,-3.8893,-3.8893,-3.8788,-3.8893,-3.8736,-3.8461,-3.8409,-3.7984,-3.738,-3.6627,-3.6134,-3.5689,-3.504,-3.4775,-3.4738,-3.431,-3.3965,-3.3729,-3.3481,-3.353,-3.3729,-3.3779,-3.3648,-3.3562,-3.366,-3.3101,-3.247,-3.2247,-3.1762,-3.1305,-3.0968,-3.0489,-3.0091,-2.9943,0.0,0.0,0.0,-2.6449,-2.5752,-2.6166,-2.6158,-2.6445,-2.7278,-2.782,-2.8243,-2.8535,-2.8757,-2.8896,-2.8943,-2.9035,-2.9174,-2.9393,-2.9943,-3.0352,-3.0623,-3.0883,-3.1516,-3.2589,-3.2783,-3.3363,-3.4193,-3.3948,-3.3829,-3.3742,-3.3003,-3.2656,-3.2521,-3.1934,-3.1705,-3.1705,-3.1705,-3.1705,-3.1705,-3.1893,-3.195,-3.195,-4.2974,-4.2974,-4.2974,-4.2974,-4.2974,-4.2974,-4.2974,-4.2974,-4.2974,-4.2974,-4.2974,-4.2974,-4.2974,-4.275,-4.2525,-4.2525,-4.2256,-4.1972,-4.1663,-4.1915,-4.211,-4.2041,-4.2041,-4.1859,-4.1606,-4.1549,-4.1447,-4.1184,-4.1184,-4.1067,-4.0748,-4.0711,-4.033,-3.9635,-3.9586,-3.9279,-3.8788,-3.8788,-3.8788,-3.8841,-3.9154,-3.905,-3.8841,-3.9154,-3.905,-3.8736,-3.8461,-3.8332,-3.8149,-3.685,-3.6374,-3.617,-3.5148,-3.4775,-3.4726,-3.4433,-3.4249,-3.4026,-3.3729,-3.3679,-3.3779,-3.4026,-3.4176,-3.4206,-3.3791,-3.3756,-3.3588,-3.2677,-3.2065,-3.147,-3.0777,-3.0227,-2.9748,-2.9266,0.0,0.0,-2.7313,-2.6484,-2.596,-2.6166,-2.6773,-2.7268,-2.7536,-2.8066,-2.8581,-2.8989,-2.9082,-2.9174,-2.9439,-2.922,-2.9128,-2.9128,-2.9806,-3.0352,-3.0623,-3.0883,-3.1648,-3.2851,-3.3119,-3.38,-3.4764,-3.4715,-3.4595,-3.4288,-3.3546,-3.3061,-3.2698,-3.2011,-3.1705,-3.1705,-3.1705,-3.1705,-3.1705,-3.1705,-3.1705,-3.1705,-4.2974,-4.2974,-4.2974,-4.2974,-4.2974,-4.2974,-4.2974,-4.2974,-4.2918,-4.2694,-4.2862,-4.2874,-4.2481,-4.2481,-4.2356,-4.1948,-4.1846,-4.1675,-4.139,-4.1618,-4.1859,-4.211,-4.211,-4.1915,-4.1606,-4.1606,-4.1447,-4.1184,-4.139,-4.1395,-4.129,-4.1155,-4.0783,-4.0168,-3.9836,-3.9488,-3.9102,-3.9102,-3.9218,-3.9374,-3.9478,-3.9478,-3.9374,-3.9478,-3.9374,-3.9102,-3.8998,-3.8736,-3.8247,-3.7454,-3.6828,-3.6278,-3.5545,-3.5088,-3.4726,-3.4482,-3.4249,-3.4125,-3.4101,-3.415,-3.415,-3.4249,-3.4494,-3.4581,-3.4438,-3.4186,-3.3791,-3.3149,-3.23,-3.1483,-3.074,-3.0065,-2.9542,-2.9174,0.0,-2.7955,-2.7746,-2.7165,-2.6806,-2.6888,-2.7111,-2.7441,-2.7809,-2.8337,-2.8757,-2.9082,-2.9255,-2.9312,-2.9266,-2.9035,-2.8989,-2.9082,-2.9531,-2.9943,-3.0352,-3.0781,-3.1626,-3.291,-3.3179,-3.3825,-3.4775,-3.4775,-3.4824,-3.4823,-3.3739,-3.3303,-3.3196,-3.2143,-3.1705,-3.1705,-3.1705,-3.1705,-3.1705,-3.1705,-3.1705,-3.1705,-4.2974,-4.2974,-4.2974,-4.2974,-4.2974,-4.2974,-4.2974,-4.2974,-4.2862,-4.2513,-4.2806,-4.2806,-4.2268,-4.2356,-4.23,-4.1789,-4.1663,-4.1492,-4.1344,-4.1663,-4.2017,-4.2211,-4.2324,-4.2256,-4.1891,-4.1891,-4.1732,-4.1471,-4.1688,-4.1777,-4.1879,-4.1761,-4.133,-4.0748,-4.0364,-3.9901,-3.9426,-3.9426,-3.953,-3.9697,-3.9697,-3.9697,-3.9697,-3.9697,-3.9594,-3.9413,-3.9322,-3.905,-3.8598,-3.7852,-3.71,-3.6416,-3.5785,-3.5256,-3.4775,-3.458,-3.4445,-3.4359,-3.4482,-3.4531,-3.4531,-3.4531,-3.4677,-3.4775,-3.4775,-3.445,-3.3994,-3.3608,-3.2758,-3.1821,-3.1014,-3.029,-2.9711,-2.9289,-2.8896,-2.8524,-2.8279,-2.7809,-2.7536,-2.7536,-2.7536,-2.7678,-2.8092,-2.8513,-2.8896,-2.9082,-2.9255,-2.9255,-2.9035,-2.8896,-2.8803,-2.8896,-2.9117,-2.9485,-2.9988,-3.0589,-3.1569,-3.291,-3.3074,-3.3766,-3.4775,-3.4775,-3.4932,-3.5126,-3.4004,-3.3568,-3.3511,-3.2433,-3.1862,-3.1705,-3.1705,-3.1705,-3.1705,-3.1705,-3.1705,-3.1705,-4.2974,-4.2974,-4.2974,-4.2974,-4.2974,-4.2974,-4.2974,-4.2974,-4.2862,-4.2513,-4.2806,-4.2862,-4.2513,-4.2525,-4.2356,-4.2098,-4.1789,-4.1606,-4.1594,-4.2174,-4.2525,-4.2525,-4.2806,-4.2862,-4.2525,-4.2525,-4.2369,-4.211,-4.211,-4.2268,-4.2525,-4.2525,-4.2052,-4.1288,-4.1288,-4.0674,-3.9697,-3.9697,-3.9697,-3.9697,-3.9697,-3.9697,-3.9697,-3.9697,-3.9697,-3.9645,-3.9426,-3.931,-3.9131,-3.8008,-3.7266,-3.6668,-3.5823,-3.5256,-3.4775,-3.4775,-3.4775,-3.4775,-3.4775,-3.4775,-3.4775,-3.4775,-3.4775,-3.4775,-3.4775,-3.458,-3.4347,-3.4125,-3.3445,-3.2582,-3.1581,-3.0963,-3.0348,-2.9621,-2.9266,-2.9035,-2.885,-2.8326,-2.7998,-2.7998,-2.7998,-2.8092,-2.8395,-2.8617,-2.8896,-2.9082,-2.9082,-2.8989,-2.8803,-2.8803,-2.8664,-2.8395,-2.8664,-2.9024,-2.9485,-3.0204,-3.1363,-3.291,-3.291,-3.3553,-3.4775,-3.4775,-3.4932,-3.515,-3.4366,-3.3835,-3.3548,-3.281,-3.2178,-3.1717,-3.1705,-3.1705,-3.1705,-3.1705,-3.1705,-3.1705,-4.3295,-4.3129,-4.2974,-4.2974,-4.2974,-4.2974,-4.2974,-4.2974,-4.2862,-4.2513,-4.2806,-4.2806,-4.2268,-4.2356,-4.2356,-4.2098,-4.2041,-4.2029,-4.2231,-4.2413,-4.2581,-4.2862,-4.2974,-4.2862,-4.2525,-4.2525,-4.2369,-4.211,-4.2312,-4.2413,-4.2525,-4.275,-4.2286,-4.1288,-4.1288,-4.0674,-3.9697,-3.9697,-3.9697,-3.9697,-3.9697,-3.9697,-3.9697,-3.9697,-3.9697,-3.9697,-3.9594,-3.9478,-3.9233,-3.8916,-3.7878,-3.6607,-3.539,-3.4907,-3.4775,-3.4775,-3.4775,-3.4775,-3.4775,-3.4775,-3.4775,-3.4775,-3.4775,-3.4775,-3.4775,-3.458,-3.4347,-3.4125,-3.3445,-3.2674,-3.2013,-3.1179,-3.0461,-3.0103,-2.95,-2.9035,-2.885,-2.8477,-2.8196,-2.8045,-2.8149,-2.829,-2.8395,-2.8617,-2.8803,-2.8896,-2.871,-2.8581,-2.8535,-2.8149,-2.8008,-2.8139,-2.8186,-2.8373,-2.871,-2.9646,-3.0882,-3.2347,-3.2536,-3.3268,-3.4531,-3.4726,-3.4932,-3.515,-3.4366,-3.404,-3.407,-3.2955,-3.2406,-3.2214,-3.1862,-3.1705,-3.1705,-3.1705,-3.1705,-3.1705,-4.3449,-4.3295,-4.3141,-4.303,-4.2974,-4.2974,-4.2974,-4.2974,-4.2862,-4.2513,-4.2806,-4.2806,-4.2312,-4.2525,-4.2581,-4.2256,-4.2256,-4.2312,-4.2469,-4.2638,-4.2806,-4.2974,-4.2974,-4.2918,-4.2694,-4.2694,-4.2638,-4.2494,-4.2638,-4.2694,-4.2694,-4.2918,-4.2396,-4.1288,-4.1288,-4.0674,-3.9697,-3.9697,-3.9697,-3.9697,-3.9697,-3.9697,-3.9697,-3.9697,-3.9697,-3.9697,-3.9697,-3.9594,-3.9426,-3.9322,-3.8167,-3.662,-3.5622,-3.5052,-3.4775,-3.4775,-3.4775,-3.4823,-3.5088,-3.5148,-3.5196,-3.54,-3.5087,-3.4775,-3.4677,-3.4433,-3.4211,-3.3977,-3.3461,-3.2877,-3.2377,-3.1743,-3.1228,-3.0963,-3.0218,-2.9602,-2.9427,-2.8935,-2.8477,-2.8326,-2.8384,-2.8395,-2.8395,-2.8535,-2.8617,-2.8466,-2.8243,-2.8066,-2.8066,-2.7952,-2.7952,-2.8095,-2.8322,-2.8514,-2.8812,-2.9383,-3.0382,-3.1683,-3.1969,-3.2838,-3.4237,-3.4531,-3.4775,-3.5005,-3.4547,-3.4282,-3.4171,-3.3198,-3.2695,-3.2442,-3.1934,-3.1705,-3.1705,-3.1705,-3.1705,-3.1705,-4.3517,-4.3449,-4.3338,-4.3085,-4.303,-4.303,-4.303,-4.303,-4.2918,-4.2638,-4.2806,-4.2862,-4.2581,-4.2806,-4.2862,-4.2581,-4.2513,-4.2513,-4.2513,-4.2806,-4.2974,-4.2974,-4.2974,-4.2974,-4.2974,-4.2974,-4.2974,-4.2974,-4.2974,-4.2974,-4.2974,-4.2974,-4.2396,-4.1288,-4.1288,-4.0674,-3.9697,-3.9697,-3.9697,-3.9697,-3.9697,-3.9697,-3.9697,-3.9697,-3.9697,-3.9697,-3.9697,-3.9697,-3.9633,-3.9312,-3.8218,-3.6792,-3.6282,-3.5501,-3.4847,-3.4847,-3.4847,-3.4967,-3.5545,-3.5689,-3.5797,-3.623,-3.5567,-3.4749,-3.4504,-3.4284,-3.4026,-3.3779,-3.3481,-3.3181,-3.2699,-3.2609,-3.2437,-3.1999,-3.1245,-3.0633,-3.0467,-2.9595,-2.8981,-2.8981,-2.8701,-2.8524,-2.8524,-2.8477,-2.8325,-2.8031,-2.7804,-2.7662,-2.7709,-2.8118,-2.8348,-2.8348,-2.8757,-2.9076,-2.9314,-2.9314,-2.9867,-3.0983,-3.1261,-3.2305,-3.3941,-3.4237,-3.4531,-3.4787,-3.4775,-3.4535,-3.4006,-3.3535,-3.3017,-3.2488,-3.1934,-3.1705,-3.1705,-3.1717,-3.1705,-3.1705,-4.4136,-4.3738,-4.3394,-4.3338,-4.3129,-4.3085,-4.3295,-4.3129,-4.303,-4.3172,-4.3085,-4.2974,-4.2918,-4.2974,-4.2974,-4.2918,-4.2862,-4.2862,-4.2862,-4.2974,-4.2974,-4.2974,-4.2974,-4.2974,-4.2974,-4.2974,-4.2974,-4.2974,-4.2974,-4.2974,-4.2974,-4.2974,-4.2396,-4.1288,-4.1288,-4.0674,-3.9697,-3.9697,-3.9697,-3.9697,-3.9697,-3.9697,-3.9697,-3.9697,-3.9697,-3.9697,-3.9697,-3.9697,-3.957,-3.8927,-3.8271,-3.7621,-3.6391,-3.5743,-3.5449,-3.5449,-3.5449,-3.5557,-3.6086,-3.623,-3.6158,-3.5857,-3.5418,-3.5089,-3.5039,-3.4544,-3.4026,-3.3779,-3.363,-3.3595,-3.3479,-3.3254,-3.3073,-3.2968,-3.2154,-3.1498,-3.1462,-3.0729,-3.0219,-3.0219,-2.9807,-2.9516,-2.9494,-2.8957,-2.8476,-2.819,-2.809,-2.8179,-2.8367,-2.846,-2.8522,-2.8522,-2.8616,-2.8717,-2.8757,-2.8757,-2.9483,-3.0932,-3.118,-3.2047,-3.3481,-3.3904,-3.4237,-3.4482,-3.4726,-3.4619,-3.429,-3.3756,-3.3326,-3.2971,-3.2244,-3.1937,-3.1906,-3.1761,-3.1705,-3.1705,-4.4313,-4.4026,-4.3806,-4.364,-4.3543,-4.3487,-4.3598,-4.3543,-4.3432,-4.3394,-4.3295,-4.3184,-4.3184,-4.3184,-4.3184,-4.3184,-4.3085,-4.2974,-4.2974,-4.2974,-4.2974,-4.2974,-4.2974,-4.2974,-4.2974,-4.2974,-4.2974,-4.2974,-4.2974,-4.2974,-4.2974,-4.2766,-4.2133,-4.1275,-4.1012,-4.0475,-3.9697,-3.9697,-3.9697,-3.9697,-3.9697,-3.9697,-3.9697,-3.9697,-3.9697,-3.9697,-3.9697,-3.9697,-3.9647,-3.9204,-3.8725,-3.816,-3.729,-3.6621,-3.614,-3.604,-3.599,-3.605,-3.6326,-3.6309,-3.6135,-3.586,-3.5396,-3.4946,-3.471,-3.4263,-3.3878,-3.3729,-3.3679,-3.3729,-3.3878,-3.3791,-3.3689,-3.3689,-3.3025,-3.2447,-3.2158,-3.1459,-3.083,-3.0442,-2.9916,-2.9473,-2.9055,-2.8407,-2.8066,-2.8187,-2.8076,-2.8177,-2.8568,-2.8825,-2.8938,-2.8938,-2.9156,-2.927,-2.927,-2.927,-2.9742,-3.0678,-3.0856,-3.1601,-3.2908,-3.3408,-3.3953,-3.4421,-3.4414,-3.439,-3.4372,-3.3674,-3.3322,-3.3138,-3.2477,-3.2125,-3.1994,-3.1893,-3.1761,-3.1705,-4.4422,-4.4313,-4.4203,-4.3997,-4.3955,-4.3899,-4.3955,-4.3955,-4.3832,-4.356,-4.3504,-4.3517,-4.3517,-4.3517,-4.3517,-4.3517,-4.3308,-4.3154,-4.3154,-4.3154,-4.3154,-4.3154,-4.3154,-4.3154,-4.3085,-4.3085,-4.303,-4.2974,-4.2974,-4.2974,-4.2974,-4.2464,-4.1869,-4.1263,-4.0764,-4.0212,-3.9697,-3.9697,-3.9697,-3.9697,-3.9697,-3.9697,-3.9697,-3.9697,-3.9697,-3.9697,-3.9697,-3.9697,-3.9697,-3.9697,-3.9229,-3.8575,-3.8194,-3.7543,-3.6899,-3.6645,-3.6471,-3.6423,-3.6468,-3.6215,-3.5967,-3.5833,-3.5274,-3.4636,-3.4193,-3.3927,-3.3779,-3.3729,-3.3779,-3.3878,-3.4113,-3.4162,-3.4223,-3.4223,-3.3834,-3.3297,-3.2859,-3.2114,-3.1319,-3.0548,-2.9856,-2.9157,-2.836,-2.7933,-2.7882,-2.831,-2.8198,-2.834,-2.8795,-2.9218,-2.9425,-2.9425,-2.9798,-2.9994,-2.9994,-2.9994,-3.0099,-3.0339,-3.0412,-3.1124,-3.2269,-3.2908,-3.3557,-3.425,-3.4078,-3.4136,-3.4261,-3.3559,-3.3227,-3.3148,-3.2648,-3.23,-3.2125,-3.2025,-3.1893,-3.1705,-4.4681,-4.4463,-4.4313,-4.4258,-4.4052,-4.401,-4.4203,-4.4052,-4.3955,-4.4148,-4.3997,-4.3832,-4.3832,-4.3832,-4.3832,-4.3832,-4.3776,-4.3776,-4.3776,-4.3776,-4.3776,-4.3776,-4.3776,-4.3653,-4.3338,-4.3338,-4.324,-4.2974,-4.2974,-4.2974,-4.2974,-4.2464,-4.1869,-4.1263,-4.0764,-4.0212,-3.9697,-3.9697,-3.9697,-3.9697,-3.9697,-3.9697,-3.9697,-3.9697,-3.9697,-3.9697,-3.9697,-3.9697,-3.9697,-3.9697,-3.948,-3.9072,-3.8317,-3.78,-3.7457,-3.7187,-3.6759,-3.6456,-3.6705,-3.6387,-3.5833,-3.5129,-3.4711,-3.4373,-3.4132,-3.4075,-3.3977,-3.3729,-3.4003,-3.4335,-3.4347,-3.4543,-3.4689,-3.4689,-3.4471,-3.4191,-3.3909,-3.3147,-3.2291,-3.1534,-3.0295,-2.9328,-2.8707,-2.8803,-2.8898,-2.8951,-2.9213,-2.9485,-2.9808,-2.987,-2.9901,-2.9901,-2.9963,-2.9994,-2.9994,-2.9994,-2.9994,-3.0047,-3.0287,-3.0897,-3.1721,-3.2269,-3.2974,-3.3709,-3.3934,-3.4025,-3.4014,-3.3612,-3.3301,-3.3095,-3.2791,-3.2636,-3.255,-3.2157,-3.1893,-3.1705,-4.4668,-4.4626,-4.4518,-4.4518,-4.4422,-4.4367,-4.4518,-4.4422,-4.4367,-4.4313,-4.4216,-4.4107,-4.4107,-4.4107,-4.4107,-4.4107,-4.401,-4.3899,-4.3899,-4.3899,-4.3899,-4.3899,-4.3899,-4.3832,-4.3708,-4.3517,-4.3338,-4.324,-4.3085,-4.2879,-4.2564,-4.1957,-4.1404,-4.0852,-4.03,-3.9923,-3.9697,-3.9697,-3.9697,-3.9697,-3.9839,-3.9839,-3.9749,-3.989,-3.9839,-3.9697,-3.9697,-3.9697,-3.9697,-3.953,-3.9426,-3.9169,-3.8466,-3.8185,-3.8004,-3.7742,-3.7376,-3.6968,-3.6482,-3.5963,-3.5341,-3.4392,-3.4105,-3.3997,-3.3875,-3.4064,-3.4249,-3.4113,-3.4249,-3.4433,-3.458,-3.4823,-3.4981,-3.4823,-3.4835,-3.4689,-3.4174,-3.3457,-3.2443,-3.0909,-2.9774,-2.893,-2.8514,-2.8717,-2.893,-2.9079,-2.9396,-2.9722,-2.9994,-2.9994,-2.9994,-2.9994,-2.9994,-2.9994,-2.9994,-2.9994,-2.9994,-2.9994,-3.0141,-3.0609,-3.1373,-3.1913,-3.2672,-3.3621,-3.3741,-3.3835,-3.3961,-3.3632,-3.3352,-3.3081,-3.2982,-3.2853,-3.2624,-3.2157,-3.1937,-3.1849]},{"header":{"parameterUnit":"m.s-1","parameterCategory":1,"la1":30.6,"la2":28.766,"lo1":-90.7593,"lo2":-88.6598,"dy":0.0162,"dx":0.0183,"nx":116,"ny":114,"refTime":"2023-05-11T00:00:00:Z","depth":0,"parameterNumber":3,"parameterNumberName":"V-component_of_WINDS"},"data":[0.0,0.0,0.0,0.0,0.0,0.0,0.0,0.0,0.0,0.0,0.0,0.0,0.0,0.0,0.0,0.0,0.0,0.0,0.0,0.0,0.0,0.0,0.0,0.0,0.0,0.0,0.0,0.0,0.0,0.0,0.0,0.0,0.0,0.0,0.0,0.0,0.0,0.0,0.0,0.0,0.0,0.0,0.0,0.0,0.0,0.0,0.0,0.0,0.0,0.0,0.0,0.0,0.0,0.0,0.0,0.0,0.0,0.0,0.0,0.0,0.0,0.0,0.0,0.0,0.0,0.0,0.0,0.0,0.0,0.0,0.0,0.0,0.0,0.0,0.0,0.0,0.0,0.0,0.0,0.0,0.0,0.0,0.0,0.0,0.0,0.0,0.0,0.0,0.0,0.0,0.0,0.0,0.0,0.0,0.0,0.0,0.0,0.0,0.0,0.0,0.0,0.0,0.0,0.0,0.0,0.0,0.0,0.0,0.0,0.0,0.0,0.0,0.0,0.0,0.0,0.0,0.0,0.0,0.0,0.0,0.0,0.0,0.0,0.0,0.0,0.0,0.0,0.0,0.0,0.0,0.0,0.0,0.0,0.0,0.0,0.0,0.0,0.0,0.0,0.0,0.0,0.0,0.0,0.0,0.0,0.0,0.0,0.0,0.0,0.0,0.0,0.0,0.0,0.0,0.0,0.0,0.0,0.0,0.0,0.0,0.0,0.0,0.0,0.0,0.0,0.0,0.0,0.0,0.0,0.0,0.0,0.0,0.0,0.0,0.0,0.0,0.0,0.0,0.0,0.0,0.0,0.0,0.0,0.0,0.0,0.0,0.0,0.0,0.0,0.0,0.0,0.0,0.0,0.0,0.0,0.0,0.0,0.0,0.0,0.0,0.0,0.0,0.0,0.0,0.0,0.0,0.0,0.0,0.0,0.0,0.0,0.0,0.0,0.0,0.0,0.0,0.0,0.0,0.0,0.0,0.0,0.0,0.0,0.0,0.0,0.0,0.0,0.0,0.0,0.0,0.0,0.0,0.0,0.0,0.0,0.0,0.0,0.0,0.0,0.0,0.0,0.0,0.0,0.0,0.0,0.0,0.0,0.0,0.0,0.0,0.0,0.0,0.0,0.0,0.0,0.0,0.0,0.0,0.0,0.0,0.0,0.0,0.0,0.0,0.0,0.0,0.0,0.0,0.0,0.0,0.0,0.0,0.0,0.0,0.0,0.0,0.0,0.0,0.0,0.0,0.0,0.0,0.0,0.0,0.0,0.0,0.0,0.0,0.0,0.0,0.0,0.0,0.0,0.0,0.0,0.0,0.0,0.0,0.0,0.0,0.0,0.0,0.0,0.0,0.0,0.0,0.0,0.0,0.0,0.0,0.0,0.0,0.0,0.0,0.0,0.0,0.0,0.0,0.0,0.0,0.0,0.0,0.0,0.0,0.0,0.0,0.0,0.0,0.0,0.0,0.0,0.0,0.0,0.0,0.0,0.0,0.0,0.0,0.0,0.0,0.0,0.0,0.0,0.0,0.0,0.0,0.0,0.0,0.0,0.0,0.0,0.0,0.0,0.0,0.0,0.0,0.0,0.0,0.0,0.0,0.0,0.0,0.0,0.0,0.0,0.0,0.0,0.0,0.0,0.0,0.0,0.0,0.0,0.0,0.0,0.0,0.0,0.0,0.0,0.0,0.0,0.0,0.0,0.0,0.0,0.0,0.0,0.0,0.0,0.0,0.0,0.0,0.0,0.0,0.0,0.0,0.0,0.0,0.0,0.0,0.0,0.0,0.0,0.0,0.0,0.0,0.0,0.0,0.0,0.0,0.0,0.0,0.0,0.0,0.0,0.0,0.0,0.0,0.0,0.0,0.0,0.0,0.0,0.0,0.0,0.0,0.0,0.0,0.0,0.0,0.0,0.0,0.0,0.0,0.0,0.0,0.0,0.0,0.0,0.0,0.0,0.0,0.0,0.0,0.0,0.0,0.0,0.0,0.0,0.0,0.0,0.0,0.0,0.0,0.0,0.0,0.0,0.0,0.0,0.0,0.0,0.0,0.0,0.0,0.0,0.0,0.0,0.0,0.0,0.0,0.0,0.0,0.0,0.0,0.0,0.0,0.0,0.0,0.0,0.0,0.0,0.0,0.0,0.0,0.0,0.0,0.0,0.0,0.0,0.0,0.0,0.0,0.0,0.0,0.0,0.0,0.0,0.0,0.0,0.0,0.0,0.0,0.0,0.0,0.0,0.0,0.0,0.0,0.0,0.0,0.0,0.0,0.0,0.0,0.0,0.0,0.0,0.0,0.0,0.0,0.0,0.0,0.0,0.0,0.0,0.0,0.0,0.0,0.0,0.0,0.0,0.0,0.0,0.0,0.0,0.0,0.0,0.0,0.0,0.0,0.0,0.0,0.0,0.0,0.0,0.0,0.0,0.0,0.0,0.0,0.0,0.0,0.0,0.0,0.0,0.0,0.0,0.0,0.0,0.0,0.0,0.0,0.0,0.0,0.0,0.0,0.0,0.0,0.0,0.0,0.0,0.0,0.0,0.0,0.0,0.0,0.0,0.0,0.0,0.0,0.0,0.0,0.0,0.0,0.0,0.0,0.0,0.0,0.0,0.0,0.0,0.0,0.0,0.0,0.0,0.0,0.0,0.0,0.0,0.0,0.0,0.0,0.0,0.0,0.0,0.0,0.0,0.0,0.0,0.0,0.0,0.0,0.0,0.0,0.0,0.0,0.0,0.0,0.0,0.0,0.0,0.0,0.0,0.0,0.0,0.0,0.0,0.0,0.0,0.0,0.0,0.0,0.0,0.0,0.0,0.0,0.0,0.0,0.0,0.0,0.0,0.0,0.0,0.0,0.0,0.0,0.0,0.0,0.0,0.0,0.0,0.0,0.0,0.0,0.0,0.0,0.0,0.0,0.0,0.0,0.0,0.0,0.0,0.0,0.0,0.0,0.0,0.0,0.0,0.0,0.0,0.0,0.0,0.0,0.0,0.0,0.0,0.0,0.0,0.0,0.0,0.0,0.0,0.0,0.0,0.0,0.0,0.0,0.0,0.0,0.0,0.0,0.0,0.0,0.0,0.0,0.0,0.0,0.0,0.0,0.0,0.0,0.0,0.0,0.0,0.0,0.0,0.0,0.0,0.0,0.0,0.0,0.0,0.0,0.0,0.0,0.0,0.0,0.0,0.0,0.0,0.0,0.0,0.0,0.0,0.0,0.0,0.0,0.0,0.0,0.0,0.0,0.0,0.0,0.0,0.0,0.0,0.0,0.0,0.0,0.0,0.0,0.0,0.0,0.0,0.0,0.0,0.0,0.0,0.0,0.0,0.0,0.0,0.0,0.0,0.0,0.0,0.0,0.0,0.0,0.0,0.0,0.0,0.0,0.0,0.0,0.0,0.0,0.0,0.0,0.0,0.0,0.0,0.0,0.0,0.0,0.0,0.0,0.0,0.0,0.0,0.0,0.0,0.0,0.0,0.0,0.0,0.0,0.0,0.0,0.0,0.0,0.0,0.0,0.0,0.0,0.0,0.0,0.0,0.0,0.0,0.0,0.0,0.0,0.0,0.0,0.0,0.0,0.0,0.0,0.0,0.0,0.0,0.0,0.0,0.0,0.0,0.0,0.0,0.0,0.0,0.0,0.0,0.0,0.0,0.0,0.0,0.0,0.0,0.0,0.0,0.0,0.0,0.0,0.0,0.0,0.0,0.0,0.0,0.0,0.0,0.0,0.0,0.0,0.0,0.0,0.0,0.0,0.0,0.0,0.0,0.0,0.0,0.0,0.0,0.0,0.0,0.0,0.0,0.0,0.0,0.0,0.0,0.0,0.0,0.0,0.0,0.0,0.0,0.0,0.0,0.0,0.0,0.0,0.0,0.0,0.0,0.0,0.0,0.0,0.0,0.0,0.0,0.0,0.0,0.0,0.0,0.0,0.0,0.0,0.0,0.0,0.0,0.0,0.0,0.0,0.0,0.0,0.0,0.0,0.0,0.0,0.0,0.0,0.0,0.0,0.0,0.0,0.0,0.0,0.0,0.0,0.0,0.0,0.0,0.0,0.0,0.0,0.0,0.0,0.0,0.0,0.0,0.0,0.0,0.0,0.0,0.0,0.0,0.0,0.0,0.0,0.0,0.0,0.0,0.0,0.0,0.0,0.0,0.0,0.0,0.0,0.0,0.0,0.0,0.0,0.0,0.0,0.0,0.0,0.0,0.0,0.0,0.0,0.0,0.0,0.0,0.0,0.0,0.0,0.0,0.0,0.0,0.0,0.0,0.0,0.0,0.0,0.0,0.0,0.0,0.0,0.0,0.0,0.0,0.0,0.0,0.0,0.0,0.0,0.0,0.0,0.0,0.0,0.0,0.0,0.0,0.0,0.0,0.0,0.0,0.0,0.0,0.0,0.0,0.0,0.0,0.0,0.0,0.0,0.0,0.0,0.0,0.0,0.0,0.0,0.0,0.0,0.0,0.0,0.0,0.0,0.0,0.0,0.0,0.0,0.0,0.0,0.0,0.0,0.0,0.0,0.0,0.0,0.0,0.0,0.0,0.0,0.0,0.0,0.0,0.0,0.0,0.0,0.0,0.0,0.0,0.0,0.0,0.0,0.0,0.0,0.0,0.0,0.0,0.0,0.0,0.0,0.0,0.0,0.0,0.0,0.0,0.0,0.0,0.0,0.0,0.0,0.0,0.0,0.0,0.0,0.0,0.0,0.0,0.0,0.0,0.0,0.0,0.0,0.0,0.0,0.0,0.0,0.0,0.0,0.0,0.0,0.0,0.0,0.0,0.0,0.0,0.0,0.0,0.0,0.0,0.0,0.0,0.0,0.0,0.0,0.0,0.0,0.0,0.0,0.0,0.0,0.0,0.0,0.0,0.0,0.0,0.0,0.0,0.0,0.0,0.0,0.0,0.0,0.0,0.0,0.0,0.0,0.0,0.0,0.0,0.0,0.0,0.0,0.0,0.0,0.0,0.0,0.0,0.0,0.0,0.0,0.0,0.0,0.0,0.0,0.0,0.0,0.0,0.0,0.0,0.0,0.0,0.0,0.0,0.0,0.0,0.0,0.0,0.0,0.0,0.0,0.0,0.0,0.0,0.0,0.0,0.0,0.0,0.0,0.0,0.0,0.0,0.0,0.0,0.0,0.0,0.0,0.0,0.0,0.0,0.0,0.0,0.0,0.0,0.0,0.0,0.0,0.0,0.0,0.0,0.0,0.0,0.0,0.0,0.0,0.0,0.0,0.0,0.0,0.0,0.0,0.0,0.0,0.0,0.0,0.0,0.0,0.0,0.0,0.0,0.0,0.0,0.0,0.0,0.0,0.0,0.0,0.0,0.0,0.0,0.0,0.0,0.0,0.0,0.0,0.0,0.0,0.0,0.0,0.0,0.0,0.0,0.0,0.0,0.0,0.0,0.0,0.0,0.0,0.0,0.0,0.0,0.0,0.0,0.0,0.0,0.0,0.0,0.0,0.0,0.0,0.0,0.0,0.0,0.0,0.0,0.0,0.0,0.0,0.0,0.0,0.0,0.0,0.0,0.0,0.0,0.0,0.0,0.0,0.0,0.0,0.0,0.0,0.0,0.0,0.0,0.0,0.0,0.0,0.0,0.0,0.0,0.0,0.0,0.0,0.0,0.0,0.0,0.0,0.0,0.0,0.0,0.0,0.0,0.0,0.0,0.0,0.0,0.0,0.0,0.0,0.0,0.0,0.0,0.0,0.0,0.0,0.0,0.0,0.0,0.0,0.0,0.0,0.0,0.0,0.0,0.0,0.0,0.0,0.0,0.0,0.0,0.0,0.0,0.0,0.0,0.0,0.0,0.0,0.0,0.0,0.0,0.0,0.0,0.0,0.0,0.0,0.0,0.0,0.0,0.0,0.0,0.0,0.0,0.0,0.0,0.0,0.0,0.0,0.0,0.0,0.0,0.0,0.0,0.0,0.0,0.0,0.0,0.0,0.0,0.0,0.0,0.0,0.0,0.0,0.0,0.0,0.0,0.0,0.0,0.0,0.0,0.0,0.0,0.0,0.0,0.0,0.0,0.0,0.0,0.0,0.0,0.0,0.0,0.0,0.0,0.0,0.0,0.0,0.0,0.0,0.0,0.0,2.9763,0.0,0.0,0.0,0.0,0.0,0.0,0.0,0.0,0.0,0.0,0.0,0.0,0.0,0.0,0.0,0.0,0.0,0.0,0.0,0.0,0.0,0.0,0.0,0.0,0.0,0.0,0.0,0.0,0.0,0.0,0.0,0.0,0.0,0.0,0.0,0.0,0.0,0.0,2.1111,2.1679,2.2386,2.3225,2.2933,2.2044,2.0626,0.0,0.0,0.0,0.0,0.0,0.0,0.0,0.0,0.0,0.0,0.0,0.0,0.0,0.0,0.0,0.0,0.0,0.0,0.0,0.0,0.0,0.0,0.0,0.0,0.0,0.0,0.0,0.0,0.0,0.0,0.0,0.0,0.0,0.0,0.0,0.0,0.0,0.0,0.0,0.0,0.0,0.0,0.0,0.0,0.0,0.0,0.0,0.0,0.0,0.0,0.0,0.0,0.0,0.0,0.0,0.0,0.0,0.0,0.0,0.0,0.0,0.0,0.0,0.0,0.0,0.0,0.0,0.0,0.0,0.0,0.0,3.1457,0.0,0.0,0.0,0.0,0.0,0.0,0.0,0.0,0.0,0.0,0.0,0.0,0.0,0.0,0.0,0.0,0.0,0.0,0.0,0.0,0.0,0.0,0.0,1.8018,1.7943,1.8058,1.796,1.7956,0.0,0.0,0.0,0.0,0.0,0.0,2.0548,2.1173,2.1742,2.2235,2.3283,2.4297,2.5281,2.5362,2.4216,2.2109,2.2137,0.0,0.0,0.0,0.0,0.0,0.0,0.0,0.0,0.0,0.0,0.0,0.0,0.0,0.0,0.0,0.0,0.0,0.0,0.0,0.0,0.0,0.0,0.0,0.0,0.0,0.0,0.0,0.0,0.0,0.0,0.0,0.0,0.0,0.0,0.0,0.0,0.0,0.0,0.0,0.0,0.0,0.0,0.0,0.0,0.0,0.0,0.0,0.0,0.0,0.0,0.0,0.0,0.0,0.0,0.0,0.0,0.0,0.0,0.0,0.0,0.0,0.0,0.0,3.9584,3.9925,3.9899,3.9553,3.9409,3.9229,3.6594,3.5217,3.4695,0.0,0.0,0.0,0.0,0.0,0.0,0.0,0.0,0.0,0.0,0.0,0.0,0.0,0.0,0.0,0.0,0.0,0.0,0.0,0.0,0.0,0.0,1.8679,1.8322,1.8357,1.8288,1.8488,1.9082,0.0,0.0,0.0,0.0,0.0,2.1171,2.2149,2.2946,2.3551,2.523,2.602,2.5981,2.6394,2.612,2.5281,2.4943,2.4461,2.3853,0.0,0.0,0.0,0.0,0.0,0.0,0.0,0.0,0.0,0.0,0.0,0.0,0.0,0.0,0.0,0.0,0.0,0.0,0.0,0.0,0.0,0.0,0.0,0.0,0.0,0.0,0.0,0.0,0.0,0.0,0.0,0.0,0.0,0.0,0.0,0.0,0.0,0.0,0.0,0.0,0.0,3.1229,3.2139,0.0,0.0,0.0,0.0,0.0,0.0,0.0,0.0,0.0,0.0,0.0,0.0,0.0,0.0,4.0912,4.1011,4.1566,4.2611,4.3055,4.3202,4.3083,4.2985,4.2627,4.2025,4.1237,0.0,3.6358,3.5952,0.0,0.0,0.0,0.0,0.0,0.0,0.0,0.0,0.0,0.0,0.0,0.0,0.0,0.0,0.0,0.0,0.0,0.0,0.0,0.0,0.0,1.935,1.9429,1.9778,2.0013,2.0204,2.03,2.0599,0.0,0.0,0.0,2.1771,2.2199,2.3285,2.4662,2.6327,2.7658,2.8355,2.8506,2.8714,2.8668,2.8429,2.8252,2.6964,2.4905,2.4824,0.0,0.0,0.0,0.0,0.0,0.0,0.0,0.0,0.0,0.0,0.0,0.0,0.0,0.0,0.0,0.0,0.0,0.0,0.0,0.0,0.0,0.0,0.0,0.0,0.0,0.0,0.0,0.0,0.0,0.0,0.0,0.0,0.0,0.0,0.0,0.0,0.0,0.0,0.0,3.0664,3.235,3.2965,3.3697,3.3784,0.0,0.0,0.0,0.0,0.0,0.0,0.0,0.0,0.0,3.8639,3.982,4.126,4.2914,4.2928,4.342,4.4295,4.4264,4.4326,4.4415,4.4142,4.3722,4.3193,4.2606,4.1203,3.9253,3.8351,3.7352,3.6211,0.0,0.0,0.0,0.0,0.0,3.1999,0.0,0.0,0.0,0.0,0.0,0.0,0.0,0.0,0.0,0.0,0.0,0.0,1.9564,2.0196,2.0786,2.1254,2.19,2.2127,2.1759,2.1941,2.1954,2.1683,2.221,2.2797,2.3366,2.4797,2.6677,2.9039,2.9909,3.0499,3.0767,3.0767,3.0685,3.0535,3.0501,2.8903,2.6263,2.627,2.5368,2.3946,0.0,0.0,0.0,0.0,0.0,0.0,0.0,0.0,0.0,0.0,0.0,0.0,0.0,0.0,0.0,0.0,0.0,0.0,0.0,0.0,0.0,0.0,0.0,0.0,0.0,0.0,0.0,0.0,0.0,0.0,0.0,0.0,0.0,0.0,0.0,0.0,0.0,3.2526,3.3686,3.4339,3.5365,3.5583,0.0,0.0,0.0,0.0,0.0,0.0,3.7648,3.8817,3.9776,4.0541,4.1685,4.3001,4.4351,4.4365,4.4696,4.5274,4.5078,4.498,4.4955,4.454,4.4172,4.3743,4.3067,4.2368,4.1603,4.04,3.9397,3.8452,3.7078,3.6584,3.6521,3.6009,3.6238,3.6957,0.0,0.0,0.0,0.0,0.0,0.0,0.0,0.0,0.0,0.0,0.0,2.0131,1.9913,2.1308,2.2285,2.231,2.34,2.389,2.3496,2.4253,2.4502,2.4056,2.4318,2.4533,2.4684,2.6892,2.9027,3.1057,3.1678,3.1923,3.1841,3.1841,3.1474,3.0861,3.0733,2.9925,2.8593,2.7835,2.6944,2.585,2.3568,0.0,0.0,0.0,0.0,0.0,0.0,0.0,0.0,0.0,0.0,0.0,0.0,0.0,0.0,0.0,0.0,0.0,0.0,0.0,0.0,0.0,0.0,0.0,0.0,0.0,0.0,0.0,0.0,0.0,0.0,0.0,0.0,0.0,0.0,0.0,0.0,0.0,0.0,3.7333,3.7833,0.0,0.0,0.0,0.0,3.7678,3.7786,3.8475,4.0027,4.0455,4.1402,4.3062,4.3494,4.4242,4.5396,4.5409,4.5497,4.5662,4.6089,4.5797,4.4908,4.4656,4.4347,4.3972,4.3288,4.2817,4.2491,4.2061,4.1532,4.1015,4.0848,4.0499,4.0099,4.0577,4.053,4.0437,0.0,0.0,0.0,0.0,0.0,0.0,0.0,0.0,1.8232,1.9112,1.974,2.0454,2.1356,2.2593,2.369,2.4474,2.5272,2.5604,2.5286,2.5273,2.513,2.4749,2.4593,2.534,2.707,2.98,3.172,3.276,3.3507,3.3938,3.4024,3.3879,3.3459,3.2812,3.2791,3.2007,3.0663,2.9773,2.8473,2.6928,2.6278,2.4655,0.0,0.0,0.0,0.0,0.0,0.0,0.0,0.0,0.0,0.0,0.0,0.0,0.0,0.0,0.0,0.0,0.0,0.0,0.0,0.0,0.0,0.0,0.0,0.0,0.0,0.0,0.0,0.0,0.0,0.0,0.0,0.0,0.0,0.0,0.0,0.0,0.0,3.8149,3.8873,0.0,3.8866,3.9017,3.9207,3.9421,4.0154,4.1034,4.1999,4.2596,4.3278,4.3909,4.458,4.5298,4.6072,4.6086,4.6152,4.6251,4.6045,4.5731,4.5279,4.4952,4.4572,4.4181,4.3808,4.3343,4.2862,4.3018,4.2637,4.1933,4.2118,4.2256,4.2318,4.2409,4.2558,4.2818,0.0,0.0,0.0,0.0,0.0,0.0,0.0,0.0,1.8565,1.9578,2.0226,2.1184,2.2675,2.4054,2.5268,2.6283,2.6965,2.7132,2.6607,2.6309,2.5897,2.5331,2.5647,2.7121,2.986,3.1937,3.3525,3.4654,3.5201,3.5536,3.561,3.5461,3.5013,3.4337,3.425,3.3732,3.281,3.2118,3.0501,2.8357,2.7936,2.6296,2.4055,0.0,0.0,0.0,0.0,0.0,0.0,0.0,0.0,0.0,0.0,0.0,0.0,0.0,0.0,0.0,0.0,0.0,0.0,0.0,0.0,0.0,0.0,0.0,0.0,0.0,0.0,0.0,0.0,0.0,0.0,0.0,0.0,0.0,0.0,0.0,3.8545,3.9654,4.0491,4.0753,4.0324,4.0772,4.1093,4.1093,4.1818,4.2605,4.3391,4.4033,4.4533,4.4837,4.5565,4.6048,4.6404,4.6404,4.6325,4.6183,4.5869,4.5533,4.5261,4.4945,4.469,4.4457,4.3975,4.3548,4.3241,4.3394,4.3171,4.2787,4.3306,4.3764,4.411,4.419,4.4394,4.4674,0.0,0.0,0.0,0.0,0.0,0.0,0.0,1.8111,1.9123,1.9983,2.1075,2.2341,2.377,2.5666,2.7043,2.7699,2.8397,2.8404,2.74,2.7423,2.7027,2.6006,2.7682,2.9964,3.2839,3.3197,3.4448,3.6733,3.6748,3.6636,3.6448,3.6448,3.5996,3.5217,3.5032,3.4943,3.4892,3.4705,3.3042,3.0378,2.8357,2.7588,2.7253,0.0,0.0,0.0,0.0,0.0,0.0,0.0,0.0,0.0,0.0,0.0,0.0,0.0,0.0,0.0,0.0,0.0,0.0,0.0,0.0,0.0,0.0,0.0,0.0,0.0,0.0,0.0,0.0,0.0,0.0,0.0,0.0,0.0,3.8685,3.9707,4.0867,4.2065,4.269,4.2945,4.2709,4.2656,4.2656,4.2656,4.2656,4.3153,4.427,4.4611,4.5127,4.5966,4.627,4.6417,4.6376,4.6376,4.6004,4.5276,4.5576,4.5392,4.4815,4.466,4.473,4.482,4.383,4.347,4.3646,4.3212,4.325,4.3669,4.4556,4.5136,4.5578,4.6104,4.6217,4.6126,0.0,0.0,0.0,0.0,0.0,0.0,0.0,1.8342,1.9289,2.0204,2.107,2.2378,2.4461,2.5968,2.7312,2.8583,2.902,2.8986,2.8372,2.7794,2.7404,2.7213,2.9978,3.204,3.3097,3.4971,3.6338,3.7155,3.7417,3.7557,3.7481,3.7201,3.6722,3.6052,3.5864,3.5536,3.5115,3.4892,3.4377,3.3545,3.1936,2.9931,2.78,0.0,0.0,0.0,0.0,0.0,0.0,0.0,0.0,0.0,0.0,0.0,0.0,0.0,0.0,0.0,0.0,0.0,0.0,0.0,0.0,0.0,0.0,0.0,0.0,0.0,0.0,0.0,0.0,0.0,0.0,0.0,0.0,4.0203,4.0338,4.1799,4.3273,4.4425,4.4225,4.3888,4.3848,4.3637,4.3531,4.3531,4.3743,4.4256,4.5209,4.5501,4.5657,4.5727,4.5779,4.5738,4.5463,4.5641,4.5502,4.5078,4.529,4.5204,4.4783,4.4907,4.485,4.4687,4.4676,4.4206,4.3426,4.3649,4.3603,4.3488,4.4343,4.5098,4.5733,4.5773,4.617,4.6697,0.0,0.0,0.0,0.0,0.0,0.0,0.0,1.8299,1.9243,2.0613,2.1246,2.2433,2.4663,2.5817,2.6982,2.8383,2.8526,2.8402,2.8114,2.7649,2.7855,2.899,3.1321,3.3038,3.4013,3.5905,3.7086,3.7546,3.7794,3.7853,3.7777,3.7534,3.7119,3.6511,3.6396,3.6123,3.5711,3.5673,3.5519,3.5226,3.4575,3.2604,3.0002,2.9139,2.8035,2.6829,2.6087,2.5389,2.4607,2.2841,0.0,0.0,0.0,0.0,0.0,0.0,0.0,0.0,0.0,0.0,0.0,0.0,0.0,0.0,0.0,0.0,0.0,0.0,0.0,0.0,0.0,0.0,0.0,0.0,4.1207,4.2838,4.3365,4.4026,4.4854,4.5752,4.5181,4.4599,4.4492,4.4225,4.4131,4.4238,4.4386,4.4851,4.5742,4.5914,4.5856,4.5614,4.5587,4.537,4.4831,4.4993,4.4948,4.4735,4.4864,4.4903,4.4797,4.5,4.5061,0.0,4.5068,4.4705,4.4103,4.3953,4.3864,0.0,0.0,0.0,0.0,0.0,4.6665,4.7062,0.0,0.0,0.0,0.0,0.0,0.0,0.0,1.8037,1.9047,2.0882,2.1398,2.2412,2.4499,2.5382,2.6296,2.7523,2.7446,2.732,2.734,2.7437,2.8467,3.0697,3.1985,3.341,3.5124,3.6202,3.7105,3.7853,3.7853,3.7777,3.7625,3.7534,3.724,3.6707,3.6682,3.6563,3.6405,3.6603,3.6401,3.5938,3.6273,3.5094,3.2954,3.1021,3.0038,2.9557,2.8315,2.7537,2.6893,2.5442,0.0,0.0,0.0,0.0,0.0,0.0,0.0,0.0,0.0,0.0,0.0,0.0,0.0,0.0,0.0,0.0,0.0,0.0,0.0,0.0,0.0,0.0,0.0,0.0,4.3706,4.5518,4.6723,4.6168,4.5845,4.636,4.5755,4.5167,4.4897,4.4572,4.4531,4.4789,4.483,4.5207,4.5967,0.0,0.0,0.0,0.0,4.5148,4.4359,4.4394,4.4373,4.4364,4.4411,4.4597,4.483,4.5046,4.5307,4.552,4.5212,4.5142,4.5215,4.4356,4.4307,4.4815,4.4749,4.5067,4.5697,4.6996,4.7369,0.0,0.0,0.0,0.0,0.0,0.0,0.0,0.0,1.7772,1.8746,1.9926,2.0598,2.1856,2.4136,2.4843,2.5728,2.7089,2.7272,2.7379,2.7594,2.8616,2.9539,3.022,3.2622,3.427,3.4952,3.6272,3.719,3.7663,3.7663,3.7663,3.7586,3.7264,3.707,3.6915,3.6589,3.6445,3.6405,3.6603,3.6652,3.6537,3.6429,3.5509,3.4172,3.39,3.3397,3.2738,3.2164,3.1473,3.0594,2.8915,2.7709,2.6639,2.4941,2.3427,0.0,0.0,0.0,0.0,0.0,0.0,0.0,0.0,0.0,0.0,0.0,0.0,0.0,0.0,0.0,0.0,0.0,0.0,0.0,4.3441,4.4861,4.611,4.7364,4.7019,4.6646,4.6807,4.6245,4.5808,4.5742,4.5488,4.5381,4.5435,4.5649,4.5795,4.6007,4.6245,0.0,4.4908,4.4868,4.4434,4.3547,4.3698,4.3881,4.4082,0.0,0.0,4.5032,4.5321,4.5549,4.5835,4.59,4.5683,4.5332,4.55,4.5827,4.6146,4.5731,4.5889,4.6442,4.703,4.7335,4.7436,0.0,0.0,0.0,0.0,0.0,0.0,0.0,1.7169,1.7919,1.9195,1.9761,2.0643,2.2228,2.3133,2.4042,2.4979,2.5993,2.6895,2.7651,2.8785,2.9909,3.0949,3.2895,3.4123,3.4441,3.5806,3.6744,3.7303,3.7303,3.7341,3.7419,3.7148,3.6875,3.6693,3.647,3.6325,3.6286,3.6563,3.6747,3.6861,3.6977,3.6693,3.6125,3.559,3.5089,3.4654,3.439,3.3906,3.3123,3.1367,3.0574,2.9977,2.7824,2.6587,2.5715,0.0,0.0,0.0,0.0,0.0,0.0,0.0,0.0,0.0,0.0,0.0,0.0,0.0,0.0,3.8093,3.8922,0.0,4.2465,4.4523,4.5392,4.6192,4.7327,4.7146,4.6887,4.6887,4.6389,4.6007,4.6007,4.5755,4.5649,4.5808,4.606,4.627,4.6455,4.673,4.6476,4.5573,4.5258,4.4804,4.4187,4.3937,4.4007,4.4411,4.4644,4.4968,4.5307,4.5595,4.5821,4.6046,4.6314,4.63,4.6107,4.6484,4.6758,4.6889,4.6959,4.7207,4.7557,4.7645,4.772,4.7738,0.0,0.0,0.0,0.0,0.0,0.0,0.0,1.6515,1.7049,1.8385,1.8917,1.9496,2.0366,2.1403,2.2266,2.2854,2.4773,2.6378,2.7385,2.8662,3.0041,3.1612,3.2818,3.3551,3.3808,3.5063,3.602,3.6771,3.6771,3.6944,3.7226,3.7031,3.6772,3.6484,3.6445,3.6312,3.6232,3.6589,3.685,3.7109,3.7457,3.763,3.7566,3.6517,3.6114,3.6104,3.5821,3.5436,3.4785,3.3147,3.2901,3.2836,3.0505,2.9717,2.9396,2.7916,2.7377,0.0,0.0,0.0,0.0,0.0,0.0,0.0,0.0,3.6542,3.7646,3.8302,4.0006,4.1453,4.1696,4.2546,4.3743,4.5226,4.5623,4.6079,4.707,4.6991,4.6835,4.6835,4.6403,4.6126,4.6179,4.5967,4.5967,4.6231,4.6428,4.6703,4.6991,4.7198,4.697,4.6252,4.5755,4.5295,4.4911,4.4347,4.4364,4.4876,4.4968,4.5198,4.5595,4.588,4.6105,4.6299,4.658,4.6887,4.7176,4.7456,4.7586,4.7746,4.8355,4.8711,4.8855,4.8463,4.818,4.7964,0.0,0.0,0.0,0.0,0.0,0.0,0.0,0.0,1.6629,1.7231,1.811,1.9113,2.0208,2.0752,2.1472,2.2472,2.4723,2.6231,2.6624,2.8744,3.0247,3.0792,3.2152,3.2971,3.3196,3.4039,3.4972,3.5934,3.5934,3.6291,3.7017,3.6811,3.6707,3.6682,3.6484,3.651,3.6626,3.6875,3.707,3.7303,3.7495,3.7282,3.6819,3.6676,3.7037,3.7566,3.6819,3.6174,3.5451,3.4359,3.3888,3.3675,3.2822,3.235,3.19,3.0905,3.0167,2.996,3.1106,3.326,3.5419,3.6382,3.6996,3.7634,0.0,4.0079,4.1284,4.1024,4.2953,4.4526,4.3967,4.424,4.4917,4.5928,4.5755,4.5779,4.6813,4.673,4.6521,4.6521,4.6469,4.6521,4.6783,4.6783,4.6887,4.7133,4.7198,4.7198,4.725,4.7301,4.6777,4.5644,4.5534,4.5184,4.4476,4.4406,4.4583,4.5078,4.5549,4.579,4.588,4.6328,4.655,4.6594,4.7033,4.7581,4.816,4.8377,4.8779,4.9362,4.982,5.0163,5.0227,4.9057,4.8368,4.7958,0.0,0.0,0.0,0.0,0.0,0.0,0.0,0.0,0.0,1.6512,1.7187,1.7889,1.859,1.9385,2.0312,2.1478,2.3446,2.512,2.6215,2.8098,2.9679,3.0829,3.1649,3.2326,3.2901,3.3571,3.4312,3.5107,3.5107,3.5565,3.6483,3.6255,3.6373,3.6721,3.6733,3.6797,3.69,3.7226,3.7244,3.712,3.7232,3.6882,3.6271,3.6147,3.6319,3.6536,3.5861,3.5353,0.0,3.4051,3.3916,3.3952,3.3237,3.3123,3.3196,3.2467,3.2444,3.3037,3.4836,3.6844,3.867,3.9768,4.0732,4.1722,4.2934,4.3938,4.4604,4.4555,4.5512,4.6076,4.5125,4.524,4.5659,4.633,4.5993,4.5979,4.6967,4.6783,4.6469,4.6469,4.6626,4.6783,4.6887,4.6887,4.6991,4.7301,4.7456,4.7596,4.7736,4.7889,4.7867,4.7496,4.6764,4.6226,4.5941,4.517,4.5046,4.5549,4.579,4.6015,4.6328,4.6624,4.6931,4.7193,4.7538,4.8007,4.8495,4.8718,4.9275,4.9979,5.0308,5.0573,5.0653,4.9684,4.8937,4.8348,0.0,0.0,0.0,0.0,0.0,0.0,0.0,0.0,0.0,0.0,1.646,1.7104,1.7712,1.8625,1.9599,2.0631,2.2356,2.4047,2.5546,2.7366,2.8994,3.0417,3.1195,3.1882,3.2512,3.307,3.369,3.4394,3.4394,3.4887,3.5864,3.5689,3.585,3.6283,3.6487,3.6588,3.6664,3.7006,3.7026,3.6808,3.6808,3.6367,3.5755,3.5597,3.5296,3.4967,3.471,3.4554,3.4341,3.3548,3.3533,3.3776,3.3136,3.3346,3.3836,3.381,3.4803,3.6221,3.7686,3.9333,4.0969,4.2351,4.3489,4.4627,4.6113,4.662,4.6749,4.6775,4.693,4.6787,4.5815,4.57,4.5967,4.6537,4.614,4.6129,4.707,4.6835,4.6572,4.6342,4.6589,4.6727,4.66,4.6888,4.725,4.7596,4.7801,4.8055,4.828,4.8481,4.8674,4.8751,4.7663,4.71,4.7055,4.5944,4.564,4.6105,4.615,4.6373,4.6683,4.6975,4.7366,4.7794,4.8007,4.837,4.8826,4.9006,4.9573,5.0331,5.0534,5.0576,5.0482,5.0145,4.955,4.8838,0.0,0.0,0.0,0.0,0.0,0.0,0.0,0.0,0.0,0.0,0.0,0.0,0.0,1.9011,1.9635,2.0165,2.1875,2.3375,2.4474,2.6789,2.8415,2.9122,3.0847,3.1799,3.1826,3.242,3.3121,3.3921,3.3921,3.4365,3.5217,3.5217,3.5231,3.5245,3.5393,3.5577,3.5768,3.5949,3.6165,3.6309,3.6309,3.5846,3.5128,3.5128,3.4315,3.3274,3.3892,3.421,3.4129,3.3077,3.2898,3.3102,3.2872,3.3232,3.3957,3.5224,3.7379,3.9288,3.9102,4.0459,4.2344,4.4079,4.4834,4.5559,4.7026,4.7361,4.7283,4.6862,4.6824,4.6635,4.5996,4.57,4.5737,4.6489,4.614,4.6029,4.6813,4.6887,4.6668,4.6001,4.6201,4.6233,0.0,4.6952,4.7903,4.8431,4.8481,4.8595,4.8845,4.8895,4.8722,4.8427,4.7736,4.7322,4.7205,4.6501,4.6314,4.6594,4.68,4.6887,4.6916,4.7366,4.7837,4.8286,4.8301,4.8661,4.9275,4.9275,4.9797,5.0589,5.0589,5.0179,4.9635,5.0339,5.0109,4.9485,0.0,0.0,0.0,0.0,0.0,0.0,0.0,0.0,0.0,0.0,0.0,0.0,0.0,0.0,0.0,0.0,2.0994,2.2281,2.3372,2.537,2.7072,2.8377,2.9458,3.0383,3.1184,3.1405,3.1681,3.2124,3.2528,3.3114,3.3944,3.4351,3.4759,3.5226,3.5469,3.5638,3.5711,3.605,3.6033,3.5712,3.5712,3.5265,3.4573,3.4139,3.3837,3.3568,0.0,3.2801,3.2742,3.2457,3.2364,3.2409,3.2771,3.3144,3.3984,3.6422,3.8135,3.9542,4.1062,4.2161,4.338,4.55,4.6495,4.7174,4.806,4.8391,4.8181,4.7042,4.6581,4.6162,4.5388,4.5316,4.5558,4.6134,4.626,4.6588,4.7327,4.6956,4.6472,4.6252,4.6117,0.0,0.0,0.0,0.0,4.7872,4.8468,4.8945,4.9389,4.9424,4.9547,4.9794,4.9121,4.8556,4.8064,4.7462,4.7007,4.68,4.7193,4.7452,4.7624,4.7922,4.816,4.8286,4.8453,4.8718,4.9103,4.9235,4.9701,5.0347,5.0379,5.0313,5.0237,5.0377,5.0142,4.9755,0.0,0.0,0.0,0.0,0.0,0.0,0.0,0.0,0.0,0.0,0.0,0.0,0.0,0.0,0.0,0.0,0.0,2.1139,2.2488,2.3933,2.541,2.6938,2.7827,2.8632,2.9424,2.9836,3.0137,3.0294,3.1099,3.1766,3.2294,3.2926,3.3466,3.3881,3.4242,3.4382,3.4403,3.4779,3.4622,3.4108,3.434,3.4116,3.3583,3.341,3.3382,0.0,3.2646,3.2288,3.2138,3.2138,3.2318,3.2597,3.2904,3.3921,3.5312,3.6842,3.8802,4.0795,4.2261,4.3321,4.4456,4.6301,4.7143,4.7608,4.8246,4.817,4.7695,4.6695,4.5783,4.4967,4.4327,4.4632,4.5113,4.5584,4.6182,4.6834,4.7582,4.7225,4.6708,4.6214,4.6341,4.6343,0.0,0.0,0.0,4.8001,4.8735,4.9438,4.9941,4.999,5.0183,5.0567,4.9979,4.9478,4.9095,4.8267,4.7673,4.7307,4.7666,4.7964,4.8218,4.8328,4.8412,4.8412,4.8521,4.8759,4.9037,4.921,4.9622,5.0097,5.0246,5.022,5.0122,5.0245,4.997,4.9576,0.0,0.0,0.0,0.0,0.0,0.0,0.0,0.0,0.0,0.0,0.0,0.0,0.0,0.0,0.0,0.0,0.0,0.0,2.1732,2.2536,2.3532,2.4826,2.6062,2.6722,2.6764,2.7813,2.8428,2.8549,2.9586,3.0173,3.0315,3.0993,3.1302,3.1335,3.1667,3.1815,3.1815,3.2193,3.2067,3.1667,3.2355,3.2441,3.2243,3.2882,3.2946,3.2703,3.2703,3.2583,3.237,3.2094,3.2703,3.3529,3.3418,3.5466,3.7683,3.6719,3.9513,4.2915,4.2762,4.3952,4.5478,4.655,4.6809,4.694,4.7596,4.6768,4.5867,4.5838,4.4457,4.3215,4.3033,4.3655,4.4371,4.4912,4.5903,4.6841,4.7591,4.7657,4.7225,4.6027,4.6884,4.7099,4.5922,4.7621,0.0,4.8773,0.0,4.999,5.0501,5.0501,5.0614,5.0807,5.0243,5.0056,5.0196,4.894,4.8258,4.8049,4.826,4.8412,4.862,4.862,4.862,4.862,4.862,4.8759,4.8996,4.921,4.9517,4.9916,5.0184,4.9849,4.934,5.0023,4.9716,4.907,0.0,0.0,0.0,0.0,0.0,0.0,0.0,0.0,0.0,0.0,0.0,0.0,0.0,0.0,0.0,0.0,0.0,0.0,1.9828,2.1361,2.263,2.3476,2.4757,2.5655,2.6118,2.633,2.6441,2.6469,2.7209,2.7542,2.7629,2.8392,2.8748,2.8748,2.902,2.9168,2.9227,3.0103,3.0411,3.0338,3.1235,3.1634,3.1793,3.2103,3.2403,3.2619,3.2616,3.269,3.2718,3.229,3.3137,3.452,3.5603,3.6807,3.8017,3.9112,4.0775,4.2515,4.3776,4.477,4.58,4.7108,4.6899,4.6456,4.6617,4.6137,4.5493,4.485,4.3734,4.286,4.2764,4.2784,4.306,4.3803,4.5181,4.6418,4.7213,4.7345,4.7255,4.7165,4.7015,4.7042,4.7236,4.8213,0.0,0.0,5.0022,5.0423,5.0728,5.0728,5.0822,5.1073,5.0971,5.0642,5.0196,4.9222,4.866,4.8453,4.8676,4.8872,4.8898,4.8898,4.88,4.862,4.862,4.862,4.8702,4.9113,4.9437,4.9677,4.9931,5.0017,5.0023,5.0026,4.9844,4.9734,0.0,0.0,0.0,0.0,0.0,0.0,0.0,0.0,0.0,0.0,0.0,0.0,0.0,0.0,0.0,0.0,0.0,0.0,0.0,2.0075,2.1097,2.2047,2.2864,2.3557,2.4173,2.4323,2.4396,2.4488,2.5313,2.5758,2.5827,2.6596,2.7004,2.706,2.7271,2.7411,2.7495,2.8215,2.842,0.0,0.0,3.0153,3.0281,3.106,3.1771,3.2329,3.2409,3.2654,3.3096,3.3926,3.4927,3.601,3.7331,3.8502,3.9522,4.0397,4.1642,4.2942,4.3953,4.4608,4.5155,4.5727,4.5463,4.4981,4.4414,4.3903,4.3341,4.2459,4.1715,4.1216,4.1085,4.1765,4.2511,4.3112,4.4969,4.6604,4.739,4.7766,4.7886,4.7799,4.7944,4.8076,4.8217,4.9103,4.9849,0.0,5.0487,5.0742,5.0964,5.0964,5.1058,5.1214,5.1214,5.0947,5.0379,4.9819,4.9344,4.905,4.8996,4.8996,4.8996,4.8996,4.8857,4.862,0.0,4.862,4.862,4.9006,4.9291,4.9477,4.9677,4.9916,5.0089,4.9971,4.9876,4.9884,0.0,0.0,0.0,0.0,0.0,0.0,0.0,0.0,0.0,0.0,0.0,0.0,0.0,0.0,0.0,0.0,0.0,0.0,0.0,0.0,1.9484,2.0597,2.0948,2.1351,2.1857,2.2349,2.263,2.2752,2.3735,2.4261,2.4406,2.4985,2.5328,2.5475,2.5607,2.5738,2.5882,2.6352,2.6384,2.6273,2.7845,2.8419,2.8444,0.0,3.1111,3.1838,3.2171,3.2656,3.352,3.6017,3.7067,3.7555,3.8758,4.0253,4.1492,4.1146,4.233,4.3747,4.3705,4.4036,4.4251,4.3762,4.3488,4.3013,4.1846,4.1148,4.0535,3.9765,3.9446,3.9269,3.9126,4.0711,4.2208,4.2638,4.4821,4.6697,4.7463,4.823,4.853,4.8121,4.9048,4.9548,4.9106,5.0103,5.0807,5.0855,5.0855,5.0964,5.1167,5.1214,5.1214,5.1214,5.1214,5.1039,5.0653,5.042,5.0097,4.9662,4.9223,4.9037,4.8996,4.8996,4.8857,4.862,0.0,0.0,4.862,4.8898,4.9103,4.9316,4.9517,4.9717,4.9876,4.9876,4.9852,4.9694,0.0,0.0,0.0,0.0,0.0,0.0,0.0,0.0,0.0,0.0,1.7417,1.778,0.0,0.0,0.0,0.0,0.0,0.0,0.0,0.0,0.0,1.9319,2.0482,2.1155,2.1253,2.1726,2.1983,2.1983,2.2083,2.2204,2.2311,2.2066,2.1988,2.2142,2.2326,2.2418,2.2535,2.409,2.4752,2.4915,2.6719,2.7532,2.7845,2.9626,0.0,0.0,3.2231,3.2985,3.373,3.6207,3.7338,3.8099,4.018,4.1596,4.2456,4.2393,4.3105,4.3923,4.3758,4.4133,4.4449,4.4022,4.2839,4.1664,4.1071,4.022,3.9459,3.9247,3.9014,3.8978,3.9478,4.0179,4.0933,4.1685,4.3403,4.4937,4.5714,4.6831,4.7817,4.849,4.9243,4.9917,5.0407,5.0639,0.0,0.0,0.0,5.1167,5.1214,5.1214,5.1214,5.1214,5.1214,5.1101,5.0955,5.0494,5.0171,4.9919,4.9455,4.9169,4.8996,4.8996,4.8857,4.862,0.0,0.0,4.862,4.8898,4.9103,4.9316,4.9517,4.9717,4.9876,4.9876,4.9552,4.9085,0.0,0.0,0.0,0.0,0.0,0.0,0.0,1.6522,1.7148,1.7246,1.7724,1.8023,1.7902,1.7955,1.7962,0.0,0.0,0.0,0.0,0.0,0.0,0.0,1.961,2.0326,2.0973,2.1232,2.1489,2.1793,0.0,2.1547,2.123,2.1148,2.0999,2.0837,2.0968,2.1283,2.1757,2.279,2.3489,2.4082,2.5605,2.6562,2.725,0.0,0.0,0.0,3.199,3.269,3.3377,3.5237,3.656,3.7856,4.0308,4.1983,4.2976,4.2713,4.3126,4.3607,4.339,4.3381,4.3284,4.2595,4.151,4.0249,3.9067,3.837,3.7796,3.7183,3.7462,3.7937,3.8322,3.9693,4.082,4.1039,4.3138,4.4916,4.5551,4.698,4.8235,4.9018,4.9806,5.0394,5.06,5.0728,5.0822,5.0852,0.0,5.0947,5.1182,5.1354,5.1401,5.1401,5.1634,5.1713,5.1516,5.0854,5.0399,5.0174,4.9321,4.8965,4.8996,4.8996,4.8955,4.88,4.8661,0.0,4.8453,4.8593,4.8759,4.899,4.9316,4.9557,4.9757,4.9876,4.9489,4.888,0.0,0.0,0.0,0.0,0.0,0.0,0.0,1.7068,1.7725,1.7693,1.8021,1.8189,1.8009,1.8016,1.8016,0.0,0.0,0.0,0.0,0.0,0.0,0.0,0.0,0.0,2.054,0.0,0.0,2.1647,2.1714,0.0,0.0,0.0,0.0,0.0,2.0246,2.0734,2.1528,2.1967,2.2672,0.0,0.0,2.5725,0.0,0.0,0.0,0.0,0.0,3.1967,3.2561,3.4127,3.5565,3.7107,3.9407,4.1289,4.2634,4.2372,4.2619,4.298,4.2823,4.2585,4.2143,4.1056,4.0181,3.91,3.7217,3.6722,3.6411,3.544,3.6077,3.689,3.7142,3.9054,4.0533,4.0477,4.2683,4.4698,4.5446,4.7067,4.8439,4.9267,5.0206,5.0695,5.0581,5.06,0.0,5.0501,0.0,0.0,5.1073,5.1433,5.1587,5.1587,5.1987,5.2185,5.2078,5.1095,5.0537,5.0376,4.9239,4.88,4.8996,4.8996,4.8996,4.8996,4.8676,0.0,0.0,4.8286,4.8412,4.8661,4.9072,4.9356,4.9637,4.9757,4.9355,4.8643,0.0,0.0,0.0,0.0,0.0,0.0,0.0,1.7728,1.827,1.8627,1.8558,1.8425,1.8279,1.8214,1.8169,0.0,0.0,0.0,0.0,0.0,0.0,0.0,0.0,0.0,0.0,0.0,0.0,2.1161,2.146,0.0,0.0,0.0,0.0,0.0,0.0,1.9936,2.0599,2.1593,0.0,0.0,0.0,0.0,0.0,0.0,0.0,0.0,0.0,3.0803,3.1182,3.3672,3.4928,3.571,3.7104,3.9,4.0755,4.1214,4.1672,4.2025,4.2058,4.2246,4.2027,4.0556,3.9588,3.8508,3.6777,3.6305,3.6102,3.5487,3.5861,3.6454,3.7097,3.7905,3.8781,3.9809,4.1059,4.2526,4.4191,4.5962,4.7511,4.8817,4.9907,5.0567,5.0775,5.0394,5.0231,0.0,0.0,0.0,5.0807,5.1339,5.1587,5.1587,5.188,5.2109,5.2261,5.0976,5.045,5.0623,4.9522,4.8996,4.8996,4.8996,4.8996,4.8955,0.0,0.0,0.0,4.8286,4.8412,4.862,4.8898,4.925,4.9597,4.9637,4.8938,4.7972,0.0,0.0,0.0,0.0,0.0,0.0,1.8051,1.8464,1.8792,1.8945,1.8774,1.8595,1.8542,1.8445,1.8341,1.8222,0.0,0.0,0.0,0.0,0.0,0.0,0.0,0.0,0.0,0.0,2.0374,2.11,2.1236,0.0,0.0,0.0,0.0,0.0,0.0,1.9382,2.0436,2.1076,0.0,0.0,0.0,0.0,0.0,0.0,0.0,0.0,0.0,0.0,3.0521,3.1658,3.2938,3.4166,3.4695,3.5873,3.7497,3.9579,4.098,4.1904,4.1993,4.1892,4.1517,4.0385,3.9288,3.8051,3.6493,3.6241,3.6155,3.5421,3.5769,3.6319,3.6704,3.7977,3.8953,3.8891,4.0891,4.2772,4.3728,4.5397,4.6973,4.8179,4.9379,5.0023,0.0,0.0,5.0086,0.0,0.0,0.0,5.0807,5.1448,5.188,5.2033,5.2291,5.2382,5.2306,5.1256,5.071,5.0636,4.9657,4.925,4.9372,4.9266,4.9169,4.9128,0.0,0.0,0.0,4.8133,4.8175,4.8301,4.8774,4.9118,4.9266,4.9517,4.8773,4.7671,0.0,0.0,0.0,0.0,0.0,1.8631,1.8634,1.8986,1.9228,1.9176,1.8965,1.8807,1.8803,1.8673,1.8523,1.8386,1.8372,0.0,0.0,0.0,0.0,0.0,0.0,0.0,0.0,0.0,2.0027,2.0893,2.1197,2.0968,0.0,0.0,1.9457,1.8522,0.0,0.0,0.0,0.0,0.0,0.0,0.0,0.0,0.0,0.0,0.0,0.0,0.0,0.0,0.0,0.0,0.0,3.2468,3.2677,3.3462,3.4945,3.8017,3.9718,4.0728,4.1284,4.1273,4.0902,3.9977,3.8974,3.7809,3.6405,3.6122,3.5996,3.5446,3.5696,3.6106,3.6461,3.7831,3.8749,3.8292,4.0543,4.2607,4.3223,4.4792,4.6271,4.7228,4.84,4.9043,0.0,4.9526,0.0,0.0,0.0,0.0,0.0,5.1726,5.22,5.2397,5.2698,5.2743,5.2622,5.1806,5.1196,5.0792,4.9968,4.9559,4.9517,4.9291,4.9169,4.9072,0.0,0.0,0.0,4.7964,4.8007,4.8049,4.865,4.8955,4.9021,4.9153,4.8467,4.7509,0.0,0.0,0.0,0.0,0.0,0.0,1.8702,1.9215,1.9556,1.9413,1.9213,1.9078,1.9012,1.8889,1.8803,1.8784,1.862,0.0,0.0,0.0,0.0,0.0,0.0,0.0,0.0,0.0,2.04,2.0414,2.148,2.1685,2.1063,2.0208,1.9801,1.976,0.0,0.0,0.0,0.0,0.0,0.0,0.0,0.0,0.0,0.0,0.0,0.0,0.0,0.0,0.0,0.0,0.0,0.0,0.0,3.2158,3.3618,3.6628,3.7593,3.8007,3.9668,4.0247,4.0169,3.9169,3.8505,3.7794,3.657,3.5781,3.5382,3.564,3.5583,3.5691,3.6368,3.7061,3.7658,3.8139,3.9736,4.1312,4.2469,4.3982,4.528,4.5934,4.6712,4.7499,4.8173,4.9135,0.0,0.0,0.0,0.0,0.0,5.2033,5.2412,5.2713,5.2937,5.3188,5.3377,5.2734,5.2005,5.1261,5.0617,4.993,4.9275,4.9103,4.8857,0.0,0.0,0.0,0.0,4.788,4.8007,4.8049,4.8453,4.8759,4.8959,4.8478,4.7958,4.7431,0.0,0.0,0.0,0.0,0.0,0.0,0.0,1.9549,1.9574,1.9538,1.9284,1.912,1.9191,1.9055,1.8965,1.9007,1.8817,0.0,0.0,0.0,0.0,0.0,0.0,0.0,0.0,1.9339,1.9929,2.04,2.115,2.1386,2.11,2.0725,2.0287,1.9801,1.9609,1.9973,0.0,0.0,0.0,0.0,0.0,0.0,0.0,0.0,0.0,0.0,0.0,0.0,0.0,0.0,0.0,0.0,0.0,0.0,0.0,3.3955,3.5746,3.7004,3.7706,3.8353,3.8605,3.7652,3.7045,3.6398,3.5089,3.4927,3.5041,3.5181,3.537,3.5661,3.6182,3.6857,3.7554,3.8395,3.9809,4.1257,4.2667,4.37,4.443,4.4785,4.5712,4.6903,0.0,0.0,0.0,0.0,0.0,0.0,0.0,5.2033,5.2503,5.2937,5.3188,5.3349,5.3377,5.288,5.2276,5.1576,5.0871,5.0222,4.9477,4.8949,0.0,0.0,0.0,0.0,0.0,4.7964,4.8091,4.8244,4.8495,4.8759,4.8959,4.8478,4.7958,4.7415,0.0,0.0,0.0,0.0,0.0,0.0,0.0,1.9723,1.9665,1.9632,1.9468,1.9325,1.9339,1.9224,1.9168,1.9195,1.9101,0.0,0.0,0.0,0.0,0.0,0.0,0.0,1.9105,1.9575,2.0133,2.0817,2.1372,2.1608,2.1517,2.1143,2.0826,2.0539,2.0261,2.0471,0.0,0.0,0.0,0.0,0.0,0.0,2.3282,0.0,0.0,0.0,0.0,0.0,0.0,0.0,0.0,0.0,0.0,0.0,0.0,0.0,3.32,3.4844,3.5959,3.6625,3.6902,3.6335,3.5878,3.5359,3.4573,3.4316,3.4319,3.4577,3.5034,3.5462,3.569,3.6711,3.7603,3.7892,3.9485,4.0912,4.1545,4.2783,4.3838,4.4361,0.0,0.0,0.0,0.0,0.0,0.0,0.0,0.0,0.0,5.2261,5.2757,5.3188,5.3452,5.3584,5.364,5.3345,5.2712,5.1701,5.1194,5.0407,4.9372,4.8744,0.0,0.0,0.0,0.0,0.0,4.7964,4.816,4.8453,4.8661,4.8743,4.8693,4.8192,4.7629,4.7038,0.0,0.0,0.0,0.0,0.0,0.0,0.0,1.9797,1.978,1.9726,1.9708,1.9636,1.9468,1.9431,1.9431,1.9431,0.0,0.0,0.0,0.0,0.0,0.0,0.0,0.0,1.9738,2.0251,2.0826,2.1443,2.1967,2.2231,2.2217,2.1503,2.1407,2.1803,2.1074,2.1018,2.1475,2.1323,2.1243,2.126,2.1655,2.2249,0.0,0.0,0.0,0.0,0.0,0.0,0.0,0.0,0.0,0.0,0.0,0.0,0.0,0.0,0.0,0.0,0.0,3.5008,3.513,3.5218,3.4913,3.4618,3.4697,3.3907,0.0,3.3832,3.4607,3.5156,3.5018,3.6563,3.7664,3.692,3.8938,4.0311,3.9597,4.1537,4.3419,0.0,4.5624,0.0,0.0,0.0,0.0,0.0,0.0,0.0,0.0,5.2638,5.3113,5.3377,5.3643,5.3919,5.4103,5.4103,5.3307,5.1711,5.1492,5.0538,4.8955,4.851,0.0,0.0,0.0,0.0,0.0,4.7922,4.8244,4.8661,4.8898,4.8739,4.8254,4.7676,4.7047,4.641,0.0,0.0,0.0,0.0,0.0,0.0,0.0,0.0,0.0,0.0,1.9848,1.9812,1.9848,1.9777,1.9759,0.0,0.0,0.0,0.0,0.0,0.0,0.0,0.0,0.0,1.919,2.0161,2.0727,2.0884,2.1981,2.2509,2.2486,2.2122,2.1997,2.2077,2.1608,2.0936,2.0238,2.068,2.0701,2.0552,2.1648,2.2321,0.0,0.0,0.0,0.0,2.4822,2.5642,0.0,0.0,0.0,0.0,0.0,0.0,0.0,0.0,2.9507,2.9813,3.1511,0.0,3.4137,3.3788,3.3633,3.3448,0.0,3.2775,3.2744,3.3262,3.4347,3.511,3.4832,3.6008,3.7173,3.767,3.8722,3.9713,4.0387,4.1946,0.0,4.5193,4.6209,4.7214,0.0,0.0,0.0,0.0,0.0,0.0,0.0,5.2548,5.2951,5.3377,5.3643,5.3919,5.4103,5.4103,5.3307,5.1711,5.1492,5.0439,4.8661,4.826,0.0,0.0,0.0,0.0,4.7922,4.8286,4.8635,4.8939,4.9128,4.8925,4.8412,4.7598,4.6933,4.6357,0.0,0.0,0.0,0.0,0.0,0.0,0.0,0.0,0.0,0.0,0.0,1.994,2.0005,1.9937,0.0,0.0,0.0,0.0,0.0,0.0,0.0,0.0,0.0,1.9256,1.9503,2.0321,2.0911,2.1191,2.2143,2.2615,2.2615,2.244,2.2324,2.217,2.155,2.0731,1.9828,2.021,2.0235,2.0103,2.1234,0.0,0.0,0.0,0.0,0.0,2.5,2.5899,0.0,2.7475,2.7865,2.8115,0.0,0.0,0.0,0.0,2.9124,2.9424,3.0516,3.1665,3.2602,3.2713,3.2741,3.2691,3.2447,3.2398,3.2478,3.2678,3.4041,3.4988,3.4378,3.5612,3.6854,3.7302,3.807,3.9394,4.1542,0.0,4.3663,4.5809,4.6774,0.0,0.0,0.0,0.0,0.0,0.0,0.0,0.0,5.2653,5.3026,5.3261,5.3496,5.373,5.3947,5.3947,5.3094,5.1376,5.118,5.0171,4.8453,4.8007,0.0,0.0,0.0,0.0,4.8286,4.8495,4.8883,4.9266,4.9275,4.8842,4.8051,4.745,4.6669,4.58,0.0,0.0,0.0,0.0,0.0,0.0,0.0,0.0,0.0,0.0,0.0,0.0,0.0,0.0,0.0,0.0,0.0,0.0,0.0,0.0,0.0,0.0,1.9321,1.9553,2.0093,2.0581,2.1153,2.1838,2.2368,2.2661,2.2661,2.2638,2.2477,2.2156,2.1333,2.0597,1.9982,2.0092,2.007,2.0036,2.0876,0.0,0.0,0.0,0.0,0.0,0.0,0.0,0.0,2.7899,2.8259,2.846,2.846,0.0,0.0,0.0,0.0,0.0,3.0442,3.0852,3.1256,3.2023,3.2219,3.2219,3.2315,3.2342,3.2345,3.2328,3.3873,3.4973,3.4197,3.5582,3.6872,3.6929,3.7933,3.9817,4.2946,4.3283,4.4131,4.6599,0.0,0.0,0.0,0.0,0.0,0.0,0.0,0.0,0.0,5.2728,5.2982,5.3042,5.308,5.3193,5.3399,5.3502,5.2672,5.0894,5.0629,4.9665,4.816,4.7837,4.7752,0.0,0.0,0.0,4.862,4.8702,4.9031,4.9557,4.9356,4.8568,4.7456,4.7232,4.6282,4.5092,0.0,0.0,0.0,0.0,0.0,0.0,0.0,0.0,0.0,0.0,0.0,0.0,0.0,0.0,0.0,0.0,0.0,0.0,0.0,0.0,0.0,1.9654,1.9417,1.9577,2.0162,2.0689,2.1301,2.1968,2.2561,2.2843,2.2843,2.2803,2.2575,2.218,2.1538,2.1058,2.0735,2.0757,2.0757,2.079,2.156,0.0,0.0,0.0,0.0,0.0,0.0,0.0,0.0,2.847,2.8612,2.8747,2.8747,0.0,0.0,0.0,0.0,0.0,3.0594,3.1125,3.1647,3.2228,3.2287,3.2178,3.2066,3.215,3.2359,3.2796,3.412,3.5293,3.5579,3.669,3.7865,3.8781,4.0398,4.2223,0.0,0.0,4.6213,4.8061,0.0,0.0,0.0,0.0,0.0,0.0,0.0,0.0,0.0,0.0,5.2548,5.2758,5.2024,5.1628,5.1673,5.2116,5.1713,5.0419,4.9809,4.888,4.7709,4.788,4.7837,0.0,0.0,4.848,4.862,4.9031,4.9235,4.9356,4.9316,4.8353,4.6982,4.6943,4.5974,4.4685,0.0,0.0,0.0,0.0,0.0,0.0,0.0,0.0,0.0,0.0,0.0,0.0,0.0,0.0,0.0,0.0,0.0,0.0,0.0,0.0,2.0115,1.9925,2.0012,2.0148,2.0313,2.1222,2.1854,2.2112,2.2709,2.3015,2.3015,2.2992,2.2828,2.2558,2.1875,2.1449,2.1212,2.1145,2.1054,2.1065,0.0,0.0,0.0,0.0,0.0,0.0,0.0,0.0,0.0,0.0,2.9014,2.9176,2.9176,0.0,0.0,0.0,0.0,0.0,3.0761,3.1306,3.1834,3.2283,3.2287,3.227,3.2509,3.2585,3.2781,3.3363,3.4699,3.5766,3.5832,3.7252,3.8687,3.9614,4.1196,4.2783,4.424,4.5259,4.6513,0.0,0.0,0.0,0.0,0.0,0.0,0.0,0.0,0.0,0.0,0.0,5.2033,5.1787,5.1362,5.0877,5.0379,5.0279,4.9988,4.958,4.9276,4.8688,4.7837,4.8049,4.816,4.816,0.0,4.8924,4.9153,4.9275,4.9316,4.9244,4.8627,4.7627,4.6511,4.5772,4.5187,4.4761,0.0,0.0,0.0,0.0,0.0,0.0,0.0,0.0,0.0,0.0,0.0,0.0,0.0,0.0,0.0,0.0,0.0,0.0,0.0,2.0354,2.027,2.01,2.0669,2.0893,2.0666,2.1748,2.2348,2.246,2.2922,2.3149,2.3149,2.3142,2.3083,2.292,2.2366,2.1995,2.1818,2.167,2.1558,2.1533,0.0,0.0,0.0,0.0,0.0,0.0,0.0,0.0,0.0,0.0,0.0,0.0,0.0,0.0,0.0,2.945,2.9935,3.0551,3.1096,3.1633,3.2115,3.2341,3.2382,3.2488,3.2862,3.3046,3.3379,3.4167,3.5292,3.6205,3.6449,3.8205,3.9792,4.033,4.1906,4.3349,4.4173,4.5383,0.0,0.0,0.0,0.0,0.0,0.0,0.0,0.0,0.0,0.0,0.0,0.0,5.1425,5.091,5.0562,5.0004,4.9298,4.8636,4.8468,4.8836,4.8713,4.8422,4.8007,4.826,4.8453,4.862,4.8924,4.9225,4.9452,4.9291,4.925,4.9132,4.8028,4.7015,4.5981,4.4802,4.4587,4.4911,0.0,0.0,0.0,0.0,0.0,0.0,0.0,0.0,0.0,0.0,0.0,0.0,0.0,0.0,0.0,0.0,0.0,0.0,0.0,2.0405,2.0304,2.01,2.1257,2.1743,2.1426,2.2005,2.2597,2.3223,2.3246,2.3297,2.3297,2.3297,2.3194,2.3068,2.3039,2.2921,2.2786,2.2659,2.2591,2.2591,2.2634,0.0,0.0,0.0,0.0,0.0,0.0,0.0,0.0,0.0,0.0,0.0,0.0,0.0,2.9248,2.9935,3.0615,3.1236,3.1787,3.2363,3.2738,3.248,3.2665,3.2893,3.2748,3.3201,3.4,3.5312,3.5755,3.6503,3.8413,4.0257,4.1445,4.1332,4.3434,4.511,4.5214,0.0,0.0,0.0,0.0,0.0,0.0,0.0,0.0,0.0,0.0,0.0,0.0,0.0,0.0,5.0638,4.9239,4.8446,4.8401,4.7742,4.7727,4.837,4.7914,4.7812,4.8007,4.8412,4.8578,4.862,4.9072,4.9169,4.9037,4.9037,4.9037,4.8934,4.7962,4.6803,4.5572,4.4849,4.4723,4.4949,0.0,0.0,0.0,0.0,0.0,0.0,0.0,0.0,0.0,0.0,0.0,0.0,0.0,0.0,0.0,0.0,0.0,0.0,0.0,2.0405,2.0304,2.01,2.1321,2.1901,2.1684,2.2697,2.3327,2.3501,2.3501,2.3458,2.3444,2.3458,2.3436,2.3341,2.3341,2.3275,2.315,2.3016,2.2957,2.2957,2.2957,2.3105,0.0,0.0,0.0,0.0,0.0,0.0,0.0,0.0,2.948,2.9547,2.9547,2.9396,2.9379,3.0109,3.0734,3.1315,3.185,3.2494,3.3045,3.3175,3.3481,3.3893,3.4437,3.502,3.5949,3.7828,3.8326,3.8808,4.0026,4.0954,4.1633,4.1961,4.3893,4.5289,0.0,0.0,0.0,0.0,0.0,0.0,0.0,0.0,0.0,0.0,0.0,0.0,0.0,0.0,0.0,4.9164,4.858,4.8043,4.7434,4.7196,4.7196,4.7434,4.7701,4.788,4.8007,4.8593,4.8857,4.8857,4.9169,4.925,4.9138,4.8612,4.8279,4.8018,4.6668,4.567,4.4964,4.4816,4.5002,4.5278,0.0,0.0,0.0,0.0,0.0,0.0,0.0,0.0,0.0,0.0,0.0,0.0,0.0,0.0,0.0,0.0,0.0,0.0,2.0304,2.0304,2.0327,2.0386,2.1371,2.1987,2.2104,2.3266,2.3818,2.3739,2.3739,2.3711,2.3661,2.3653,2.3646,2.3596,2.3538,2.3473,2.3392,2.3304,2.326,2.326,2.3304,2.3473,0.0,0.0,0.0,0.0,0.0,0.0,0.0,0.0,2.9502,2.957,2.957,2.9578,2.9736,3.0442,3.1091,3.1647,3.2144,3.264,3.3134,3.3529,3.3865,3.4501,3.6041,3.6613,3.7379,3.9484,4.0215,4.0529,4.077,4.1122,4.1632,0.0,4.3838,0.0,0.0,0.0,0.0,0.0,0.0,0.0,0.0,0.0,0.0,0.0,0.0,0.0,0.0,0.0,0.0,0.0,4.7984,4.7612,4.7019,4.7019,4.7019,4.7019,4.7709,4.8049,4.8133,4.8733,4.8996,4.8996,4.9144,4.9044,4.8715,4.8184,4.7654,4.7024,4.5996,4.5249,4.4814,4.5002,4.5278,4.5515,0.0,0.0,0.0,0.0,0.0,0.0,0.0,0.0,0.0,0.0,0.0,0.0,0.0,0.0,0.0,0.0,0.0,0.0,2.01,2.0115,2.0368,2.0962,2.1514,2.2124,2.2787,2.3591,2.4003,2.4003,2.4003,2.4003,2.4003,2.3861,2.3797,2.3797,2.3674,2.3595,2.3595,2.3595,2.3595,2.3595,2.3739,2.3882,2.4003,0.0,0.0,0.0,0.0,0.0,0.0,0.0,2.9305,2.9305,2.9305,2.9712,3.033,3.1002,3.1713,3.2382,3.279,3.2912,3.2987,3.3316,3.366,3.4622,3.7322,3.7673,3.8003,4.0008,4.0935,4.1227,4.0531,4.095,4.1632,4.2291,4.3464,0.0,0.0,0.0,0.0,0.0,0.0,0.0,0.0,0.0,0.0,0.0,0.0,0.0,0.0,0.0,0.0,0.0,4.7405,4.7019,4.7309,4.7309,4.7309,4.7309,4.7767,4.8091,4.8286,4.8774,4.8996,4.8996,4.8996,4.8455,4.7604,4.779,4.7223,4.6187,4.6187,4.5797,4.522,4.5442,4.5515,4.5515,0.0,0.0,0.0,0.0,0.0,0.0,0.0,0.0,0.0,0.0,0.0,0.0,0.0,0.0,0.0,0.0,0.0,0.0,2.0056,2.0466,2.078,2.0865,2.2011,2.2743,2.294,2.3779,2.4193,2.4145,2.4145,2.4103,2.4003,2.3961,2.3882,2.3797,2.376,2.3696,2.3595,2.3696,2.3739,2.3739,2.3782,2.3882,2.3982,0.0,0.0,0.0,0.0,0.0,0.0,0.0,0.0,0.0,2.9282,2.9356,2.9651,3.0835,3.129,3.1614,3.2729,3.331,3.3811,3.4613,3.4804,3.5581,3.8519,3.8983,3.9415,4.1505,4.2038,4.1955,4.1423,4.1586,0.0,4.2327,0.0,0.0,0.0,0.0,0.0,0.0,0.0,0.0,0.0,0.0,0.0,0.0,0.0,0.0,0.0,0.0,0.0,0.0,4.7123,4.6931,4.7019,4.7207,4.7309,4.7309,4.7922,4.8175,4.8091,4.851,4.8718,4.8687,4.8372,4.8088,4.7769,4.7006,4.622,4.55,4.5649,4.5577,4.5442,4.5625,4.5698,4.5698,0.0,0.0,0.0,0.0,0.0,0.0,0.0,0.0,0.0,0.0,2.0182,2.0409,0.0,0.0,0.0,0.0,0.0,0.0,2.0343,2.0761,2.1076,2.1277,2.2384,2.3158,2.3473,2.402,2.4276,2.425,2.425,2.4193,2.413,2.4088,2.4003,2.3882,2.3818,2.376,2.3696,2.3818,2.3903,2.3961,2.3988,2.4046,2.4082,0.0,0.0,0.0,0.0,0.0,0.0,0.0,0.0,0.0,2.8642,2.9186,2.9949,3.0782,3.1391,3.1925,3.2674,3.3298,3.3983,3.5137,3.5202,3.5772,3.8782,3.9986,4.0793,4.1972,4.2434,4.2458,4.1931,4.201,0.0,0.0,0.0,0.0,0.0,0.0,0.0,0.0,0.0,0.0,0.0,0.0,0.0,0.0,0.0,0.0,0.0,0.0,0.0,0.0,4.7019,4.7019,4.7193,4.7452,4.7639,4.7709,4.8317,4.8372,4.7987,4.862,4.8558,4.8016,4.7455,4.7278,4.7263,4.6325,4.5728,4.5442,4.5589,4.5625,4.5625,4.5771,4.5807,4.5771,0.0,0.0,0.0,0.0,0.0,0.0,0.0,0.0,0.0,0.0,2.0777,2.108,0.0,0.0,0.0,0.0,0.0,0.0,0.0,2.1088,2.1447,2.2055,2.2742,2.3442,2.4193,2.4276,2.4302,2.4302,2.4302,2.4333,2.4374,2.4321,2.4246,2.4186,2.4003,2.3909,2.3915,2.3991,2.4112,2.4315,2.4347,2.4347,2.4294,2.4258,0.0,0.0,0.0,0.0,0.0,0.0,0.0,0.0,2.7657,2.902,3.0635,3.0735,3.1685,3.2687,3.2617,3.2977,3.3741,3.5184,3.5322,3.5842,3.8531,4.0567,4.1838,4.1789,4.2395,4.2777,4.2208,4.2276,4.2836,0.0,0.0,0.0,0.0,0.0,0.0,0.0,0.0,0.0,0.0,0.0,0.0,0.0,0.0,0.0,0.0,0.0,0.0,0.0,4.7062,4.7149,4.7581,4.788,4.8175,0.0,4.8754,4.8571,4.7889,4.8789,4.8433,4.7091,4.6506,4.6307,4.64,4.5766,4.5625,4.5807,4.5807,4.5807,4.5807,4.5807,4.5771,4.5735,0.0,0.0,0.0,0.0,0.0,0.0,0.0,0.0,0.0,0.0,0.0,0.0,0.0,0.0,0.0,0.0,0.0,0.0,0.0,2.2267,2.2616,2.2788,2.3524,2.4055,2.4261,2.4281,2.4302,2.4302,2.4302,2.4558,2.5081,2.4958,2.5184,2.5703,2.5043,2.4734,2.4726,2.4316,2.4472,2.4983,2.5004,2.5004,2.4961,2.4756,2.4427,0.0,0.0,0.0,0.0,0.0,0.0,0.0,2.7273,2.8217,2.9273,3.0344,3.0846,3.1311,3.2327,3.2921,3.3658,3.5384,3.7107,3.8605,3.938,4.0324,4.1258,4.2275,4.2519,4.2578,4.2763,4.2708,0.0,0.0,0.0,0.0,0.0,0.0,0.0,0.0,0.0,0.0,0.0,0.0,0.0,0.0,0.0,0.0,0.0,0.0,0.0,4.7309,4.7251,4.7337,4.7581,4.816,4.8495,0.0,4.864,4.8294,4.7621,4.8223,4.7825,4.6633,4.6492,4.6243,4.594,4.5798,4.5771,4.5807,4.5807,4.5807,4.5807,4.5807,4.5698,4.5552,0.0,0.0,0.0,0.0,0.0,0.0,0.0,0.0,0.0,0.0,0.0,0.0,0.0,0.0,0.0,0.0,0.0,0.0,0.0,0.0,2.3295,2.3616,2.403,2.4255,2.4302,2.4302,2.4338,2.44,2.4662,2.4921,2.5194,2.5487,2.5749,2.5986,2.5576,2.5409,2.5462,2.5179,2.5343,2.5775,2.5775,2.5731,2.5649,2.5522,2.5175,2.4761,2.4799,0.0,0.0,0.0,0.0,0.0,0.0,0.0,2.8605,2.9637,3.0202,3.0721,3.1659,3.2479,3.3559,3.5659,3.7861,3.952,3.9446,4.0088,4.0959,4.188,4.2335,4.2622,4.2795,0.0,0.0,0.0,0.0,0.0,0.0,0.0,0.0,0.0,0.0,0.0,0.0,0.0,0.0,0.0,0.0,0.0,0.0,4.7164,4.7207,4.7424,4.7424,4.7581,4.7922,4.851,4.8841,4.8934,4.8788,4.8198,4.7152,4.7101,4.6935,4.6638,4.6307,4.6029,4.5807,4.5807,4.5807,4.5807,4.5807,4.5807,4.5771,4.5698,4.5589,4.5478,0.0,0.0,0.0,0.0,0.0,0.0,0.0,0.0,0.0,0.0,0.0,0.0,0.0,0.0,0.0,0.0,0.0,0.0,0.0,0.0,0.0,2.4287,2.4317,2.4317,2.4302,2.4317,2.438,2.4498,2.5311,2.5674,2.5626,2.6199,2.6456,2.6455,2.6206,2.6171,2.6281,2.6123,2.6222,2.6526,2.6565,2.6504,2.6397,2.6375,2.6138,2.5764,2.5176,2.495,2.4852,2.416,0.0,0.0,0.0,0.0,2.8146,2.8925,2.9644,3.0334,3.101,3.2175,3.3774,3.6079,3.8082,3.9433,3.9296,3.9979,4.0739,4.1305,4.21,4.2648,0.0,0.0,0.0,0.0,0.0,0.0,0.0,0.0,0.0,0.0,0.0,0.0,0.0,0.0,0.0,0.0,0.0,0.0,4.7207,4.7207,4.7337,4.7581,4.7624,4.788,4.8301,4.8666,4.8891,4.9048,4.8647,4.7785,4.6576,4.5987,4.6071,4.6597,4.6044,4.5807,4.5807,4.5807,4.5807,4.5807,4.5807,4.5771,4.5735,4.5552,4.5478,4.5352,0.0,0.0,0.0,0.0,0.0,0.0,0.0,0.0,0.0,0.0,2.4194,2.4158,0.0,0.0,0.0,0.0,0.0,0.0,0.0,0.0,0.0,2.4302,2.44,2.4421,2.4302,2.44,2.4477,2.4498,2.643,2.7496,2.7701,2.7573,2.8112,2.9124,2.7839,2.7355,2.7419,2.6557,2.6543,2.7102,2.7211,2.7257,2.7234,2.7102,2.6603,2.5932,2.5735,2.5604,2.5398,2.4717,2.4552,0.0,0.0,0.0,2.74,2.8652,2.9195,2.9618,3.0846,3.2816,3.4901,3.681,3.7948,3.8826,3.975,4.0092,4.0476,0.0,4.21,0.0,0.0,0.0,0.0,0.0,0.0,0.0,0.0,0.0,0.0,0.0,0.0,0.0,0.0,0.0,0.0,0.0,0.0,0.0,4.6975,4.6975,4.7149,4.7596,4.7837,4.8049,4.8286,4.8204,4.8153,4.8177,4.7068,4.6266,4.5678,4.5599,4.5672,4.5934,4.5855,4.5807,4.5807,4.5807,4.5807,4.5807,4.5807,4.5698,4.5552,4.5515,4.5278,4.4949,0.0,0.0,0.0,0.0,0.0,0.0,0.0,0.0,0.0,0.0,0.0,2.4338,0.0,0.0,0.0,0.0,0.0,0.0,0.0,0.0,0.0,2.4467,2.4508,2.4523,2.4467,2.4523,2.4625,2.4782,2.6748,2.8124,2.8959,2.9305,2.9696,3.0003,2.8967,2.8562,2.8659,2.8031,2.7984,2.8302,2.8056,2.8196,2.8464,2.8056,2.8048,2.808,2.6903,2.6585,2.6557,2.5501,2.5204,2.5393,2.6053,0.0,0.0,0.0,2.853,2.8971,3.0494,3.2733,3.4881,3.6028,3.7375,3.8542,3.9032,3.9653,4.024,4.0704,4.1263,0.0,0.0,0.0,0.0,0.0,0.0,0.0,0.0,0.0,0.0,0.0,0.0,0.0,0.0,0.0,0.0,0.0,0.0,4.7121,4.7121,4.6892,4.6911,4.7265,4.7137,4.7129,4.7374,4.7364,4.7262,4.7006,4.6445,4.5897,4.5331,4.5331,4.5515,4.5807,4.5807,4.5807,4.5807,4.5807,4.5807,4.5807,4.5807,4.5662,4.5478,4.5368,4.5167,4.4874,0.0,0.0,0.0,0.0,0.0,0.0,0.0,0.0,0.0,0.0,0.0,0.0,0.0,0.0,0.0,0.0,0.0,0.0,0.0,0.0,0.0,2.4609,2.463,2.463,2.4609,2.463,2.4766,2.5005,2.6916,2.8373,2.943,3.0512,3.0915,3.0605,2.9867,2.9674,2.9818,2.9414,2.9249,2.9266,2.902,2.9177,2.9511,2.9029,2.9414,2.9974,2.847,2.8092,2.8169,2.7006,2.648,2.638,2.6853,2.71,0.0,0.0,0.0,2.8647,3.0093,3.1955,3.3741,3.4626,3.6019,3.7353,3.7848,3.874,3.9542,0.0,0.0,0.0,0.0,0.0,0.0,0.0,0.0,0.0,0.0,0.0,0.0,0.0,0.0,0.0,0.0,0.0,0.0,0.0,0.0,4.6715,4.6715,4.6406,4.6403,4.675,4.6438,4.6404,4.6603,4.6576,4.6315,4.5786,4.5786,4.5559,4.5129,4.5129,4.5352,4.5735,4.5735,4.5735,4.5807,4.5807,4.5807,4.5807,4.5807,4.5662,4.5478,4.5257,4.5092,4.4874,0.0,0.0,0.0,0.0,0.0,0.0,0.0,0.0,0.0,0.0,0.0,0.0,2.4605,2.4589,2.4645,2.4782,2.4782,0.0,0.0,0.0,0.0,2.4609,2.4726,0.0,2.4609,2.4726,2.4862,2.5005,2.719,2.8467,2.8865,3.0634,3.1515,3.1592,3.0663,3.0437,3.0705,3.0168,2.9773,2.9529,3.0086,3.0153,2.9974,3.0086,3.0338,3.0656,3.0551,3.0438,3.0253,2.9594,2.8636,2.7685,2.759,2.7391,2.7291,0.0,0.0,0.0,2.9659,3.037,3.1229,3.27,3.3487,3.4435,3.6363,0.0,3.8073,0.0,0.0,0.0,0.0,0.0,0.0,0.0,0.0,0.0,0.0,0.0,0.0,0.0,0.0,0.0,0.0,0.0,0.0,0.0,0.0,4.5132,4.5132,4.5284,4.5586,4.6037,4.6234,4.6404,4.6603,4.5996,4.5334,4.4671,4.4671,4.4754,4.4911,4.4911,4.5151,4.5515,4.5515,4.5625,4.5807,4.5807,4.5807,4.5807,4.5807,4.5662,4.5478,4.5257,4.5092,4.4874,0.0,0.0,0.0,0.0,0.0,0.0,0.0,0.0,0.0,0.0,0.0,0.0,0.0,2.5589,2.548,2.5151,2.5119,0.0,0.0,0.0,0.0,2.5045,2.51,2.51,2.5045,2.5009,2.5064,2.5182,2.6813,2.8044,2.8951,2.9998,3.1215,3.2529,3.1521,3.1084,3.1116,3.0777,3.0495,3.027,3.0251,3.067,3.1268,3.1296,3.2095,3.3201,3.2631,3.2363,3.2065,3.1008,3.014,2.9394,2.8617,2.8435,2.8406,2.8025,2.8273,2.8741,2.906,2.9904,3.0865,3.1473,3.2397,3.3502,3.4635,3.5374,3.623,0.0,0.0,0.0,0.0,0.0,0.0,0.0,0.0,0.0,0.0,0.0,0.0,0.0,0.0,0.0,0.0,0.0,0.0,0.0,0.0,0.0,4.5593,4.5379,4.5394,4.5538,4.5347,4.5218,4.5295,4.5103,4.4856,4.461,4.461,4.4648,4.4685,4.4685,4.4852,4.5114,4.5241,4.5478,4.5807,4.5807,4.5807,4.5807,4.5807,4.5662,4.5478,4.5257,4.5092,4.4874,0.0,0.0,0.0,0.0,0.0,0.0,0.0,0.0,2.5461,2.6083,0.0,0.0,0.0,0.0,2.6438,2.605,2.5814,2.5705,2.5705,2.5481,2.5336,2.5336,2.5314,2.5294,2.5294,2.5166,2.5166,2.5294,2.6345,2.738,2.8404,2.9234,3.06,3.2299,3.1764,3.1548,3.1589,3.1406,3.1298,3.1222,3.1177,3.1663,3.2417,3.2417,3.3442,3.4788,3.415,3.3891,3.3726,3.2773,3.1723,3.0703,2.9876,2.9328,2.887,2.8202,2.8122,2.8274,2.8428,2.9113,2.9845,2.9947,3.0825,3.1903,3.2755,3.3621,3.4591,0.0,0.0,0.0,0.0,0.0,0.0,0.0,0.0,0.0,0.0,0.0,0.0,0.0,0.0,0.0,0.0,0.0,0.0,0.0,0.0,0.0,4.5253,4.5057,4.5008,4.5055,4.478,4.461,4.461,4.461,4.461,4.461,4.461,4.461,4.461,4.461,4.4723,4.4911,4.5039,4.5315,4.5698,4.5771,4.5807,4.5807,4.5807,4.5698,4.5589,4.5368,4.5204,4.5077,0.0,0.0,0.0,0.0,0.0,0.0,0.0,0.0,2.6814,2.7104,0.0,0.0,0.0,0.0,0.0,2.7421,2.6893,2.6546,2.6546,2.5867,2.5445,2.5429,0.0,0.0,2.5314,2.5182,2.5182,2.5294,2.5903,2.6543,2.7222,2.8487,2.9706,3.0822,3.1353,3.1817,3.2199,3.2054,3.2132,3.2362,3.2838,3.3111,3.3283,3.3497,3.4301,3.5269,3.5101,3.5134,3.5266,3.5071,3.3471,3.1572,3.1366,3.0039,2.8524,2.8102,2.7815,2.7625,0.0,0.0,0.0,2.8162,2.87,2.9501,3.0762,0.0,3.3213,0.0,0.0,0.0,0.0,0.0,0.0,0.0,0.0,0.0,0.0,0.0,0.0,0.0,0.0,0.0,0.0,0.0,0.0,0.0,0.0,4.4026,4.4026,4.4205,4.4396,4.4572,4.461,4.461,4.461,4.461,4.461,4.461,4.461,4.461,4.461,4.461,4.4685,4.4874,4.4911,4.5114,4.5515,4.5698,4.5771,4.5771,4.5771,4.5771,4.5771,4.5552,4.5478,4.5478,0.0,0.0,0.0,0.0,0.0,2.7024,2.6997,2.6981,2.7219,0.0,0.0,0.0,2.8456,2.8127,2.7919,2.7919,2.776,2.7646,2.7646,2.7375,2.6958,2.6438,2.6811,2.6554,2.5537,2.5798,2.5755,2.5294,2.5899,2.6513,2.7142,2.8018,2.9328,3.0948,3.1101,3.1668,3.2476,3.2336,3.2403,3.2631,3.3246,3.398,3.4735,3.557,3.6374,3.7181,3.7959,3.7952,3.7497,0.0,3.5746,3.403,3.15,2.9749,2.8498,2.8001,2.774,2.765,2.788,0.0,0.0,0.0,0.0,0.0,0.0,0.0,0.0,0.0,0.0,0.0,0.0,0.0,0.0,0.0,0.0,0.0,0.0,0.0,0.0,0.0,0.0,0.0,0.0,0.0,0.0,0.0,4.4083,4.4435,4.4435,4.4511,4.4549,4.461,4.461,4.461,4.461,4.461,4.461,4.461,4.461,4.461,4.461,4.461,4.461,4.4685,4.4836,4.4949,4.5114,4.5426,4.5589,4.5589,4.5589,4.5589,4.5552,4.5368,4.5368,4.5478,0.0,0.0,0.0,0.0,0.0,2.809,2.8106,2.809,2.8277,0.0,0.0,0.0,2.9355,2.9185,2.9042,2.8981,2.8759,2.8599,2.8599,2.8187,2.7751,2.7326,2.7559,2.7332,2.6487,2.6659,2.6574,2.6174,2.6443,2.691,2.7525,2.7971,2.92,3.1074,3.1074,3.1726,3.2812,3.297,3.3071,3.3276,3.4165,3.4983,3.5733,3.662,3.7349,3.795,3.878,3.8837,3.8464,3.825,3.6908,0.0,3.1857,3.0086,2.8997,2.8459,2.8042,2.779,2.7955,2.8029,2.8128,2.8275,0.0,0.0,2.906,2.9921,0.0,0.0,0.0,0.0,0.0,0.0,0.0,0.0,0.0,0.0,0.0,0.0,0.0,0.0,0.0,0.0,0.0,0.0,0.0,4.3407,4.3903,4.4317,4.461,4.461,4.461,4.461,4.461,4.461,4.461,4.461,4.461,4.461,4.461,4.461,4.461,4.461,4.461,4.461,4.4723,4.4836,4.4911,4.5151,4.5315,4.5368,4.5368,4.5368,4.5368,4.5331,4.5405,4.5515,0.0,0.0,2.8826,2.9406,2.9582,2.963,2.9608,2.9694,2.9788,0.0,3.0024,3.0185,3.0434,3.0585,3.0606,3.0499,2.9967,2.9613,2.9547,2.8808,2.8305,2.8141,2.8042,2.7887,2.7741,2.7616,2.7507,2.7427,2.7312,2.7569,2.8139,2.8218,2.9303,3.1207,3.1207,3.1921,3.3159,3.3763,3.4023,3.4152,3.5404,3.6169,3.6629,3.7322,3.7855,3.8281,3.8692,3.8875,3.8911,3.9159,3.7412,0.0,0.0,0.0,0.0,2.9197,2.8581,2.8111,2.8035,2.8103,2.821,2.821,0.0,0.0,2.8589,2.9543,3.0452,0.0,0.0,0.0,0.0,0.0,0.0,0.0,0.0,0.0,0.0,0.0,0.0,0.0,0.0,0.0,0.0,4.2117,4.2557,4.3417,4.3639,4.3978,4.4579,4.461,4.461,4.461,4.461,4.461,4.461,4.461,4.461,4.461,4.4587,4.4572,4.4587,4.4549,4.4534,4.4534,4.4549,4.4648,4.4836,4.4874,4.5002,4.5182,4.5182,4.5182,4.522,4.5405,4.5478,4.5552,0.0,2.962,2.9647,2.9643,3.0103,3.045,3.0389,3.094,3.1371,3.1395,3.1674,3.1925,3.2044,3.2177,3.2243,3.2221,3.2001,3.1644,3.1105,3.0816,3.0123,2.8944,2.941,2.9139,2.7899,2.8308,2.822,2.7573,2.8004,2.8291,2.8435,2.8972,2.9987,3.1355,3.1355,3.2023,3.3175,3.4248,3.4849,3.5232,3.6645,3.7867,3.8868,3.975,4.017,4.0324,4.088,4.1077,4.0906,3.9827,3.8091,3.5991,0.0,0.0,0.0,2.947,0.0,2.8713,2.829,2.8186,0.0,0.0,0.0,0.0,2.87,2.895,2.934,0.0,0.0,0.0,0.0,0.0,0.0,0.0,0.0,0.0,0.0,0.0,0.0,0.0,0.0,0.0,0.0,4.0984,4.2027,4.274,4.3771,4.4471,4.461,4.461,4.461,4.461,4.461,4.461,4.461,4.461,4.461,4.461,4.4435,4.4358,4.4358,4.4166,4.4127,4.4143,4.4281,4.4396,4.4435,4.4572,4.4761,4.4964,4.4964,4.5055,4.522,4.5257,4.5478,4.5735,2.9815,3.0172,3.037,3.0303,3.0884,3.1329,3.1314,3.1652,3.1885,3.1885,3.2136,3.2367,3.2478,3.25,3.2478,3.2409,3.2341,3.2148,3.1736,3.131,3.0804,3.0136,3.0103,2.976,2.9062,2.9279,2.9172,2.871,2.8967,2.9057,2.9006,2.9336,3.0177,3.1404,3.133,3.2161,3.3681,3.4703,3.5613,3.6506,3.7746,3.8757,3.9697,4.1098,4.1531,4.1542,4.2125,4.2282,4.201,4.0597,3.918,0.0,3.5083,3.3411,3.1989,0.0,2.9419,2.9057,0.0,0.0,0.0,2.8372,0.0,0.0,0.0,2.8545,2.8826,0.0,0.0,0.0,0.0,0.0,0.0,0.0,0.0,0.0,0.0,0.0,0.0,0.0,0.0,0.0,0.0,3.9687,4.0986,4.2032,4.3033,4.3741,4.4086,4.4117,4.4255,4.461,4.461,4.461,4.461,4.4496,4.4473,4.4419,4.3907,4.3807,4.4127,4.3715,4.3669,4.4026,4.4104,4.4205,4.432,4.4396,4.4572,4.4761,4.4761,4.4814,4.4942,4.5145,4.5331,4.5515,2.988,3.0441,3.0904,3.0904,3.1616,3.2206,3.2206,3.2319,3.2417,3.244,3.2763,3.3068,3.3224,3.3399,3.342,3.3251,3.3226,3.3024,3.2603,3.1983,3.1602,3.1635,3.0851,3.0468,3.0598,3.0359,3.0125,2.9832,2.9776,2.9697,2.9586,2.9707,3.0375,3.1444,3.1566,3.2499,3.4088,3.5288,3.6444,3.7621,3.8888,3.9607,4.0088,4.1768,4.2369,4.2421,4.3031,4.3019,4.2562,4.1277,4.0091,3.8725,3.6514,3.466,0.0,0.0,0.0,0.0,0.0,0.0,0.0,0.0,0.0,2.8477,0.0,0.0,0.0,0.0,0.0,0.0,0.0,0.0,0.0,0.0,0.0,0.0,0.0,0.0,0.0,0.0,0.0,0.0,0.0,3.8338,3.9601,4.0724,4.1678,4.2432,4.2956,4.327,4.3732,4.4409,4.4425,4.4486,4.461,4.4259,4.4098,4.4083,4.3183,4.3039,4.3539,4.3092,4.3159,4.3713,4.3849,4.4065,4.4243,4.4281,4.4435,4.461,4.461,4.4663,4.4739,4.5092,4.5257,4.5368,2.9874,3.0441,3.0904,3.0904,3.206,3.2967,3.2967,3.3469,3.3907,3.4006,3.5154,3.5935,3.5961,3.7048,3.7658,3.7351,3.721,3.6554,3.5097,3.4505,3.3966,3.3519,3.2457,3.1936,3.205,3.1444,3.0756,2.9973,2.9973,2.9924,2.9869,3.0461,3.1026,3.1605,3.2682,3.3327,3.3798,3.6168,3.7434,3.8068,4.0372,4.1008,0.0,4.1948,4.2716,4.3275,4.3917,4.3647,4.2763,0.0,4.0203,3.8924,0.0,3.6092,3.4302,3.3318,0.0,0.0,0.0,0.0,0.0,0.0,2.9363,0.0,0.0,0.0,0.0,0.0,0.0,0.0,0.0,0.0,0.0,0.0,0.0,0.0,0.0,0.0,0.0,0.0,0.0,0.0,0.0,0.0,3.78,3.7954,3.9708,4.0766,4.0843,4.2048,4.3017,4.3701,4.3716,4.4009,4.4572,4.3799,4.3433,4.338,4.2372,4.1896,4.1987,4.231,4.2518,4.2623,4.338,4.3832,4.4065,4.4243,4.4435,4.461,4.461,4.4814,4.5145,4.5182,4.5442,4.5735,2.9675,3.0629,3.141,3.141,3.266,3.368,3.368,3.4262,3.4929,3.5438,3.6265,3.6933,3.7282,3.8062,3.8581,3.8647,3.8587,3.807,0.0,3.6064,3.5344,3.4808,3.3317,3.2619,3.2809,3.2138,3.1397,3.063,3.063,3.0585,3.049,3.0759,3.141,3.2328,3.3109,3.4281,3.5739,3.7614,3.912,4.0364,4.1934,4.2473,0.0,4.3189,4.3658,4.3988,4.4646,4.3932,4.2613,0.0,4.1524,0.0,0.0,0.0,0.0,0.0,0.0,0.0,0.0,0.0,0.0,0.0,0.0,0.0,2.7644,0.0,2.6693,0.0,0.0,0.0,0.0,0.0,0.0,0.0,0.0,0.0,0.0,0.0,0.0,0.0,0.0,0.0,0.0,0.0,0.0,0.0,0.0,3.7523,3.8708,4.0078,4.1238,4.2226,4.2765,4.303,4.3082,4.2733,4.2484,4.2379,4.1414,4.116,4.152,4.134,4.1677,4.241,4.2788,4.3352,4.4026,4.4104,4.432,4.461,4.461,4.4761,4.5039,4.5182,4.5368,4.5625,2.9761,3.086,3.1798,3.1861,3.3096,3.414,3.4325,3.5065,3.5905,3.6713,3.7568,3.8315,3.8884,3.9706,4.0148,4.0121,4.0275,3.9959,0.0,0.0,3.7288,3.6758,3.4943,0.0,3.4088,3.3064,3.2166,3.147,3.1384,3.1264,3.1165,3.1383,3.1966,3.2835,3.367,3.5078,3.6888,3.8639,4.034,4.1941,4.3118,4.3773,4.4078,4.4293,4.4543,4.4794,4.512,4.4163,4.2803,4.3049,4.2351,0.0,4.0431,0.0,0.0,0.0,0.0,0.0,3.2701,0.0,0.0,0.0,0.0,0.0,0.0,0.0,0.0,0.0,0.0,0.0,0.0,0.0,0.0,2.5084,0.0,0.0,0.0,0.0,0.0,0.0,0.0,0.0,0.0,0.0,0.0,0.0,0.0,0.0,3.5737,3.7582,3.9174,4.0419,4.1393,4.1912,4.1984,4.1765,4.1563,4.1421,4.0553,4.0382,4.0831,4.0531,4.1025,4.2141,4.2321,4.3018,4.3988,4.3988,4.4243,4.461,4.461,4.4723,4.4911,4.5129,4.5331,4.5515,3.0362,3.1134,3.1838,3.1972,3.3161,3.4293,3.488,3.5973,3.7025,3.7774,3.9447,4.0785,4.1334,4.3069,4.3778,4.2787,4.3257,4.3014,4.1591,0.0,4.0432,0.0,0.0,3.678,0.0,0.0,3.3186,3.2458,3.212,3.1892,3.1806,3.2644,3.2943,3.2867,3.4649,3.561,3.613,3.8944,4.0739,4.1844,4.3588,4.4798,4.5529,0.0,4.5153,4.5855,4.5232,0.0,0.0,4.2937,4.2144,0.0,0.0,0.0,0.0,0.0,0.0,0.0,0.0,0.0,0.0,3.3816,0.0,0.0,0.0,0.0,2.8244,0.0,0.0,0.0,0.0,0.0,2.5294,2.5294,2.4716,0.0,0.0,0.0,0.0,0.0,0.0,0.0,0.0,0.0,0.0,0.0,0.0,0.0,3.1551,3.4588,3.6914,3.8259,3.9466,4.0699,4.1984,4.1148,4.0743,4.0728,3.9862,3.9454,3.9514,4.0113,4.0771,4.1482,4.2126,4.3018,4.3988,4.3988,4.4243,4.461,4.461,4.4723,4.4911,4.5129,4.5331,4.5515,3.103,3.1782,3.2449,3.2579,3.3756,3.516,3.6506,3.7441,3.8545,4.0087,4.1538,4.2802,4.3783,4.4808,4.5361,0.0,0.0,4.4639,4.3855,4.2762,0.0,0.0,0.0,3.8357,0.0,0.0,0.0,3.4493,3.3926,3.3505,3.3206,3.3498,3.3903,3.4429,3.5305,3.6632,3.8309,3.9882,4.179,0.0,0.0,4.6117,4.6475,0.0,0.0,4.5986,4.5758,4.4889,0.0,4.4167,4.3462,4.2463,4.2539,4.1896,4.0997,4.0302,3.8886,0.0,0.0,0.0,3.5123,3.4053,0.0,0.0,0.0,0.0,0.0,0.0,0.0,0.0,0.0,2.7139,2.6551,2.6162,2.5067,2.4296,0.0,0.0,0.0,0.0,0.0,0.0,0.0,0.0,0.0,0.0,0.0,0.0,0.0,3.2719,3.5171,3.7284,3.8633,3.9632,4.025,4.0112,3.9956,3.9847,3.955,3.9388,3.9388,3.9649,4.0113,4.0771,4.1467,4.2279,4.3143,4.3281,4.377,4.4389,4.4057,4.4322,4.4911,4.5129,4.5331,4.5515,3.2076,3.2643,3.3033,3.2982,3.4175,3.5703,3.7295,3.8428,3.9818,4.1794,4.311,0.0,4.5615,0.0,4.6522,0.0,4.6282,4.5843,4.5277,4.4266,0.0,4.2864,4.1283,0.0,0.0,0.0,0.0,0.0,3.5537,3.4891,3.4404,3.4525,3.4886,3.5432,3.587,3.7054,3.8779,3.9878,4.1863,0.0,0.0,4.6996,0.0,0.0,4.6199,4.6203,0.0,4.5614,4.4874,4.5111,4.4593,4.3807,4.364,4.3258,4.2785,4.1952,4.0898,3.9875,3.9421,3.8413,0.0,3.6091,3.5386,0.0,3.3175,0.0,0.0,0.0,0.0,0.0,0.0,0.0,2.7626,2.6755,2.5363,2.4204,0.0,2.2736,0.0,0.0,0.0,0.0,0.0,0.0,0.0,0.0,2.4007,0.0,0.0,0.0,3.2701,3.4759,3.6368,3.7721,3.8868,3.8953,3.9159,3.9517,3.9409,3.9388,3.9388,3.9388,3.9783,4.0442,4.11,4.1964,4.2826,4.3206,4.3785,4.4389,4.4132,4.4412,4.4911,4.5129,4.5368,4.5594,3.3372,3.3648,3.3668,3.3266,3.4536,3.6029,0.0,0.0,4.0894,4.2918,4.4297,4.5564,4.6834,4.7417,4.7434,4.6757,4.6863,4.6671,4.6028,4.5528,0.0,0.0,4.3454,4.2663,4.193,0.0,0.0,0.0,0.0,3.6172,3.5473,3.5721,3.5842,3.5874,3.6377,3.6904,3.7548,3.9039,4.0997,4.3358,4.6331,4.7326,4.7,4.7236,4.7058,4.665,4.665,4.653,4.6318,4.5825,4.554,4.5285,4.4825,4.4648,4.4524,4.3877,4.3661,4.3389,4.2224,4.1548,4.0894,3.9787,0.0,0.0,0.0,0.0,3.5295,0.0,0.0,0.0,0.0,0.0,0.0,2.7127,2.5601,2.3912,2.1991,0.0,0.0,0.0,0.0,0.0,0.0,0.0,2.1045,2.1602,2.2686,2.3661,0.0,0.0,2.9637,3.1082,3.2922,3.5167,3.7773,3.7729,3.8355,3.9636,3.9466,3.9388,3.9388,3.9424,3.9753,4.0382,4.1078,4.1979,4.2986,4.3662,4.4182,4.461,4.4768,4.488,4.4949,4.5129,4.5447,4.5665,3.3382,3.4204,3.4826,3.4883,3.6091,3.7514,0.0,0.0,0.0,0.0,4.6315,4.7605,4.8091,4.8769,4.8866,4.8158,4.7868,0.0,0.0,0.0,0.0,4.517,4.4336,4.3775,4.3588,4.1907,0.0,4.1205,0.0,3.8151,3.7818,3.6829,3.6465,3.6622,3.66,3.7202,3.8241,3.8904,4.0739,4.3358,4.5681,4.6575,0.0,0.0,4.7455,4.7342,4.7342,4.7438,4.7481,4.6967,4.6531,4.6115,4.5651,4.5505,4.5421,4.5034,4.47,4.4228,4.3368,4.2507,4.1517,4.0195,3.9477,3.8875,0.0,0.0,0.0,0.0,0.0,0.0,0.0,0.0,0.0,2.8727,2.6087,2.3702,0.0,0.0,0.0,2.1797,0.0,0.0,0.0,2.0958,2.089,2.0961,2.1637,2.2792,0.0,0.0,0.0,3.1171,3.2965,3.4697,3.6392,3.7258,3.8045,3.8717,3.917,3.9388,3.9424,3.9553,3.9715,3.9911,4.0734,4.1561,4.2257,4.2611,4.338,4.4351,4.4198,4.4641,4.5352,4.5405,4.5243,4.497,3.4679,3.5139,3.5642,3.6232,0.0,0.0,3.9905,4.1684,0.0,4.5513,4.7134,0.0,4.8453,4.8998,4.9151,4.8515,4.8126,0.0,4.7676,0.0,0.0,4.6554,4.5975,4.554,4.5227,4.3858,0.0,4.2758,0.0,3.9265,3.8933,3.7617,3.7054,3.7141,3.7054,3.7381,3.8161,3.959,4.1368,4.3434,4.5795,0.0,0.0,4.7707,4.8091,4.8229,4.8229,4.8285,4.841,4.8075,4.7563,4.7022,4.6732,4.6411,4.614,4.6072,4.5872,4.5432,4.4409,4.3746,4.3025,4.1621,4.1114,4.0845,4.0351,3.9922,3.9369,0.0,0.0,0.0,0.0,0.0,0.0,2.8722,2.5955,0.0,0.0,0.0,0.0,0.0,2.2094,0.0,0.0,0.0,2.0925,2.0794,2.1319,0.0,0.0,0.0,0.0,2.9576,3.1478,3.334,3.5124,3.6332,3.7149,3.7676,3.8532,3.9011,3.9097,3.9525,3.9768,3.9884,4.0673,4.1283,4.1751,4.2441,4.324,4.4028,4.4251,4.475,4.5368,4.5478,4.5153,4.467,3.6209,3.6094,3.6242,0.0,0.0,0.0,0.0,4.1992,0.0,4.6158,0.0,4.8313,4.8477,4.8883,4.8974,4.8485,0.0,4.8115,4.8253,4.8097,4.795,4.7855,4.7703,4.7327,4.6646,4.5712,4.4682,0.0,0.0,4.0139,3.9566,3.8241,3.7589,3.751,3.7605,3.7765,3.8132,4.0733,4.2484,4.3715,4.6278,4.7334,4.7436,4.8275,4.8759,4.8996,4.9037,4.9078,4.905,4.893,4.8516,4.7981,4.777,4.7258,4.6781,4.6909,4.6927,4.6669,4.5373,4.5066,4.4755,4.3434,4.3027,4.293,4.2899,4.2257,4.1394,4.0426,3.9159,3.7792,0.0,0.0,0.0,2.8362,0.0,0.0,0.0,0.0,0.0,0.0,0.0,0.0,0.0,0.0,0.0,2.091,2.1312,0.0,0.0,0.0,0.0,2.7326,2.9463,0.0,3.3903,0.0,3.6118,3.6577,3.7822,3.8512,3.8717,3.943,3.9839,4.0061,4.0674,4.1086,4.1434,4.2613,4.3306,4.3707,4.4573,4.5002,4.5204,4.5311,4.4991,4.4425,3.5518,3.6154,3.6759,0.0,0.0,4.1388,4.2826,4.5112,4.6833,4.7301,4.8992,4.9988,4.9664,4.9885,4.9833,4.9176,4.8907,0.0,0.0,0.0,0.0,4.761,4.7763,4.7662,4.7352,4.6997,4.6506,0.0,0.0,4.2097,4.1161,3.925,3.8017,3.7526,3.8081,3.9141,4.056,4.2,0.0,4.4549,4.6702,4.7563,4.764,4.8317,4.8759,4.9037,4.9169,4.9372,4.9423,4.9024,4.9018,4.9026,4.8003,4.7735,4.7686,4.7259,4.7149,4.7021,4.6422,4.5846,4.5221,4.443,4.3633,4.3037,4.293,4.2443,4.1789,4.1069,3.959,3.8261,3.7652,0.0,0.0,0.0,0.0,0.0,0.0,0.0,0.0,0.0,0.0,0.0,0.0,0.0,0.0,0.0,0.0,0.0,0.0,0.0,0.0,0.0,0.0,0.0,0.0,0.0,0.0,3.5716,3.7543,3.8512,3.8717,3.9587,4.0066,4.0242,4.0489,4.0942,4.1581,4.1812,4.2674,4.3938,4.4611,4.5002,4.5157,4.4617,4.3981,4.3412,3.7809,0.0,3.8685,0.0,0.0,0.0,0.0,4.7059,0.0,4.8605,4.9659,5.0215,4.9807,5.0167,5.0255,4.9704,4.9784,4.9784,4.9512,4.9484,4.9343,4.8943,4.8733,0.0,4.795,4.7699,4.7356,4.687,0.0,0.0,4.2477,4.0497,3.9218,3.8555,3.9188,4.0189,0.0,0.0,0.0,4.5741,4.7065,4.7819,4.8158,4.8496,4.8826,4.9184,4.9291,4.9477,4.9749,4.9646,4.9476,4.9313,4.905,4.8469,4.7948,4.7903,4.7647,4.7239,4.675,4.6353,4.5826,4.477,4.4072,4.3557,4.3012,4.2634,4.214,4.1402,4.0588,3.9646,3.8495,3.5899,0.0,0.0,0.0,0.0,0.0,0.0,0.0,0.0,0.0,0.0,0.0,0.0,0.0,0.0,0.0,0.0,0.0,0.0,0.0,0.0,0.0,0.0,0.0,0.0,0.0,3.5795,3.7669,3.8736,3.9043,3.9797,4.0242,4.0401,4.0455,4.0689,4.1078,4.1447,4.2258,4.3272,4.358,4.3778,4.382,4.3604,4.3065,4.2478,4.0217,4.0269,0.0,0.0,4.2807,0.0,4.6451,4.8324,4.9569,4.9734,5.0124,5.0288,4.999,5.0382,5.0532,5.0212,5.0514,5.0784,5.0955,5.0625,5.044,5.044,4.9868,4.9259,4.8664,4.8364,4.7929,0.0,0.0,0.0,0.0,4.1897,4.0891,0.0,0.0,0.0,0.0,0.0,4.541,4.696,4.7663,4.8265,4.8744,4.8744,4.899,4.9356,4.9356,4.9597,4.9916,5.0129,4.988,4.948,4.9812,4.9026,4.8068,4.8293,4.7908,4.7305,4.6914,4.6667,4.6305,4.5217,4.4565,4.4015,4.3382,4.2935,4.2488,4.1861,4.1475,4.0744,3.9158,3.6891,0.0,0.0,0.0,0.0,0.0,0.0,0.0,0.0,0.0,0.0,0.0,0.0,0.0,0.0,0.0,0.0,0.0,0.0,0.0,0.0,0.0,2.9973,3.2176,0.0,3.5442,0.0,3.7888,3.8944,3.9333,4.0006,4.0366,4.0489,4.0489,4.0489,4.0551,4.1309,4.1909,4.2402,4.2556,4.2602,4.2586,4.2628,4.2246,4.1771,0.0,0.0,0.0,0.0,0.0,0.0,4.7124,4.888,5.0106,5.0137,5.072,5.1094,5.1035,5.0985,5.0925,5.0909,5.0789,5.0697,5.074,5.0851,5.0933,5.0933,5.046,5.0113,4.9832,4.9228,4.8546,0.0,0.0,0.0,0.0,0.0,0.0,0.0,0.0,0.0,0.0,4.6315,4.7105,4.7942,4.8795,4.9172,4.9235,4.9235,4.9356,4.9557,4.9557,4.9717,4.9876,4.9916,5.0042,5.0094,4.948,4.8914,4.8384,4.8068,4.7478,4.7014,4.7321,4.693,4.6405,4.642,4.5288,4.4225,4.4331,4.359,4.2852,4.2787,4.1699,4.057,3.9895,3.8635,3.7272,0.0,0.0,0.0,0.0,0.0,0.0,0.0,0.0,0.0,0.0,0.0,0.0,0.0,0.0,0.0,0.0,0.0,0.0,2.5539,0.0,3.0428,3.2176,3.4759,0.0,3.6035,3.8007,3.9082,3.9333,4.0006,4.0366,4.0489,4.0489,4.0489,4.0551,4.1309,4.1632,4.1755,4.2371,4.2602,4.254,4.196,4.1683,4.1544,0.0,0.0,0.0,0.0,0.0,0.0,0.0,4.9689,5.0514,5.078,5.1003,5.1214,5.1214,5.1422,5.1592,5.1592,5.1521,5.1598,5.1882,5.1317,5.1141,5.1413,5.0851,5.0294,4.9808,4.9546,4.9052,0.0,0.0,0.0,0.0,0.0,0.0,0.0,0.0,4.5294,4.6367,4.7221,4.7957,4.8649,4.9101,4.9316,4.9316,4.9316,4.9437,4.9597,4.9597,4.9717,4.9852,4.9442,4.974,5.0253,5.0099,4.9395,4.8602,4.8566,4.7783,4.6996,4.7403,4.729,4.7012,4.6733,4.619,4.5468,4.4532,4.3981,4.356,4.3119,4.228,4.1451,4.0803,3.9627,3.8308,0.0,0.0,0.0,0.0,0.0,0.0,0.0,0.0,0.0,0.0,0.0,0.0,0.0,0.0,0.0,0.0,0.0,0.0,2.614,0.0,3.0464,3.3556,3.4911,3.644,3.8111,3.9234,3.9849,4.0036,4.0313,4.047,4.0489,4.0489,4.0489,4.052,4.0797,4.0955,4.0986,4.1212,4.132,4.1324,4.1063,4.0955,4.0924,4.5178,0.0,4.6264,0.0,4.7585,4.8788,4.9778,5.0457,5.0968,5.1154,5.1214,5.1214,5.1214,5.1664,5.2002,5.2002,5.1994,5.2211,5.2667,5.1796,5.15,5.1975,5.1344,0.0,5.0005,4.9789,4.9343,4.862,4.825,0.0,0.0,0.0,0.0,0.0,4.5967,4.6691,4.7219,4.7985,4.8562,4.9037,4.921,4.9316,4.9316,4.9316,4.9437,4.9597,4.9597,4.9591,4.9536,4.9047,4.9272,4.9757,4.9834,4.9155,4.8345,4.8578,4.7777,4.6876,4.7285,4.7403,4.7339,4.7078,4.6815,4.6321,4.4958,4.4498,4.4153,4.3382,4.2779,4.2113,4.1346,4.0293,3.8999,3.7337,0.0,0.0,0.0,0.0,0.0,0.0,2.9116,2.8942,2.7362,0.0,0.0,0.0,0.0,0.0,0.0,0.0,0.0,0.0,0.0,0.0,0.0,3.5416,3.7011,3.9231,3.9987,4.0401,4.0436,4.0436,4.047,4.0489,4.0489,4.0489,4.0489,4.0489,4.0489,4.0489,4.0489,4.0489,4.0489,4.0489,4.0489,4.0489,4.5589,4.7034,4.8214,4.8019,4.9792,5.1073,5.0668,5.115,5.1479,5.1214,5.1214,5.1214,5.1214,5.1664,5.2002,5.2002,5.1994,5.2211,5.2667,5.2244,5.2211,0.0,0.0,5.1374,5.0697,5.002,4.9343,4.862,0.0,0.0,4.688,0.0,4.6586,4.7824,4.7654,4.7958,4.8589,4.8883,4.8996,4.9037,4.921,4.9316,4.9316,4.9316,4.9437,4.9597,4.9597,4.9276,4.8904,4.8889,4.8713,4.8493,4.8216,4.7797,4.7457,4.7653,4.7178,4.6703,4.7098,4.7217,4.7285,4.7605,4.7144,4.6452,4.5916,4.5218,4.4489,4.3747,4.3002,4.2229,4.137,4.0588,3.9522,3.778,0.0,0.0,0.0,0.0,0.0,0.0,3.0215,2.9935,2.807,0.0,0.0,0.0,0.0,0.0,0.0,0.0,0.0,2.7641,2.9543,0.0,3.4474,3.6476,3.7831,3.8539,3.9844,4.0436,4.0312,4.0312,4.0366,4.0489,4.0489,4.0489,4.0489,4.0489,4.0489,4.0489,4.0489,4.0489,4.0489,4.0489,4.0489,4.0489,4.7364,4.8015,4.8611,4.9021,5.0197,5.097,5.0638,5.1165,5.1494,5.1229,5.1214,5.1214,5.1214,5.1494,5.1787,0.0,5.1844,5.2004,0.0,5.226,5.2226,5.2683,5.2513,5.2067,5.1405,5.0713,5.0035,4.9343,0.0,0.0,0.0,4.7161,4.7284,4.77,4.8122,4.8419,4.862,4.8898,4.8996,4.9037,4.921,4.9316,4.9316,4.9316,4.9356,4.9396,4.9396,4.9078,4.8608,4.8105,4.7779,4.7442,4.6907,4.7213,4.7816,4.7903,4.737,4.6842,4.7149,4.7217,4.7251,4.7487,4.739,4.6898,4.5731,4.4481,4.3528,4.3314,4.3174,4.2812,4.1805,4.1131,4.0214,3.8692,0.0,0.0,0.0,0.0,0.0,0.0,3.1539,3.1706,0.0,3.1313,0.0,0.0,0.0,0.0,0.0,0.0,0.0,0.0,3.1082,0.0,3.583,3.6953,3.8077,3.9182,3.9971,4.0261,4.0101,4.0242,4.0312,4.0366,4.047,4.0489,4.0489,4.0489,4.0489,4.0489,4.0489,4.0489,4.0489,4.0489,4.0436,4.0366,4.8162,4.8653,4.9206,4.9869,5.0729,5.1274,5.1015,5.1316,5.1494,5.1229,5.1214,5.1214,5.1214,5.1354,0.0,5.1849,5.162,5.1782,5.2517,5.2096,5.2107,5.2683,5.2713,5.2406,5.1713,0.0,0.0,5.0066,4.9358,4.8804,4.8373,4.8112,4.7989,4.8004,4.8419,4.862,4.862,4.8759,4.8857,4.8857,4.899,4.9031,4.9031,4.9031,4.9087,4.9169,4.9169,4.8698,4.802,4.7527,4.701,4.6418,4.6006,4.649,4.72,4.7307,4.7055,4.6719,4.6927,4.6961,4.703,4.7217,4.7285,4.6909,4.5424,4.3956,4.2912,4.2912,4.3005,4.2792,4.1786,4.1283,4.0518,3.8982,3.7912,3.692,3.5957,0.0,0.0,0.0,0.0,0.0,0.0,3.3355,0.0,0.0,0.0,0.0,0.0,0.0,0.0,3.222,3.3246,0.0,3.7341,3.802,3.871,3.9373,3.9856,4.0066,3.9996,4.0137,4.0242,4.0312,4.0436,4.0489,4.0489,4.0489,4.0489,4.0489,4.0489,4.0489,4.0489,4.042,4.0366,4.0312,4.8222,4.9059,0.0,0.0,5.1379,0.0,5.1587,5.1572,5.1494,5.1214,5.1214,5.1214,5.1214,5.1214,5.1308,5.1541,0.0,0.0,0.0,5.1889,5.1961,5.2638,5.2713,5.2421,5.179,5.1728,5.1374,5.0697,5.002,4.9682,4.9666,4.8958,4.862,4.862,4.862,4.862,4.862,4.862,4.862,4.862,4.862,4.862,4.862,4.862,4.8759,4.8955,4.8955,4.8217,4.7177,4.7177,4.6425,4.5468,4.5468,4.5614,4.5832,4.6191,4.6298,4.6333,4.6528,4.6582,4.6617,4.6807,4.6777,4.6356,4.5062,4.3622,4.2554,4.2522,4.2522,4.2297,4.1465,4.1117,4.0419,3.8792,3.8246,3.7576,3.6393,0.0,0.0,0.0,0.0,0.0,0.0,3.4801,3.5437,0.0,0.0,0.0,0.0,0.0,3.2604,3.5077,3.5806,3.7,3.877,3.9468,3.9624,3.9249,3.9556,3.9803,3.9975,3.9996,4.0101,4.0277,4.0436,4.0489,4.0489,4.0489,4.0489,4.0489,4.0489,4.0489,4.0489,4.0347,4.0312,4.0242,0.0,0.0,5.0258,5.0963,5.1249,5.1369,5.1308,5.1308,5.1261,5.1214,5.1214,5.1214,5.1214,5.1214,5.1214,5.1308,5.1452,5.1698,5.2063,5.2123,5.2228,5.2397,5.2608,5.2637,5.2483,5.1959,5.1374,5.0697,5.002,4.9682,4.9666,4.8958,4.862,4.862,4.862,4.862,4.862,4.862,4.862,4.862,4.862,4.862,4.862,4.862,4.862,4.8702,4.8702,4.7945,4.6982,4.6982,4.6212,4.5278,4.5278,4.5315,4.5463,4.5992,4.6136,4.6171,4.6333,4.6369,4.6369,4.6439,4.5621,4.4739,4.4283,4.3083,4.2029,4.1883,4.1835,4.1722,4.1367,4.0828,4.0133,3.9062,3.8388,3.7622,3.6508,3.5947,0.0,0.0,3.645,3.7081,3.7511,3.8704,3.934,0.0,0.0,0.0,0.0,0.0,3.5928,3.5806,3.6919,3.7935,3.8786,3.9468,3.9804,3.9823,3.9728,3.9661,3.9568,3.9854,4.0046,4.0101,4.0366,4.0489,4.0489,4.0489,4.0489,4.0489,4.0489,4.0489,4.0489,4.0347,4.0207,4.0066,4.9523,5.0002,5.0405,5.1063,5.1214,5.1214,5.1214,5.1214,5.1214,5.1214,5.1214,5.1214,5.1214,5.1214,5.1214,5.1214,5.1354,5.1541,5.1787,5.2017,5.2185,5.2306,5.2563,5.2713,5.2713,5.2344,5.199,5.1621,5.0928,5.0451,5.0128,4.9435,4.8927,4.862,4.862,4.862,4.862,4.862,4.862,4.862,4.862,4.862,4.862,4.862,4.862,4.862,4.862,4.7824,4.6746,4.6746,4.5928,4.4942,4.4942,4.4942,4.5055,4.5536,4.5739,4.5864,4.592,4.5992,4.608,4.608,4.4999,4.3915,4.3778,4.2649,4.1587,4.1421,4.1388,4.1355,4.1221,4.0908,4.0405,3.962,3.8997,3.8325,3.7569,3.6882,0.0,3.7459,3.8109,3.8787,3.9512,4.0652,4.1208,4.0924,0.0,0.0,3.9672,3.9277,3.8585,3.7633,3.8623,3.9422,3.9947,4.0055,4.0067,4.0011,3.9803,3.9589,3.9409,3.9818,4.0011,4.0031,4.0366,4.0489,4.0489,4.0489,4.0489,4.0489,4.0489,4.0489,4.0455,4.0242,4.0101,3.9996,4.9971,5.027,5.051,5.1124,5.1214,5.1214,5.1214,5.1214,5.1214,5.1214,5.1214,5.1214,5.1214,5.1214,5.1214,5.1214,5.1214,5.1308,5.1526,5.1849,5.2078,5.2261,5.2563,5.2713,5.2713,5.2713,5.2713,5.2713,5.2036,5.1359,5.0682,5.0005,4.9297,4.862,4.862,4.862,4.862,4.862,4.862,4.862,4.8578,4.8578,4.862,4.8578,4.8578,4.862,4.862,4.7804,4.6742,4.6634,4.5772,4.471,4.4618,4.461,4.4648,4.5055,4.5294,4.5478,4.5515,4.5662,4.5807,4.5807,4.4776,4.3731,4.3427,4.2338,4.1315,4.1083,4.1034,4.1068,4.1083,4.1117,4.0883,4.0263,3.961,3.9109,3.8842,0.0,3.8003,3.9221,3.9642,4.0121,4.0796,4.165,4.2059,4.1758,4.1539,0.0,0.0,4.0928,4.0483,3.9708,4.0372,4.0922,4.1307,4.0765,4.0412,4.0218,3.999,3.9871,3.9796,4.0192,4.0289,4.0218,4.0519,4.0597,4.0489,4.0489,4.0489,4.0489,4.0489,4.0489,4.0455,4.0172,4.0046,4.0031,5.0151,5.0644,5.1094,5.1199,5.1214,5.1214,5.1214,5.1214,5.1214,5.1214,5.1214,5.1214,5.1214,5.1214,5.1214,5.1214,5.1214,5.1214,5.1261,5.171,5.1987,5.2033,5.2488,5.2713,5.2713,5.2713,5.2713,5.2713,5.2036,5.1359,5.0682,5.0005,4.9297,4.862,4.862,4.862,4.862,4.862,4.862,4.8578,4.8412,4.8453,4.8563,4.8412,4.8453,4.862,4.862,4.8112,4.7357,4.6788,4.608,4.5341,4.4795,4.461,4.4663,4.4874,4.5092,4.5331,4.5662,4.5771,4.5807,4.5807,4.5032,4.4118,4.3392,4.2451,4.1565,4.0957,4.0833,4.0916,4.1068,4.1117,4.0984,4.059,3.9518,3.8844,3.9253,0.0,3.9336,4.0933,4.1787,4.248,4.3048,4.2999,4.278,4.2472,4.1783,4.132,4.1101,4.107,4.0911,4.061,4.1164,4.1395,4.129,4.0765,4.0747,4.128,4.0938,4.1061,4.1607,4.1827,4.1616,4.1117,4.1311,4.1093,4.0489,4.0489,4.0489,4.0489,4.0489,4.0489,4.0489,4.0296,4.0242,4.0242,5.0644,5.1005,5.1214,5.1214,5.1214,5.1214,5.1214,5.1214,5.1214,5.1214,5.1214,5.1214,5.1214,5.1214,5.1261,5.1401,5.1401,5.1494,5.1602,5.1849,5.2033,5.2155,5.2533,5.2713,5.2713,5.2713,5.2713,5.2713,5.2406,5.1898,5.1221,5.0543,4.9851,4.9174,4.8789,4.8537,4.8453,4.8453,4.837,4.8244,4.8175,4.8202,4.8244,4.816,4.8244,4.8453,4.8453,4.8065,4.7511,4.6819,4.6142,4.5464,4.4825,4.461,4.4663,4.4964,4.5204,4.5442,4.5698,4.5698,4.5625,4.5625,4.4929,4.4138,4.3676,4.2667,4.1728,4.1403,4.1047,4.0867,4.1068,4.127,4.1311,4.1145,4.0641,0.0,0.0,4.0569,4.0884,4.2064,4.2639,4.3077,4.3545,4.3295,4.3021,4.2775,4.2311,4.2008,4.1914,4.1819,4.1693,4.1502,4.1578,4.1489,4.129,4.0969,4.1052,4.1504,4.127,4.1456,4.1999,4.2206,4.2147,4.1826,4.1669,4.1417,4.1078,4.0659,4.0489,4.0489,4.0489,4.0489,4.0489,4.0347,4.0312,4.0277,5.1124,5.1214,5.1214,5.1214,5.1214,5.1214,5.1214,5.1214,5.1214,5.1214,5.1214,5.1214,5.1214,5.1261,5.1354,5.1587,5.168,5.1787,5.2063,5.2033,5.2078,5.2215,5.2427,5.2578,5.2608,5.2608,5.2653,5.2713,5.2713,5.2315,5.1594,5.1072,5.0396,4.9496,4.8944,4.8523,4.8244,4.8244,4.8133,4.8007,4.7922,4.7922,4.8007,4.7922,4.8049,4.8244,4.8286,4.8074,4.763,4.688,4.6249,4.568,4.4849,4.461,4.4663,4.5017,4.5278,4.5478,4.5662,4.5625,4.5478,4.5442,4.4856,4.4236,4.3965,4.304,4.222,4.212,4.1581,4.1168,4.1471,4.1582,4.1703,4.1785,0.0,0.0,0.0,4.1717,4.1921,4.2699,4.3001,4.326,4.3549,4.3251,4.2976,4.2806,4.2634,4.2539,4.2508,4.2445,4.2349,4.2174,4.1785,4.1489,4.129,4.1169,4.1351,4.1806,4.1679,4.1943,4.2604,4.2775,4.272,4.2515,4.2053,4.1704,4.1438,4.0782,4.0489,4.0489,4.0489,4.0489,4.0489,4.0366,4.0347,4.0347,5.1214,5.1214,5.1214,5.1214,5.1214,5.1214,5.1214,5.1214,5.1214,5.1214,5.1214,5.1214,5.1214,5.1401,5.1587,5.1587,5.1834,5.2063,5.2261,5.2109,5.2002,5.2033,5.2033,5.2155,5.2306,5.2352,5.2457,5.2713,5.2713,5.221,5.1342,5.1296,5.0476,4.9055,4.8994,4.8614,4.8007,4.8007,4.8007,4.7964,4.7709,4.7794,4.7964,4.7709,4.7794,4.8049,4.8244,4.8297,4.8068,4.6954,4.6557,4.6296,4.4987,4.461,4.4648,4.4874,4.5039,4.5257,4.5478,4.5515,4.5442,4.5257,4.5046,4.4679,4.4037,4.3695,4.338,4.3069,4.2455,4.2144,4.2653,4.2279,4.1996,4.2286,0.0,0.0,4.1858,4.1671,4.1747,4.2699,4.3265,4.3532,4.3432,4.3115,4.2775,4.2476,4.2413,4.2349,4.2142,4.2318,4.2381,4.2381,4.1883,4.1489,4.129,4.1169,4.1619,4.2715,4.2582,4.3165,4.4395,4.4433,4.3982,4.3203,4.2744,4.2032,4.1199,4.0696,4.0489,4.0489,4.0489,4.0489,4.0489,4.0489,4.0489,4.0489,5.1214,5.1214,5.1214,5.1214,5.1214,5.1214,5.1214,5.1214,5.1261,5.1448,5.1308,5.1323,5.1649,5.1649,5.1726,5.2033,5.2139,5.2276,5.2503,5.2322,5.2155,5.2002,5.2002,5.2109,5.2306,5.2306,5.2457,5.2713,5.2503,5.2274,5.1909,5.1392,5.0588,4.9604,4.9194,4.8546,4.7752,4.7752,4.7681,4.7553,4.7467,4.7467,4.7553,4.7467,4.7553,4.7752,4.7837,4.8049,4.819,4.7298,4.6822,4.6434,4.5495,4.491,4.4648,4.4836,4.5039,4.5182,4.5151,4.5114,4.5114,4.5039,4.4852,4.4662,4.4377,4.3954,4.3642,4.3692,4.2864,4.2257,4.28,4.2442,4.2093,4.2349,0.0,4.2136,4.2624,4.2743,4.2899,4.324,4.3492,4.3492,4.3235,4.2914,4.2634,4.2413,4.227,4.2254,4.2286,4.2445,4.2476,4.2413,4.2077,4.1785,4.1489,4.1221,4.1685,4.2793,4.2659,4.3294,4.461,4.461,4.4373,4.3876,4.299,4.2339,4.1826,4.0865,4.0489,4.0489,4.0489,4.0489,4.0489,4.0489,4.0489,4.0489,5.1214,5.1214,5.1214,5.1214,5.1214,5.1214,5.1214,5.1214,5.1308,5.1572,5.1354,5.1354,5.1849,5.1726,5.1772,5.2185,5.2261,5.2397,5.2563,5.2261,5.2002,5.1895,5.1803,5.1834,5.2079,5.2079,5.2231,5.2488,5.2291,5.217,5.2063,5.1455,5.0698,4.9762,4.9293,4.8511,4.751,4.751,4.7424,4.7309,4.7309,4.7309,4.7309,4.7309,4.7396,4.7495,4.7596,4.7794,4.7985,4.7481,4.6956,4.6401,4.5803,4.5126,4.461,4.4761,4.4889,4.498,4.4836,4.4799,4.4799,4.4799,4.4685,4.461,4.461,4.4293,4.4103,4.4398,4.3571,4.2906,4.318,4.2761,4.2333,4.2318,4.2539,4.279,4.2929,4.3235,4.3432,4.3432,4.3432,4.3342,4.3052,4.2774,4.2539,4.2413,4.227,4.227,4.2445,4.2539,4.2602,4.2539,4.2365,4.2109,4.1753,4.1339,4.1704,4.2793,4.2716,4.3316,4.461,4.461,4.4511,4.4259,4.3328,4.2677,4.2224,4.1234,4.0689,4.0489,4.0489,4.0489,4.0489,4.0489,4.0489,4.0489,5.1214,5.1214,5.1214,5.1214,5.1214,5.1214,5.1214,5.1214,5.1308,5.1572,5.1354,5.1308,5.1572,5.1587,5.1726,5.1987,5.2185,5.2306,5.2291,5.1849,5.1587,5.1587,5.1354,5.1308,5.1587,5.1587,5.1741,5.2002,5.2002,5.1849,5.1587,5.1587,5.0787,4.9314,4.9314,4.858,4.7309,4.7309,4.7309,4.7309,4.7309,4.7309,4.7309,4.7309,4.7309,4.7352,4.751,4.7581,4.7576,4.7357,4.6849,4.6202,4.5749,4.5126,4.461,4.461,4.461,4.461,4.461,4.461,4.461,4.461,4.461,4.461,4.461,4.4761,4.4964,4.5182,4.4789,4.4335,4.4071,4.3409,4.2744,4.2205,4.2286,4.2445,4.2571,4.2898,4.3113,4.3113,4.3113,4.3052,4.2899,4.2728,4.2539,4.2413,4.2413,4.2476,4.2602,4.2602,4.2696,4.2899,4.2696,4.2429,4.2109,4.1573,4.181,4.2793,4.2793,4.3432,4.461,4.461,4.4511,4.4289,4.3789,4.3113,4.227,4.1807,4.1186,4.0505,4.0489,4.0489,4.0489,4.0489,4.0489,4.0489,5.0917,5.1058,5.1214,5.1214,5.1214,5.1214,5.1214,5.1214,5.1308,5.1572,5.1354,5.1354,5.1849,5.1726,5.1726,5.1987,5.2033,5.2017,5.1803,5.168,5.1541,5.1308,5.1214,5.1308,5.1587,5.1587,5.1741,5.2002,5.1787,5.168,5.1587,5.1401,5.0618,4.9314,4.9314,4.858,4.7309,4.7309,4.7309,4.7309,4.7309,4.7309,4.7309,4.7309,4.7309,4.7309,4.7396,4.7467,4.7593,4.7525,4.6985,4.6125,4.5195,4.4779,4.461,4.461,4.461,4.461,4.461,4.461,4.461,4.461,4.461,4.461,4.461,4.4761,4.4964,4.5182,4.4789,4.446,4.4675,4.3711,4.2903,4.2893,4.2623,4.2445,4.2571,4.2821,4.3007,4.3082,4.3037,4.2945,4.2899,4.2728,4.2602,4.2539,4.2665,4.2775,4.2806,4.3037,4.3129,4.3021,4.299,4.2867,4.2665,4.2045,4.2214,4.322,4.3078,4.365,4.4799,4.4648,4.4511,4.4289,4.3789,4.3374,4.2928,4.1991,4.1478,4.1232,4.0689,4.0489,4.0489,4.0489,4.0489,4.0489,5.076,5.0917,5.1073,5.1167,5.1214,5.1214,5.1214,5.1214,5.1308,5.1572,5.1354,5.1354,5.1787,5.1587,5.1541,5.1834,5.1834,5.1787,5.1634,5.1494,5.1354,5.1214,5.1214,5.1261,5.1448,5.1448,5.1494,5.1664,5.1494,5.1448,5.1448,5.1261,5.0526,4.9314,4.9314,4.858,4.7309,4.7309,4.7309,4.7309,4.7309,4.7309,4.7309,4.7309,4.7309,4.7309,4.7309,4.7396,4.751,4.7596,4.7027,4.614,4.5186,4.4764,4.461,4.461,4.461,4.4671,4.491,4.4987,4.5049,4.5311,4.501,4.461,4.4685,4.4874,4.5092,4.5294,4.5118,4.4942,4.4871,4.4196,4.3579,4.3409,4.2956,4.2671,4.2816,4.2797,4.2821,4.2898,4.2883,4.2899,4.2899,4.2806,4.2728,4.2805,4.2976,4.3115,4.3115,4.3561,4.377,4.3678,4.3926,4.4012,4.3841,4.346,4.3389,4.3709,4.35,4.3975,4.5024,4.4799,4.461,4.4404,4.4119,4.378,4.3346,4.2396,4.1848,4.1524,4.0782,4.0489,4.0489,4.0489,4.0489,4.0489,5.0728,5.076,5.0855,5.112,5.1167,5.1167,5.1167,5.1167,5.1261,5.1494,5.1354,5.1308,5.1541,5.1354,5.1308,5.1541,5.1572,5.1572,5.1572,5.1354,5.1214,5.1214,5.1214,5.1214,5.1214,5.1214,5.1214,5.1214,5.1214,5.1214,5.1214,5.1214,5.0526,4.9314,4.9314,4.858,4.7309,4.7309,4.7309,4.7309,4.7309,4.7309,4.7309,4.7309,4.7309,4.7309,4.7309,4.7309,4.7337,4.7478,4.6986,4.6253,4.5511,4.5033,4.4702,4.4702,4.4702,4.4856,4.5495,4.568,4.5818,4.6372,4.5626,4.4778,4.4967,4.5086,4.5257,4.5442,4.5662,4.5566,4.4903,4.4678,4.4441,4.3841,4.3303,4.3045,4.321,4.2961,4.2765,4.2765,4.2954,4.3095,4.3095,4.3126,4.3203,4.3371,4.3539,4.363,4.36,4.4243,4.4605,4.4605,4.5248,4.5531,4.5355,4.5355,4.5017,4.4351,4.4131,4.4464,4.5247,4.5024,4.4799,4.4625,4.461,4.4202,4.3525,4.2827,4.2166,4.1489,4.0782,4.0489,4.0489,4.0505,4.0489,4.0489,5.0216,5.0537,5.0807,5.0855,5.1058,5.112,5.0917,5.1058,5.1167,5.0996,5.112,5.1214,5.1261,5.1214,5.1214,5.1261,5.1308,5.1308,5.1308,5.1214,5.1214,5.1214,5.1214,5.1214,5.1214,5.1214,5.1214,5.1214,5.1214,5.1214,5.1214,5.1214,5.0526,4.9314,4.9314,4.858,4.7309,4.7309,4.7309,4.7309,4.7309,4.7309,4.7309,4.7309,4.7309,4.7309,4.7309,4.7309,4.7263,4.6909,4.6842,4.6665,4.5648,4.534,4.5372,4.5372,4.5372,4.5511,4.6188,4.6372,4.628,4.5895,4.5743,4.5626,4.5664,4.5428,4.5257,4.5442,4.5552,4.5505,4.5348,4.4736,4.4189,4.4049,4.3752,4.3553,4.3604,4.3885,4.4072,4.4072,4.4399,4.4593,4.4561,4.4911,4.5241,4.5443,4.5504,4.5426,4.5287,4.5436,4.5535,4.5535,4.5684,4.5735,4.5687,4.5687,4.5618,4.543,4.5261,4.5346,4.5662,4.53,4.5024,4.4836,4.4648,4.4112,4.3302,4.2628,4.1897,4.1081,4.0537,4.0331,4.0381,4.047,4.0489,4.0489,5.0086,5.0313,5.0504,5.0647,5.0757,5.0805,5.071,5.0757,5.0852,5.0807,5.0917,5.1011,5.1011,5.1011,5.1011,5.1011,5.112,5.1214,5.1214,5.1214,5.1214,5.1214,5.1214,5.1214,5.1214,5.1214,5.1214,5.1214,5.1214,5.1214,5.1214,5.0853,5.0212,4.9299,4.8985,4.8237,4.7309,4.7309,4.7309,4.7309,4.7309,4.7309,4.7309,4.7309,4.7309,4.7309,4.7309,4.7309,4.7249,4.7034,4.6873,4.6705,4.6255,4.6039,4.5947,4.6025,4.6065,4.6142,4.6496,4.6683,4.6669,4.6314,4.6129,4.5957,4.5646,4.5469,4.5368,4.5478,4.5515,4.5478,4.5368,4.4944,4.4606,4.4606,4.4225,4.3949,4.4161,4.4206,4.4338,4.4606,4.4984,4.5276,4.5498,4.5906,4.6138,4.611,4.6155,4.6093,4.5829,4.6129,4.6311,4.6311,4.6659,4.6841,4.6841,4.6841,4.6798,4.6681,4.6071,4.5872,4.6028,4.5667,4.5262,4.4858,4.4346,4.382,4.3211,4.2145,4.1425,4.0921,4.0375,4.0207,4.0312,4.0366,4.047,4.0489,4.999,5.0086,5.0183,5.039,5.0453,5.0501,5.0453,5.0453,5.0534,5.0665,5.0713,5.0728,5.0728,5.0728,5.0728,5.0728,5.0932,5.1088,5.1088,5.1088,5.1088,5.1088,5.1088,5.1088,5.112,5.112,5.1167,5.1214,5.1214,5.1214,5.1214,5.0495,4.9898,4.9284,4.8581,4.7923,4.7309,4.7309,4.7309,4.7309,4.7309,4.7309,4.7309,4.7309,4.7309,4.7309,4.7309,4.7309,4.7309,4.7309,4.7064,4.6795,4.6955,4.6778,4.6492,4.6693,4.668,4.6619,4.6782,4.6879,4.6873,4.6803,4.6493,4.6068,4.5375,4.5331,4.5442,4.5478,4.5442,4.5368,4.5167,4.5129,4.5108,4.5108,4.4594,4.4388,4.4712,4.4506,4.4521,4.5077,4.5538,4.5989,4.6507,4.672,4.675,4.6538,4.6583,4.6474,4.6194,4.6758,4.709,4.709,4.7686,4.8001,4.8001,4.8001,4.7935,4.7737,4.6831,4.6361,4.6407,4.6028,4.5557,4.494,4.4013,4.3398,4.2975,4.1535,4.0849,4.0661,4.0137,4.0066,4.0207,4.0261,4.0366,4.0489,4.9732,4.9926,5.0086,5.0135,5.0342,5.0405,5.0183,5.0342,5.0453,5.0231,5.039,5.0534,5.0534,5.0534,5.0534,5.0534,5.0581,5.0581,5.0581,5.0581,5.0581,5.0581,5.0581,5.0662,5.0855,5.0855,5.0964,5.1214,5.1214,5.1214,5.1214,5.0495,4.9898,4.9284,4.8581,4.7923,4.7309,4.7309,4.7309,4.7309,4.7309,4.7309,4.7309,4.7309,4.7309,4.7309,4.7309,4.7309,4.7309,4.7309,4.7364,4.7398,4.7107,4.7098,4.7196,4.7384,4.705,4.6766,4.7512,4.7314,4.6803,4.6406,4.6378,4.6241,4.5397,4.522,4.5294,4.5478,4.5225,4.4949,4.4964,4.4814,4.4701,4.4701,4.4721,4.4862,4.5101,4.5518,4.601,4.6532,4.7325,4.7976,4.8373,4.8293,4.8214,4.8182,4.8023,4.788,4.7703,4.7802,4.7852,4.7852,4.7951,4.8001,4.8001,4.8001,4.8001,4.7968,4.7655,4.7238,4.6807,4.6407,4.5909,4.5348,4.4124,4.3063,4.2097,4.114,4.0308,3.9616,3.9691,3.9768,3.9839,4.0156,4.0366,4.0489,4.9717,4.9781,4.9878,4.9878,4.999,5.0038,4.9878,4.999,5.0038,5.0086,5.0198,5.0294,5.0294,5.0294,5.0294,5.0294,5.0405,5.0501,5.0501,5.0501,5.0501,5.0501,5.0501,5.0534,5.0614,5.0728,5.0855,5.0964,5.112,5.0988,5.0614,5.0002,4.9344,4.8686,4.8027,4.7578,4.7309,4.7309,4.7309,4.7309,4.7164,4.7164,4.7266,4.7121,4.7164,4.7309,4.7309,4.7309,4.7309,4.7424,4.751,4.7621,4.7714,4.779,4.7884,4.8091,4.8055,4.7852,4.7437,4.7294,4.7005,4.6056,4.588,4.5839,4.5467,4.5204,4.5039,4.5167,4.5039,4.4874,4.4761,4.4572,4.4473,4.4572,4.4587,4.4701,4.5145,4.563,4.6333,4.737,4.8115,4.8627,4.8894,4.8753,4.8627,4.8515,4.8324,4.8147,4.8001,4.8001,4.8001,4.8001,4.8001,4.8001,4.8001,4.8001,4.8001,4.8001,4.7886,4.7588,4.7064,4.6652,4.6124,4.5437,4.4272,4.3113,4.1938,4.1073,4.019,3.9424,3.9481,3.9589,3.9753,4.0156,4.0331,4.0401]}]]